Air Resources Laboratory banner image
Air Resources Laboratory web site National Oceanic and Atmospheric Administration (NOAA)

co hydro


Office: KRF

SRUS53 KKRF 170405
RR3KRF

NWS MISSOURI BASIN RIVER FORECAST CENTER PLEASANT HILL MO
Wed Aug 17 04:05:01 UTC 2022

:MILK - USGS discharge and stage data scrubbed from website

.AR  WLTN8  20220817 Z DH021500/HGIR2    13.89/                               :USGSID 06330000
.AR  WLTN8  20220817 Z DH023000/HGIR2    13.89/                               :USGSID 06330000
.AR  WLTN8  20220817 Z DH024500/HGIR2    13.89/                               :USGSID 06330000
.AR  WLTN8  20220817 Z DH030000/HGIR2    13.89/                               :USGSID 06330000


:END OF MESSAGE

$$




SRUS53 KKRF 162106
RR3KRF

NWS MISSOURI BASIN RIVER FORECAST CENTER PLEASANT HILL MO
Tue Aug 16 21:05:01 UTC 2022

:MILK - USGS discharge and stage data scrubbed from website

.AR  WLTN8  20220816 Z DH191500/HGIR2    13.88/                               :USGSID 06330000
.AR  WLTN8  20220816 Z DH193000/HGIR2    13.87/                               :USGSID 06330000
.AR  WLTN8  20220816 Z DH194500/HGIR2    13.86/                               :USGSID 06330000
.AR  WLTN8  20220816 Z DH200000/HGIR2    13.85/                               :USGSID 06330000


:END OF MESSAGE

$$



SRUS53 KKRF 162118
RR3KRF

NWS/Missouri Basin River Forecast Center Pleasant Hill MO
Tue Aug 16 21:17:44 UTC 2022


: realtime data from Montana DNRC


: Frenchman Creek at Mouth

.A FRCM8 20220816 M DH0930/QRIRP   0.009 /HGIRP  2.24
.A FRCM8 20220816 M DH0945/QRIRP   0.009 /HGIRP  2.25
.A FRCM8 20220816 M DH1000/QRIRP   0.009 /HGIRP  2.25
.A FRCM8 20220816 M DH1015/QRIRP   0.009 /HGIRP  2.25
.A FRCM8 20220816 M DH1030/QRIRP   0.009 /HGIRP  2.24
.A FRCM8 20220816 M DH1045/QRIRP   0.009 /HGIRP  2.24
.A FRCM8 20220816 M DH1100/QRIRP   0.009 /HGIRP  2.24
.A FRCM8 20220816 M DH1115/QRIRP   0.009 /HGIRP  2.25
.A FRCM8 20220816 M DH1130/QRIRP   0.008 /HGIRP  2.22
.A FRCM8 20220816 M DH1145/QRIRP   0.009 /HGIRP  2.23
.A FRCM8 20220816 M DH1200/QRIRP   0.008 /HGIRP  2.22
.A FRCM8 20220816 M DH1215/QRIRP   0.009 /HGIRP  2.23
.A FRCM8 20220816 M DH1230/QRIRP   0.009 /HGIRP  2.24
.A FRCM8 20220816 M DH1245/QRIRP   0.009 /HGIRP  2.25
.A FRCM8 20220816 M DH1300/QRIRP   0.009 /HGIRP  2.23
.A FRCM8 20220816 M DH1315/QRIRP   0.009 /HGIRP  2.24
.A FRCM8 20220816 M DH1330/QRIRP   0.009 /HGIRP  2.23
.A FRCM8 20220816 M DH1345/QRIRP   0.009 /HGIRP  2.25
.A FRCM8 20220816 M DH1400/QRIRP   0.009 /HGIRP  2.25
.A FRCM8 20220816 M DH1415/QRIRP   0.009 /HGIRP  2.23
.A FRCM8 20220816 M DH1430/QRIRP   0.009 /HGIRP  2.25
.A FRCM8 20220816 M DH1445/QRIRP   0.009 /HGIRP  2.24

: Teton River above Hwy 221 bridge

.A TCHM8 20220816 M DH0930/QRIRP   0.021 /HGIRP  1.85
.A TCHM8 20220816 M DH0945/QRIRP   0.021 /HGIRP  1.85
.A TCHM8 20220816 M DH1000/QRIRP   0.021 /HGIRP  1.85
.A TCHM8 20220816 M DH1015/QRIRP   0.021 /HGIRP  1.85
.A TCHM8 20220816 M DH1030/QRIRP   0.021 /HGIRP  1.85
.A TCHM8 20220816 M DH1045/QRIRP   0.021 /HGIRP  1.85
.A TCHM8 20220816 M DH1100/QRIRP   0.021 /HGIRP  1.85
.A TCHM8 20220816 M DH1115/QRIRP   0.021 /HGIRP  1.85
.A TCHM8 20220816 M DH1130/QRIRP   0.021 /HGIRP  1.85
.A TCHM8 20220816 M DH1145/QRIRP   0.021 /HGIRP  1.85
.A TCHM8 20220816 M DH1200/QRIRP   0.021 /HGIRP  1.85
.A TCHM8 20220816 M DH1215/QRIRP   0.021 /HGIRP  1.85
.A TCHM8 20220816 M DH1230/QRIRP   0.021 /HGIRP  1.85
.A TCHM8 20220816 M DH1245/QRIRP   0.021 /HGIRP  1.85
.A TCHM8 20220816 M DH1300/QRIRP   0.020 /HGIRP  1.84
.A TCHM8 20220816 M DH1315/QRIRP   0.020 /HGIRP  1.84
.A TCHM8 20220816 M DH1330/QRIRP   0.020 /HGIRP  1.84
.A TCHM8 20220816 M DH1345/QRIRP   0.020 /HGIRP  1.84
.A TCHM8 20220816 M DH1400/QRIRP   0.021 /HGIRP  1.85

: Canyon Creek at ZooMomtana

.A ZOOM8 20220816 M DH0930/QRIRP   0.092 /HGIRP  2.48 /DUS/TWIRP 14.23
.A ZOOM8 20220816 M DH0945/QRIRP   0.089 /HGIRP  2.44 /DUS/TWIRP 14.22
.A ZOOM8 20220816 M DH1000/QRIRP   0.089 /HGIRP  2.44 /DUS/TWIRP 14.22
.A ZOOM8 20220816 M DH1015/QRIRP   0.088 /HGIRP  2.43 /DUS/TWIRP 14.22
.A ZOOM8 20220816 M DH1030/QRIRP   0.091 /HGIRP  2.47 /DUS/TWIRP 14.22
.A ZOOM8 20220816 M DH1045/QRIRP   0.089 /HGIRP  2.44 /DUS/TWIRP 14.22
.A ZOOM8 20220816 M DH1100/QRIRP   0.086 /HGIRP  2.41 /DUS/TWIRP 14.22
.A ZOOM8 20220816 M DH1115/QRIRP   0.086 /HGIRP  2.41 /DUS/TWIRP 14.23
.A ZOOM8 20220816 M DH1130/QRIRP   0.086 /HGIRP  2.41 /DUS/TWIRP 14.23
.A ZOOM8 20220816 M DH1145/QRIRP   0.086 /HGIRP  2.41 /DUS/TWIRP 14.23
.A ZOOM8 20220816 M DH1200/QRIRP   0.085 /HGIRP  2.40 /DUS/TWIRP 14.24
.A ZOOM8 20220816 M DH1215/QRIRP   0.085 /HGIRP  2.39 /DUS/TWIRP 14.25
.A ZOOM8 20220816 M DH1230/QRIRP   0.084 /HGIRP  2.38 /DUS/TWIRP 14.26
.A ZOOM8 20220816 M DH1245/QRIRP   0.088 /HGIRP  2.43 /DUS/TWIRP 14.26
.A ZOOM8 20220816 M DH1300/QRIRP   0.085 /HGIRP  2.39 /DUS/TWIRP 14.27
.A ZOOM8 20220816 M DH1315/QRIRP   0.085 /HGIRP  2.39 /DUS/TWIRP 14.28
.A ZOOM8 20220816 M DH1330/QRIRP   0.082 /HGIRP  2.36 /DUS/TWIRP 14.28
.A ZOOM8 20220816 M DH1345/QRIRP   0.081 /HGIRP  2.35 /DUS/TWIRP 14.29
.A ZOOM8 20220816 M DH1400/QRIRP   0.081 /HGIRP  2.35 /DUS/TWIRP 14.30

: Sweet Grass Creek near Tronrud Bridge

.A SGCM8 20220816 M DH0930/QRIRP   0.058 /HGIRP  1.39 /DUS/TWIRP 9.440
.A SGCM8 20220816 M DH0945/QRIRP   0.058 /HGIRP  1.39 /DUS/TWIRP 9.620
.A SGCM8 20220816 M DH1000/QRIRP   0.058 /HGIRP  1.39 /DUS/TWIRP 9.820
.A SGCM8 20220816 M DH1015/QRIRP   0.058 /HGIRP  1.39 /DUS/TWIRP 10.05
.A SGCM8 20220816 M DH1030/QRIRP   0.058 /HGIRP  1.39 /DUS/TWIRP 10.29
.A SGCM8 20220816 M DH1045/QRIRP   0.058 /HGIRP  1.39 /DUS/TWIRP 10.56
.A SGCM8 20220816 M DH1100/QRIRP   0.058 /HGIRP  1.39 /DUS/TWIRP 10.85
.A SGCM8 20220816 M DH1115/QRIRP   0.058 /HGIRP  1.39 /DUS/TWIRP 11.16
.A SGCM8 20220816 M DH1130/QRIRP   0.058 /HGIRP  1.39 /DUS/TWIRP 11.50
.A SGCM8 20220816 M DH1145/QRIRP   0.057 /HGIRP  1.38 /DUS/TWIRP 11.87
.A SGCM8 20220816 M DH1200/QRIRP   0.058 /HGIRP  1.39 /DUS/TWIRP 12.26
.A SGCM8 20220816 M DH1215/QRIRP   0.057 /HGIRP  1.38 /DUS/TWIRP 12.65
.A SGCM8 20220816 M DH1230/QRIRP   0.058 /HGIRP  1.39 /DUS/TWIRP 13.04
.A SGCM8 20220816 M DH1245/QRIRP   0.057 /HGIRP  1.38 /DUS/TWIRP 13.42
.A SGCM8 20220816 M DH1300/QRIRP   0.057 /HGIRP  1.38 /DUS/TWIRP 13.80
.A SGCM8 20220816 M DH1315/QRIRP   0.057 /HGIRP  1.38 /DUS/TWIRP 14.21
.A SGCM8 20220816 M DH1330/QRIRP   0.057 /HGIRP  1.38 /DUS/TWIRP 14.59
.A SGCM8 20220816 M DH1345/QRIRP   0.057 /HGIRP  1.38 /DUS/TWIRP 14.87
.A SGCM8 20220816 M DH1400/QRIRP   0.057 /HGIRP  1.38 /DUS/TWIRP 15.09

: N Fk Musselshell River near Delphine

.A DLPM8 20220816 M DH0930/QRIRP   0.006 /HGIRP  0.73
.A DLPM8 20220816 M DH0945/QRIRP   0.006 /HGIRP  0.73
.A DLPM8 20220816 M DH1000/QRIRP   0.006 /HGIRP  0.74
.A DLPM8 20220816 M DH1015/QRIRP   0.006 /HGIRP  0.74
.A DLPM8 20220816 M DH1030/QRIRP   0.006 /HGIRP  0.74
.A DLPM8 20220816 M DH1045/QRIRP   0.006 /HGIRP  0.75
.A DLPM8 20220816 M DH1100/QRIRP   0.006 /HGIRP  0.74
.A DLPM8 20220816 M DH1115/QRIRP   0.006 /HGIRP  0.74
.A DLPM8 20220816 M DH1130/QRIRP   0.006 /HGIRP  0.74
.A DLPM8 20220816 M DH1145/QRIRP   0.006 /HGIRP  0.74
.A DLPM8 20220816 M DH1200/QRIRP   0.006 /HGIRP  0.73
.A DLPM8 20220816 M DH1215/QRIRP   0.006 /HGIRP  0.73
.A DLPM8 20220816 M DH1230/QRIRP   0.006 /HGIRP  0.73
.A DLPM8 20220816 M DH1245/QRIRP   0.006 /HGIRP  0.73
.A DLPM8 20220816 M DH1300/QRIRP   0.006 /HGIRP  0.73
.A DLPM8 20220816 M DH1315/QRIRP   0.006 /HGIRP  0.73
.A DLPM8 20220816 M DH1330/QRIRP   0.005 /HGIRP  0.72
.A DLPM8 20220816 M DH1345/QRIRP   0.005 /HGIRP  0.72
.A DLPM8 20220816 M DH1400/QRIRP   0.005 /HGIRP  0.72
.A DLPM8 20220816 M DH1415/QRIRP   0.005 /HGIRP  0.72

: N Fk Musselshell River below Bair Res

.A BAIM8 20220816 M DH0930/QRIRP   0.029 /HGIRP  0.88
.A BAIM8 20220816 M DH0945/QRIRP   0.028 /HGIRP  0.87
.A BAIM8 20220816 M DH1000/QRIRP   0.029 /HGIRP  0.88
.A BAIM8 20220816 M DH1015/QRIRP   0.028 /HGIRP  0.87
.A BAIM8 20220816 M DH1030/QRIRP   0.029 /HGIRP  0.88
.A BAIM8 20220816 M DH1045/QRIRP   0.029 /HGIRP  0.88
.A BAIM8 20220816 M DH1100/QRIRP   0.029 /HGIRP  0.88
.A BAIM8 20220816 M DH1115/QRIRP   0.029 /HGIRP  0.88
.A BAIM8 20220816 M DH1130/QRIRP   0.029 /HGIRP  0.88
.A BAIM8 20220816 M DH1145/QRIRP   0.029 /HGIRP  0.88
.A BAIM8 20220816 M DH1200/QRIRP   0.029 /HGIRP  0.88
.A BAIM8 20220816 M DH1215/QRIRP   0.029 /HGIRP  0.88
.A BAIM8 20220816 M DH1230/QRIRP   0.029 /HGIRP  0.88
.A BAIM8 20220816 M DH1245/QRIRP   0.029 /HGIRP  0.88
.A BAIM8 20220816 M DH1300/QRIRP   0.029 /HGIRP  0.88
.A BAIM8 20220816 M DH1315/QRIRP   0.029 /HGIRP  0.88
.A BAIM8 20220816 M DH1330/QRIRP   0.029 /HGIRP  0.88
.A BAIM8 20220816 M DH1345/QRIRP   0.029 /HGIRP  0.88
.A BAIM8 20220816 M DH1400/QRIRP   0.029 /HGIRP  0.88
.A BAIM8 20220816 M DH1415/QRIRP   0.029 /HGIRP  0.88

: Martinsdale Supply Canal

.A MTCM8 20220816 M DH0915/HGIRP   0.000

: Deadman's Basin Supply Canal

.A SHDM8 20220816 M DH0915/HGIRP  0.00
.A SHDM8 20220816 M DH0930/HGIRP  0.15
.A SHDM8 20220816 M DH0945/HGIRP  0.15
.A SHDM8 20220816 M DH1000/HGIRP  0.15
.A SHDM8 20220816 M DH1015/HGIRP  0.15
.A SHDM8 20220816 M DH1030/HGIRP  0.15
.A SHDM8 20220816 M DH1045/HGIRP  0.15
.A SHDM8 20220816 M DH1100/HGIRP  0.15
.A SHDM8 20220816 M DH1115/HGIRP  0.15
.A SHDM8 20220816 M DH1130/HGIRP  0.15
.A SHDM8 20220816 M DH1145/HGIRP  0.15
.A SHDM8 20220816 M DH1200/HGIRP  0.15
.A SHDM8 20220816 M DH1215/HGIRP  0.15
.A SHDM8 20220816 M DH1230/HGIRP  0.15
.A SHDM8 20220816 M DH1245/HGIRP  0.15
.A SHDM8 20220816 M DH1300/HGIRP  0.15
.A SHDM8 20220816 M DH1315/HGIRP  0.15
.A SHDM8 20220816 M DH1330/HGIRP  0.15
.A SHDM8 20220816 M DH1345/HGIRP  0.15
.A SHDM8 20220816 M DH1400/HGIRP  0.15

: Warm Springs Creek at Sand Rock Road near Denton

.A WSCM8 20220816 M DH0930/QRIRP   0.093 /HGIRP  1.74 /DUS/TWIRP 17.59
.A WSCM8 20220816 M DH0945/QRIRP   0.094 /HGIRP  1.75 /DUS/TWIRP 17.70
.A WSCM8 20220816 M DH1000/QRIRP   0.094 /HGIRP  1.75 /DUS/TWIRP 17.82
.A WSCM8 20220816 M DH1015/QRIRP   0.093 /HGIRP  1.74 /DUS/TWIRP 17.97
.A WSCM8 20220816 M DH1030/QRIRP   0.094 /HGIRP  1.75 /DUS/TWIRP 18.13
.A WSCM8 20220816 M DH1045/QRIRP   0.094 /HGIRP  1.75 /DUS/TWIRP 18.32
.A WSCM8 20220816 M DH1100/QRIRP   0.094 /HGIRP  1.75 /DUS/TWIRP 18.52
.A WSCM8 20220816 M DH1115/QRIRP   0.093 /HGIRP  1.74 /DUS/TWIRP 18.73
.A WSCM8 20220816 M DH1130/QRIRP   0.094 /HGIRP  1.75 /DUS/TWIRP 18.96
.A WSCM8 20220816 M DH1145/QRIRP   0.094 /HGIRP  1.75 /DUS/TWIRP 19.20
.A WSCM8 20220816 M DH1200/QRIRP   0.094 /HGIRP  1.75 /DUS/TWIRP 19.45
.A WSCM8 20220816 M DH1215/QRIRP   0.094 /HGIRP  1.75 /DUS/TWIRP 19.70
.A WSCM8 20220816 M DH1230/QRIRP   0.094 /HGIRP  1.75 /DUS/TWIRP 19.96
.A WSCM8 20220816 M DH1245/QRIRP   0.093 /HGIRP  1.74 /DUS/TWIRP 20.22
.A WSCM8 20220816 M DH1300/QRIRP   0.093 /HGIRP  1.74 /DUS/TWIRP 20.49
.A WSCM8 20220816 M DH1315/QRIRP   0.093 /HGIRP  1.74 /DUS/TWIRP 20.76
.A WSCM8 20220816 M DH1330/QRIRP   0.093 /HGIRP  1.74 /DUS/TWIRP 21.02
.A WSCM8 20220816 M DH1345/QRIRP   0.093 /HGIRP  1.74 /DUS/TWIRP 21.28
.A WSCM8 20220816 M DH1400/QRIRP   0.093 /HGIRP  1.74 /DUS/TWIRP 21.53
.A WSCM8 20220816 M DH1415/QRIRP   0.093 /HGIRP  1.74 /DUS/TWIRP 21.76

: East Gallatin River near Manhattan

.A GNMM8 20220816 M DH0930/QRIRP   0.165 /HGIRP  2.64 /DUS/TWIRP 17.63
.A GNMM8 20220816 M DH0945/QRIRP   0.165 /HGIRP  2.64 /DUS/TWIRP 17.75
.A GNMM8 20220816 M DH1000/QRIRP   0.165 /HGIRP  2.64 /DUS/TWIRP 17.91
.A GNMM8 20220816 M DH1015/QRIRP   0.165 /HGIRP  2.64 /DUS/TWIRP 18.08
.A GNMM8 20220816 M DH1030/QRIRP   0.165 /HGIRP  2.64 /DUS/TWIRP 18.28
.A GNMM8 20220816 M DH1045/QRIRP   0.165 /HGIRP  2.64 /DUS/TWIRP 18.47
.A GNMM8 20220816 M DH1100/QRIRP   0.165 /HGIRP  2.64 /DUS/TWIRP 18.63
.A GNMM8 20220816 M DH1115/QRIRP   0.165 /HGIRP  2.64 /DUS/TWIRP 18.86
.A GNMM8 20220816 M DH1130/QRIRP   0.165 /HGIRP  2.64 /DUS/TWIRP 19.06
.A GNMM8 20220816 M DH1145/QRIRP   0.165 /HGIRP  2.64 /DUS/TWIRP 19.30
.A GNMM8 20220816 M DH1200/QRIRP   0.165 /HGIRP  2.64 /DUS/TWIRP 19.54
.A GNMM8 20220816 M DH1215/QRIRP   0.165 /HGIRP  2.64 /DUS/TWIRP 19.75
.A GNMM8 20220816 M DH1230/QRIRP   0.165 /HGIRP  2.64 /DUS/TWIRP 19.98
.A GNMM8 20220816 M DH1245/QRIRP   0.165 /HGIRP  2.64 /DUS/TWIRP 20.19
.A GNMM8 20220816 M DH1300/QRIRP   0.165 /HGIRP  2.64 /DUS/TWIRP 20.42
.A GNMM8 20220816 M DH1315/QRIRP   0.165 /HGIRP  2.64 /DUS/TWIRP 20.65
.A GNMM8 20220816 M DH1330/QRIRP   0.165 /HGIRP  2.64 /DUS/TWIRP 20.88
.A GNMM8 20220816 M DH1345/QRIRP   0.165 /HGIRP  2.64 /DUS/TWIRP 21.10
.A GNMM8 20220816 M DH1400/QRIRP   0.165 /HGIRP  2.64 /DUS/TWIRP 21.30
.A GNMM8 20220816 M DH1415/QRIRP   0.165 /HGIRP  2.64 /DUS/TWIRP 21.50

: Sourdough Creek abv city intake near Bozeman

.A SNBM8 20220816 M DH0930/QRIRP   0.014 /HGIRP  1.19
.A SNBM8 20220816 M DH0945/QRIRP   0.014 /HGIRP  1.19
.A SNBM8 20220816 M DH1000/QRIRP   0.014 /HGIRP  1.19
.A SNBM8 20220816 M DH1015/QRIRP   0.014 /HGIRP  1.19
.A SNBM8 20220816 M DH1030/QRIRP   0.014 /HGIRP  1.19
.A SNBM8 20220816 M DH1045/QRIRP   0.014 /HGIRP  1.19
.A SNBM8 20220816 M DH1100/QRIRP   0.014 /HGIRP  1.19
.A SNBM8 20220816 M DH1115/QRIRP   0.014 /HGIRP  1.19
.A SNBM8 20220816 M DH1130/QRIRP   0.014 /HGIRP  1.18
.A SNBM8 20220816 M DH1145/QRIRP   0.014 /HGIRP  1.19
.A SNBM8 20220816 M DH1200/QRIRP   0.014 /HGIRP  1.19
.A SNBM8 20220816 M DH1215/QRIRP   0.014 /HGIRP  1.19
.A SNBM8 20220816 M DH1230/QRIRP   0.014 /HGIRP  1.19
.A SNBM8 20220816 M DH1245/QRIRP   0.014 /HGIRP  1.19
.A SNBM8 20220816 M DH1300/QRIRP   0.014 /HGIRP  1.19
.A SNBM8 20220816 M DH1315/QRIRP   0.014 /HGIRP  1.19
.A SNBM8 20220816 M DH1330/QRIRP   0.014 /HGIRP  1.19
.A SNBM8 20220816 M DH1345/QRIRP   0.014 /HGIRP  1.19
.A SNBM8 20220816 M DH1400/QRIRP   0.014 /HGIRP  1.19

: Ruby River at Harrington bridge near Sheridan

.A RNSM8 20220816 M DH0930/QRIRP   0.086 /HGIRP  2.51 /DUS/TWIRP 16.64
.A RNSM8 20220816 M DH0945/QRIRP   0.086 /HGIRP  2.51 /DUS/TWIRP 16.62
.A RNSM8 20220816 M DH1000/QRIRP   0.086 /HGIRP  2.51 /DUS/TWIRP 16.60
.A RNSM8 20220816 M DH1015/QRIRP   0.086 /HGIRP  2.51 /DUS/TWIRP 16.60
.A RNSM8 20220816 M DH1030/QRIRP   0.086 /HGIRP  2.51 /DUS/TWIRP 16.60
.A RNSM8 20220816 M DH1045/QRIRP   0.086 /HGIRP  2.51 /DUS/TWIRP 16.63
.A RNSM8 20220816 M DH1100/QRIRP   0.088 /HGIRP  2.52 /DUS/TWIRP 16.66
.A RNSM8 20220816 M DH1115/QRIRP   0.086 /HGIRP  2.51 /DUS/TWIRP 16.71
.A RNSM8 20220816 M DH1130/QRIRP   0.088 /HGIRP  2.52 /DUS/TWIRP 16.76
.A RNSM8 20220816 M DH1145/QRIRP   0.088 /HGIRP  2.52 /DUS/TWIRP 16.84
.A RNSM8 20220816 M DH1200/QRIRP   0.088 /HGIRP  2.52 /DUS/TWIRP 16.91
.A RNSM8 20220816 M DH1215/QRIRP   0.088 /HGIRP  2.52 /DUS/TWIRP 17.00
.A RNSM8 20220816 M DH1230/QRIRP   0.088 /HGIRP  2.52 /DUS/TWIRP 17.09
.A RNSM8 20220816 M DH1245/QRIRP   0.088 /HGIRP  2.52 /DUS/TWIRP 17.18
.A RNSM8 20220816 M DH1300/QRIRP   0.088 /HGIRP  2.52 /DUS/TWIRP 17.28
.A RNSM8 20220816 M DH1315/QRIRP   0.088 /HGIRP  2.52 /DUS/TWIRP 17.38
.A RNSM8 20220816 M DH1330/QRIRP   0.088 /HGIRP  2.52 /DUS/TWIRP 17.49
.A RNSM8 20220816 M DH1345/QRIRP   0.088 /HGIRP  2.52 /DUS/TWIRP 17.61
.A RNSM8 20220816 M DH1400/QRIRP   0.088 /HGIRP  2.52 /DUS/TWIRP 17.72

: Wise River near mouth near Wise River

.A WRNM8 20220816 M DH0930/QRIRP   0.019 /HGIRP  0.67 /DUS/TWIRP 10.05
.A WRNM8 20220816 M DH0945/QRIRP   0.018 /HGIRP  0.66 /DUS/TWIRP 10.23
.A WRNM8 20220816 M DH1000/QRIRP   0.019 /HGIRP  0.67 /DUS/TWIRP 10.45
.A WRNM8 20220816 M DH1015/QRIRP   0.019 /HGIRP  0.67 /DUS/TWIRP 10.73
.A WRNM8 20220816 M DH1030/QRIRP   0.019 /HGIRP  0.67 /DUS/TWIRP 11.06
.A WRNM8 20220816 M DH1045/QRIRP   0.019 /HGIRP  0.67 /DUS/TWIRP 11.44
.A WRNM8 20220816 M DH1100/QRIRP   0.019 /HGIRP  0.67 /DUS/TWIRP 11.86
.A WRNM8 20220816 M DH1115/QRIRP   0.019 /HGIRP  0.68 /DUS/TWIRP 12.32
.A WRNM8 20220816 M DH1130/QRIRP   0.019 /HGIRP  0.68 /DUS/TWIRP 12.78
.A WRNM8 20220816 M DH1145/QRIRP   0.019 /HGIRP  0.67 /DUS/TWIRP 13.25
.A WRNM8 20220816 M DH1200/QRIRP   0.020 /HGIRP  0.69 /DUS/TWIRP 13.71
.A WRNM8 20220816 M DH1215/QRIRP   0.019 /HGIRP  0.67 /DUS/TWIRP 14.19
.A WRNM8 20220816 M DH1230/QRIRP   0.019 /HGIRP  0.67 /DUS/TWIRP 14.67
.A WRNM8 20220816 M DH1245/QRIRP   0.019 /HGIRP  0.67 /DUS/TWIRP 15.15
.A WRNM8 20220816 M DH1300/QRIRP   0.019 /HGIRP  0.67 /DUS/TWIRP 15.62
.A WRNM8 20220816 M DH1315/QRIRP   0.019 /HGIRP  0.67 /DUS/TWIRP 16.07
.A WRNM8 20220816 M DH1330/QRIRP   0.019 /HGIRP  0.67 /DUS/TWIRP 16.50
.A WRNM8 20220816 M DH1345/QRIRP   0.021 /HGIRP  0.70 /DUS/TWIRP 16.90
.A WRNM8 20220816 M DH1400/QRIRP   0.021 /HGIRP  0.71 /DUS/TWIRP 17.29
.A WRNM8 20220816 M DH1415/QRIRP   0.021 /HGIRP  0.71 /DUS/TWIRP 17.70

: Teton River abv Springhill

.A TRAM8 20220816 M DH0930/QRIRP   0.033 /HGIRP  3.74 /DUS/TWIRP 18.40
.A TRAM8 20220816 M DH0945/QRIRP   0.033 /HGIRP  3.74 /DUS/TWIRP 18.69
.A TRAM8 20220816 M DH1000/QRIRP   0.033 /HGIRP  3.74 /DUS/TWIRP 18.98
.A TRAM8 20220816 M DH1015/QRIRP   0.033 /HGIRP  3.74 /DUS/TWIRP 19.25
.A TRAM8 20220816 M DH1030/QRIRP   0.033 /HGIRP  3.74 /DUS/TWIRP 19.57
.A TRAM8 20220816 M DH1045/QRIRP   0.033 /HGIRP  3.74 /DUS/TWIRP 19.87
.A TRAM8 20220816 M DH1100/QRIRP   0.033 /HGIRP  3.74 /DUS/TWIRP 20.18
.A TRAM8 20220816 M DH1115/QRIRP   0.033 /HGIRP  3.74 /DUS/TWIRP 20.49
.A TRAM8 20220816 M DH1130/QRIRP   0.033 /HGIRP  3.74 /DUS/TWIRP 20.81
.A TRAM8 20220816 M DH1145/QRIRP   0.033 /HGIRP  3.74 /DUS/TWIRP 21.12
.A TRAM8 20220816 M DH1200/QRIRP   0.033 /HGIRP  3.74 /DUS/TWIRP 21.42
.A TRAM8 20220816 M DH1215/QRIRP   0.033 /HGIRP  3.74 /DUS/TWIRP 21.72
.A TRAM8 20220816 M DH1230/QRIRP   0.033 /HGIRP  3.74 /DUS/TWIRP 22.02
.A TRAM8 20220816 M DH1245/QRIRP   0.033 /HGIRP  3.74 /DUS/TWIRP 22.32
.A TRAM8 20220816 M DH1300/QRIRP   0.033 /HGIRP  3.74 /DUS/TWIRP 22.61
.A TRAM8 20220816 M DH1315/QRIRP   0.033 /HGIRP  3.74 /DUS/TWIRP 22.85
.A TRAM8 20220816 M DH1330/QRIRP   0.033 /HGIRP  3.74 /DUS/TWIRP 23.09
.A TRAM8 20220816 M DH1345/QRIRP   0.033 /HGIRP  3.74 /DUS/TWIRP 23.34
.A TRAM8 20220816 M DH1400/QRIRP   0.033 /HGIRP  3.74 /DUS/TWIRP 23.55
.A TRAM8 20220816 M DH1415/QRIRP   0.033 /HGIRP  3.74 /DUS/TWIRP 23.77

: Red Rock River abv Clark Canyon Res

.A RCDM8 20220816 M DH0930/QRIRP   0.119 /HGIRP  3.63 /DUS/TWIRP 14.00
.A RCDM8 20220816 M DH0945/QRIRP   0.119 /HGIRP  3.63 /DUS/TWIRP 14.12
.A RCDM8 20220816 M DH1000/QRIRP   0.119 /HGIRP  3.63 /DUS/TWIRP 14.26
.A RCDM8 20220816 M DH1015/QRIRP   0.119 /HGIRP  3.63 /DUS/TWIRP 14.42
.A RCDM8 20220816 M DH1030/QRIRP   0.121 /HGIRP  3.64 /DUS/TWIRP 14.59
.A RCDM8 20220816 M DH1045/QRIRP   0.119 /HGIRP  3.63 /DUS/TWIRP 14.80
.A RCDM8 20220816 M DH1100/QRIRP   0.119 /HGIRP  3.63 /DUS/TWIRP 15.01
.A RCDM8 20220816 M DH1115/QRIRP   0.119 /HGIRP  3.63 /DUS/TWIRP 15.23
.A RCDM8 20220816 M DH1130/QRIRP   0.121 /HGIRP  3.64 /DUS/TWIRP 15.47
.A RCDM8 20220816 M DH1145/QRIRP   0.119 /HGIRP  3.63 /DUS/TWIRP 15.71
.A RCDM8 20220816 M DH1200/QRIRP   0.119 /HGIRP  3.63 /DUS/TWIRP 15.96
.A RCDM8 20220816 M DH1215/QRIRP   0.119 /HGIRP  3.63 /DUS/TWIRP 16.24
.A RCDM8 20220816 M DH1230/QRIRP   0.121 /HGIRP  3.64 /DUS/TWIRP 16.51
.A RCDM8 20220816 M DH1245/QRIRP   0.119 /HGIRP  3.63 /DUS/TWIRP 16.80
.A RCDM8 20220816 M DH1300/QRIRP   0.119 /HGIRP  3.63 /DUS/TWIRP 17.08
.A RCDM8 20220816 M DH1315/QRIRP   0.119 /HGIRP  3.63 /DUS/TWIRP 17.37
.A RCDM8 20220816 M DH1330/QRIRP   0.121 /HGIRP  3.64 /DUS/TWIRP 17.65
.A RCDM8 20220816 M DH1345/QRIRP   0.119 /HGIRP  3.63 /DUS/TWIRP 17.92
.A RCDM8 20220816 M DH1400/QRIRP   0.119 /HGIRP  3.63 /DUS/TWIRP 18.18
.A RCDM8 20220816 M DH1415/QRIRP   0.119 /HGIRP  3.63 /DUS/TWIRP 18.43

: Mill Coulee Creek near Sun River

.A MCSM8 20220816 M DH0930/QRIRP   0.042 /HGIRP  2.15
.A MCSM8 20220816 M DH0945/QRIRP   0.043 /HGIRP  2.19
.A MCSM8 20220816 M DH1000/QRIRP   0.043 /HGIRP  2.20
.A MCSM8 20220816 M DH1015/QRIRP   0.043 /HGIRP  2.19
.A MCSM8 20220816 M DH1030/QRIRP   0.043 /HGIRP  2.19
.A MCSM8 20220816 M DH1045/QRIRP   0.043 /HGIRP  2.19
.A MCSM8 20220816 M DH1100/QRIRP   0.043 /HGIRP  2.20
.A MCSM8 20220816 M DH1115/QRIRP   0.043 /HGIRP  2.20
.A MCSM8 20220816 M DH1130/QRIRP   0.043 /HGIRP  2.19
.A MCSM8 20220816 M DH1145/QRIRP   0.043 /HGIRP  2.19
.A MCSM8 20220816 M DH1200/QRIRP   0.043 /HGIRP  2.18
.A MCSM8 20220816 M DH1215/QRIRP   0.043 /HGIRP  2.18
.A MCSM8 20220816 M DH1230/QRIRP   0.043 /HGIRP  2.20
.A MCSM8 20220816 M DH1245/QRIRP   0.043 /HGIRP  2.20
.A MCSM8 20220816 M DH1300/QRIRP   0.043 /HGIRP  2.20
.A MCSM8 20220816 M DH1315/QRIRP   0.043 /HGIRP  2.20
.A MCSM8 20220816 M DH1330/QRIRP   0.043 /HGIRP  2.20
.A MCSM8 20220816 M DH1345/QRIRP   0.043 /HGIRP  2.19
.A MCSM8 20220816 M DH1400/QRIRP   0.043 /HGIRP  2.17
.A MCSM8 20220816 M DH1415/QRIRP   0.043 /HGIRP  2.17

: Duck Creek abv Simms Ashuelot Road Bridge

.A DCSM8 20220816 M DH0930/QRIRP   0.042 /HGIRP  1.45
.A DCSM8 20220816 M DH0945/QRIRP   0.042 /HGIRP  1.45
.A DCSM8 20220816 M DH1000/QRIRP   0.042 /HGIRP  1.45
.A DCSM8 20220816 M DH1015/QRIRP   0.042 /HGIRP  1.45
.A DCSM8 20220816 M DH1030/QRIRP   0.042 /HGIRP  1.45
.A DCSM8 20220816 M DH1045/QRIRP   0.042 /HGIRP  1.45
.A DCSM8 20220816 M DH1100/QRIRP   0.042 /HGIRP  1.45
.A DCSM8 20220816 M DH1115/QRIRP   0.042 /HGIRP  1.45
.A DCSM8 20220816 M DH1130/QRIRP   0.042 /HGIRP  1.45
.A DCSM8 20220816 M DH1145/QRIRP   0.042 /HGIRP  1.45
.A DCSM8 20220816 M DH1200/QRIRP   0.042 /HGIRP  1.45
.A DCSM8 20220816 M DH1215/QRIRP   0.042 /HGIRP  1.45
.A DCSM8 20220816 M DH1230/QRIRP   0.042 /HGIRP  1.45
.A DCSM8 20220816 M DH1245/QRIRP   0.042 /HGIRP  1.46
.A DCSM8 20220816 M DH1300/QRIRP   0.042 /HGIRP  1.46
.A DCSM8 20220816 M DH1315/QRIRP   0.042 /HGIRP  1.46
.A DCSM8 20220816 M DH1330/QRIRP   0.042 /HGIRP  1.47
.A DCSM8 20220816 M DH1345/QRIRP   0.042 /HGIRP  1.47
.A DCSM8 20220816 M DH1400/QRIRP   0.048 /HGIRP  1.47
.A DCSM8 20220816 M DH1415/QRIRP   0.048 /HGIRP  1.48
.A DCSM8 20220816 M DH1430/QRIRP   0.048 /HGIRP  1.48
.A DCSM8 20220816 M DH1445/QRIRP   0.048 /HGIRP  1.48

:  People's Creek near Dodson

.A KHRM8 20220816 M DH0930/QRIRP   0.000 /HGIRP  9.90
.A KHRM8 20220816 M DH0945/QRIRP   0.000 /HGIRP  9.90
.A KHRM8 20220816 M DH1000/QRIRP   0.000 /HGIRP  9.89
.A KHRM8 20220816 M DH1015/QRIRP   0.000 /HGIRP  9.89
.A KHRM8 20220816 M DH1030/QRIRP   0.000 /HGIRP  9.89
.A KHRM8 20220816 M DH1045/QRIRP   0.000 /HGIRP  9.89
.A KHRM8 20220816 M DH1100/QRIRP   0.000 /HGIRP  9.89
.A KHRM8 20220816 M DH1115/QRIRP   0.000 /HGIRP  9.89
.A KHRM8 20220816 M DH1130/QRIRP   0.000 /HGIRP  9.89
.A KHRM8 20220816 M DH1145/QRIRP   0.000 /HGIRP  9.89
.A KHRM8 20220816 M DH1200/QRIRP   0.000 /HGIRP  9.89
.A KHRM8 20220816 M DH1215/QRIRP   0.000 /HGIRP  9.88
.A KHRM8 20220816 M DH1230/QRIRP   0.000 /HGIRP  9.88
.A KHRM8 20220816 M DH1245/QRIRP   0.000 /HGIRP  9.87
.A KHRM8 20220816 M DH1300/QRIRP   0.000 /HGIRP  9.86
.A KHRM8 20220816 M DH1315/QRIRP   0.000 /HGIRP  9.86
.A KHRM8 20220816 M DH1330/QRIRP   0.000 /HGIRP  9.87
.A KHRM8 20220816 M DH1345/QRIRP   0.000 /HGIRP  9.87
.A KHRM8 20220816 M DH1400/QRIRP   0.000 /HGIRP  9.86
.A KHRM8 20220816 M DH1415/QRIRP   0.000 /HGIRP  9.83

:END OF MESSAGE

$$



SRUS53 KKRF 162205
RR3KRF

NWS MISSOURI BASIN RIVER FORECAST CENTER PLEASANT HILL MO
Tue Aug 16 22:05:01 UTC 2022

:MILK - USGS discharge and stage data scrubbed from website

.AR  WLTN8  20220816 Z DH201500/HGIR2    13.87/                               :USGSID 06330000
.AR  WLTN8  20220816 Z DH203000/HGIR2    13.87/                               :USGSID 06330000
.AR  WLTN8  20220816 Z DH204500/HGIR2    13.87/                               :USGSID 06330000
.AR  WLTN8  20220816 Z DH210000/HGIR2    13.88/                               :USGSID 06330000


:END OF MESSAGE

$$



SRUS53 KKRF 162305
RR3KRF

NWS MISSOURI BASIN RIVER FORECAST CENTER PLEASANT HILL MO
Tue Aug 16 23:05:01 UTC 2022

:MILK - USGS discharge and stage data scrubbed from website

.AR  WLTN8  20220816 Z DH211500/HGIR2    13.88/                               :USGSID 06330000
.AR  WLTN8  20220816 Z DH213000/HGIR2    13.90/                               :USGSID 06330000
.AR  WLTN8  20220816 Z DH214500/HGIR2    13.89/                               :USGSID 06330000
.AR  WLTN8  20220816 Z DH220000/HGIR2    13.90/                               :USGSID 06330000


:END OF MESSAGE

$$



SRUS53 KKRF 170005
RR3KRF

NWS MISSOURI BASIN RIVER FORECAST CENTER PLEASANT HILL MO
Wed Aug 17 00:05:01 UTC 2022

:MILK - USGS discharge and stage data scrubbed from website

.AR  WLTN8  20220816 Z DH221500/HGIR2    13.89/                               :USGSID 06330000
.AR  WLTN8  20220816 Z DH223000/HGIR2    13.90/                               :USGSID 06330000
.AR  WLTN8  20220816 Z DH224500/HGIR2    13.91/                               :USGSID 06330000
.AR  WLTN8  20220816 Z DH230000/HGIR2    13.90/                               :USGSID 06330000


:END OF MESSAGE

$$



SRUS53 KKRF 170018
RR3KRF

NWS/Missouri Basin River Forecast Center Pleasant Hill MO
Wed Aug 17 00:17:55 UTC 2022


: realtime data from Montana DNRC


: Frenchman Creek at Mouth

.A FRCM8 20220816 M DH1230/QRIRP   0.009 /HGIRP  2.24
.A FRCM8 20220816 M DH1245/QRIRP   0.009 /HGIRP  2.25
.A FRCM8 20220816 M DH1300/QRIRP   0.009 /HGIRP  2.23
.A FRCM8 20220816 M DH1315/QRIRP   0.009 /HGIRP  2.24
.A FRCM8 20220816 M DH1330/QRIRP   0.009 /HGIRP  2.23
.A FRCM8 20220816 M DH1345/QRIRP   0.009 /HGIRP  2.25
.A FRCM8 20220816 M DH1400/QRIRP   0.009 /HGIRP  2.25
.A FRCM8 20220816 M DH1415/QRIRP   0.009 /HGIRP  2.23
.A FRCM8 20220816 M DH1430/QRIRP   0.009 /HGIRP  2.25
.A FRCM8 20220816 M DH1445/QRIRP   0.009 /HGIRP  2.24
.A FRCM8 20220816 M DH1500/QRIRP   0.009 /HGIRP  2.25
.A FRCM8 20220816 M DH1515/QRIRP   0.010 /HGIRP  2.26
.A FRCM8 20220816 M DH1530/QRIRP   0.009 /HGIRP  2.25
.A FRCM8 20220816 M DH1545/QRIRP   0.009 /HGIRP  2.24
.A FRCM8 20220816 M DH1600/QRIRP   0.010 /HGIRP  2.26
.A FRCM8 20220816 M DH1615/QRIRP   0.010 /HGIRP  2.26
.A FRCM8 20220816 M DH1630/QRIRP   0.010 /HGIRP  2.26
.A FRCM8 20220816 M DH1645/QRIRP   0.010 /HGIRP  2.26
.A FRCM8 20220816 M DH1700/QRIRP   0.010 /HGIRP  2.26
.A FRCM8 20220816 M DH1715/QRIRP   0.010 /HGIRP  2.26
.A FRCM8 20220816 M DH1730/QRIRP   0.009 /HGIRP  2.24
.A FRCM8 20220816 M DH1745/QRIRP   0.010 /HGIRP  2.26

: Teton River above Hwy 221 bridge

.A TCHM8 20220816 M DH1230/QRIRP   0.021 /HGIRP  1.85
.A TCHM8 20220816 M DH1245/QRIRP   0.021 /HGIRP  1.85
.A TCHM8 20220816 M DH1300/QRIRP   0.020 /HGIRP  1.84
.A TCHM8 20220816 M DH1315/QRIRP   0.020 /HGIRP  1.84
.A TCHM8 20220816 M DH1330/QRIRP   0.020 /HGIRP  1.84
.A TCHM8 20220816 M DH1345/QRIRP   0.020 /HGIRP  1.84
.A TCHM8 20220816 M DH1400/QRIRP   0.021 /HGIRP  1.85
.A TCHM8 20220816 M DH1415/QRIRP   0.020 /HGIRP  1.84
.A TCHM8 20220816 M DH1430/QRIRP   0.020 /HGIRP  1.84
.A TCHM8 20220816 M DH1445/QRIRP   0.020 /HGIRP  1.84
.A TCHM8 20220816 M DH1500/QRIRP   0.020 /HGIRP  1.84
.A TCHM8 20220816 M DH1515/QRIRP   0.020 /HGIRP  1.84
.A TCHM8 20220816 M DH1530/QRIRP   0.020 /HGIRP  1.84
.A TCHM8 20220816 M DH1545/QRIRP   0.020 /HGIRP  1.84
.A TCHM8 20220816 M DH1600/QRIRP   0.020 /HGIRP  1.84
.A TCHM8 20220816 M DH1615/QRIRP   0.020 /HGIRP  1.84
.A TCHM8 20220816 M DH1630/QRIRP   0.020 /HGIRP  1.84
.A TCHM8 20220816 M DH1645/QRIRP   0.020 /HGIRP  1.84
.A TCHM8 20220816 M DH1700/QRIRP   0.020 /HGIRP  1.84

: Canyon Creek at ZooMomtana

.A ZOOM8 20220816 M DH1230/QRIRP   0.084 /HGIRP  2.38 /DUS/TWIRP 14.26
.A ZOOM8 20220816 M DH1245/QRIRP   0.088 /HGIRP  2.43 /DUS/TWIRP 14.26
.A ZOOM8 20220816 M DH1300/QRIRP   0.085 /HGIRP  2.39 /DUS/TWIRP 14.27
.A ZOOM8 20220816 M DH1315/QRIRP   0.085 /HGIRP  2.39 /DUS/TWIRP 14.28
.A ZOOM8 20220816 M DH1330/QRIRP   0.082 /HGIRP  2.36 /DUS/TWIRP 14.28
.A ZOOM8 20220816 M DH1345/QRIRP   0.081 /HGIRP  2.35 /DUS/TWIRP 14.29
.A ZOOM8 20220816 M DH1400/QRIRP   0.081 /HGIRP  2.35 /DUS/TWIRP 14.30
.A ZOOM8 20220816 M DH1415/QRIRP   0.081 /HGIRP  2.34 /DUS/TWIRP 14.30
.A ZOOM8 20220816 M DH1430/QRIRP   0.081 /HGIRP  2.34 /DUS/TWIRP 14.31
.A ZOOM8 20220816 M DH1445/QRIRP   0.081 /HGIRP  2.34 /DUS/TWIRP 14.32
.A ZOOM8 20220816 M DH1500/QRIRP   0.081 /HGIRP  2.34 /DUS/TWIRP 14.32
.A ZOOM8 20220816 M DH1515/QRIRP   0.081 /HGIRP  2.34 /DUS/TWIRP 14.33
.A ZOOM8 20220816 M DH1530/QRIRP   0.081 /HGIRP  2.35 /DUS/TWIRP 14.35
.A ZOOM8 20220816 M DH1545/QRIRP   0.081 /HGIRP  2.35 /DUS/TWIRP 14.36
.A ZOOM8 20220816 M DH1600/QRIRP   0.082 /HGIRP  2.36 /DUS/TWIRP 14.36
.A ZOOM8 20220816 M DH1615/QRIRP   0.082 /HGIRP  2.36 /DUS/TWIRP 14.37
.A ZOOM8 20220816 M DH1630/QRIRP   0.084 /HGIRP  2.38 /DUS/TWIRP 14.38
.A ZOOM8 20220816 M DH1645/QRIRP   0.083 /HGIRP  2.37 /DUS/TWIRP 14.37
.A ZOOM8 20220816 M DH1700/QRIRP   0.083 /HGIRP  2.37 /DUS/TWIRP 14.38

: Sweet Grass Creek near Tronrud Bridge

.A SGCM8 20220816 M DH1230/QRIRP   0.058 /HGIRP  1.39 /DUS/TWIRP 13.04
.A SGCM8 20220816 M DH1245/QRIRP   0.057 /HGIRP  1.38 /DUS/TWIRP 13.42
.A SGCM8 20220816 M DH1300/QRIRP   0.057 /HGIRP  1.38 /DUS/TWIRP 13.80
.A SGCM8 20220816 M DH1315/QRIRP   0.057 /HGIRP  1.38 /DUS/TWIRP 14.21
.A SGCM8 20220816 M DH1330/QRIRP   0.057 /HGIRP  1.38 /DUS/TWIRP 14.59
.A SGCM8 20220816 M DH1345/QRIRP   0.057 /HGIRP  1.38 /DUS/TWIRP 14.87
.A SGCM8 20220816 M DH1400/QRIRP   0.057 /HGIRP  1.38 /DUS/TWIRP 15.09
.A SGCM8 20220816 M DH1415/QRIRP   0.057 /HGIRP  1.38 /DUS/TWIRP 15.38
.A SGCM8 20220816 M DH1430/QRIRP   0.057 /HGIRP  1.38 /DUS/TWIRP 15.62
.A SGCM8 20220816 M DH1445/QRIRP   0.057 /HGIRP  1.38 /DUS/TWIRP 15.66
.A SGCM8 20220816 M DH1500/QRIRP   0.056 /HGIRP  1.37 /DUS/TWIRP 15.80
.A SGCM8 20220816 M DH1515/QRIRP   0.057 /HGIRP  1.38 /DUS/TWIRP 15.95
.A SGCM8 20220816 M DH1530/QRIRP   0.057 /HGIRP  1.38 /DUS/TWIRP 16.20
.A SGCM8 20220816 M DH1545/QRIRP   0.056 /HGIRP  1.37 /DUS/TWIRP 16.38
.A SGCM8 20220816 M DH1600/QRIRP   0.056 /HGIRP  1.37 /DUS/TWIRP 16.57
.A SGCM8 20220816 M DH1615/QRIRP   0.056 /HGIRP  1.37 /DUS/TWIRP 16.73
.A SGCM8 20220816 M DH1630/QRIRP   0.056 /HGIRP  1.37 /DUS/TWIRP 16.86
.A SGCM8 20220816 M DH1645/QRIRP   0.056 /HGIRP  1.37 /DUS/TWIRP 16.92
.A SGCM8 20220816 M DH1700/QRIRP   0.056 /HGIRP  1.37 /DUS/TWIRP 16.94

: N Fk Musselshell River near Delphine

.A DLPM8 20220816 M DH1230/QRIRP   0.006 /HGIRP  0.73
.A DLPM8 20220816 M DH1245/QRIRP   0.006 /HGIRP  0.73
.A DLPM8 20220816 M DH1300/QRIRP   0.006 /HGIRP  0.73
.A DLPM8 20220816 M DH1315/QRIRP   0.006 /HGIRP  0.73
.A DLPM8 20220816 M DH1330/QRIRP   0.005 /HGIRP  0.72
.A DLPM8 20220816 M DH1345/QRIRP   0.005 /HGIRP  0.72
.A DLPM8 20220816 M DH1400/QRIRP   0.005 /HGIRP  0.72
.A DLPM8 20220816 M DH1415/QRIRP   0.005 /HGIRP  0.72
.A DLPM8 20220816 M DH1430/QRIRP   0.005 /HGIRP  0.72
.A DLPM8 20220816 M DH1445/QRIRP   0.005 /HGIRP  0.71
.A DLPM8 20220816 M DH1500/QRIRP   0.005 /HGIRP  0.71
.A DLPM8 20220816 M DH1515/QRIRP   0.005 /HGIRP  0.71
.A DLPM8 20220816 M DH1530/QRIRP   0.005 /HGIRP  0.71
.A DLPM8 20220816 M DH1545/QRIRP   0.005 /HGIRP  0.70
.A DLPM8 20220816 M DH1600/QRIRP   0.005 /HGIRP  0.70
.A DLPM8 20220816 M DH1615/QRIRP   0.005 /HGIRP  0.70
.A DLPM8 20220816 M DH1630/QRIRP   0.005 /HGIRP  0.70
.A DLPM8 20220816 M DH1645/QRIRP   0.005 /HGIRP  0.69
.A DLPM8 20220816 M DH1700/QRIRP   0.005 /HGIRP  0.69
.A DLPM8 20220816 M DH1715/QRIRP   0.005 /HGIRP  0.69

: N Fk Musselshell River below Bair Res

.A BAIM8 20220816 M DH1230/QRIRP   0.029 /HGIRP  0.88
.A BAIM8 20220816 M DH1245/QRIRP   0.029 /HGIRP  0.88
.A BAIM8 20220816 M DH1300/QRIRP   0.029 /HGIRP  0.88
.A BAIM8 20220816 M DH1315/QRIRP   0.029 /HGIRP  0.88
.A BAIM8 20220816 M DH1330/QRIRP   0.029 /HGIRP  0.88
.A BAIM8 20220816 M DH1345/QRIRP   0.029 /HGIRP  0.88
.A BAIM8 20220816 M DH1400/QRIRP   0.029 /HGIRP  0.88
.A BAIM8 20220816 M DH1415/QRIRP   0.029 /HGIRP  0.88
.A BAIM8 20220816 M DH1430/QRIRP   0.029 /HGIRP  0.88
.A BAIM8 20220816 M DH1445/QRIRP   0.029 /HGIRP  0.88
.A BAIM8 20220816 M DH1500/QRIRP   0.029 /HGIRP  0.88
.A BAIM8 20220816 M DH1515/QRIRP   0.029 /HGIRP  0.88
.A BAIM8 20220816 M DH1530/QRIRP   0.029 /HGIRP  0.88
.A BAIM8 20220816 M DH1545/QRIRP   0.029 /HGIRP  0.88
.A BAIM8 20220816 M DH1600/QRIRP   0.029 /HGIRP  0.88
.A BAIM8 20220816 M DH1615/QRIRP   0.029 /HGIRP  0.88
.A BAIM8 20220816 M DH1630/QRIRP   0.029 /HGIRP  0.88
.A BAIM8 20220816 M DH1645/QRIRP   0.029 /HGIRP  0.88
.A BAIM8 20220816 M DH1700/QRIRP   0.029 /HGIRP  0.88
.A BAIM8 20220816 M DH1715/QRIRP   0.029 /HGIRP  0.88

: Martinsdale Supply Canal

.A MTCM8 20220816 M DH1215/HGIRP   0.000

: Deadman's Basin Supply Canal

.A SHDM8 20220816 M DH1215/HGIRP  0.00
.A SHDM8 20220816 M DH1230/HGIRP  0.15
.A SHDM8 20220816 M DH1245/HGIRP  0.15
.A SHDM8 20220816 M DH1300/HGIRP  0.15
.A SHDM8 20220816 M DH1315/HGIRP  0.15
.A SHDM8 20220816 M DH1330/HGIRP  0.15
.A SHDM8 20220816 M DH1345/HGIRP  0.15
.A SHDM8 20220816 M DH1400/HGIRP  0.15
.A SHDM8 20220816 M DH1415/HGIRP  0.15
.A SHDM8 20220816 M DH1430/HGIRP  0.15
.A SHDM8 20220816 M DH1445/HGIRP  0.15
.A SHDM8 20220816 M DH1500/HGIRP  0.15
.A SHDM8 20220816 M DH1515/HGIRP  0.15
.A SHDM8 20220816 M DH1530/HGIRP  0.15
.A SHDM8 20220816 M DH1545/HGIRP  0.15
.A SHDM8 20220816 M DH1600/HGIRP  0.15

: Warm Springs Creek at Sand Rock Road near Denton

.A WSCM8 20220816 M DH1230/QRIRP   0.094 /HGIRP  1.75 /DUS/TWIRP 19.96
.A WSCM8 20220816 M DH1245/QRIRP   0.093 /HGIRP  1.74 /DUS/TWIRP 20.22
.A WSCM8 20220816 M DH1300/QRIRP   0.093 /HGIRP  1.74 /DUS/TWIRP 20.49
.A WSCM8 20220816 M DH1315/QRIRP   0.093 /HGIRP  1.74 /DUS/TWIRP 20.76
.A WSCM8 20220816 M DH1330/QRIRP   0.093 /HGIRP  1.74 /DUS/TWIRP 21.02
.A WSCM8 20220816 M DH1345/QRIRP   0.093 /HGIRP  1.74 /DUS/TWIRP 21.28
.A WSCM8 20220816 M DH1400/QRIRP   0.093 /HGIRP  1.74 /DUS/TWIRP 21.53
.A WSCM8 20220816 M DH1415/QRIRP   0.093 /HGIRP  1.74 /DUS/TWIRP 21.76
.A WSCM8 20220816 M DH1430/QRIRP   0.093 /HGIRP  1.74 /DUS/TWIRP 21.97
.A WSCM8 20220816 M DH1445/QRIRP   0.093 /HGIRP  1.74 /DUS/TWIRP 22.18
.A WSCM8 20220816 M DH1500/QRIRP   0.093 /HGIRP  1.74 /DUS/TWIRP 22.38
.A WSCM8 20220816 M DH1515/QRIRP   0.093 /HGIRP  1.74 /DUS/TWIRP 22.60
.A WSCM8 20220816 M DH1530/QRIRP   0.093 /HGIRP  1.74 /DUS/TWIRP 22.78
.A WSCM8 20220816 M DH1545/QRIRP   0.092 /HGIRP  1.73 /DUS/TWIRP 22.95
.A WSCM8 20220816 M DH1600/QRIRP   0.093 /HGIRP  1.74 /DUS/TWIRP 23.10
.A WSCM8 20220816 M DH1615/QRIRP   0.092 /HGIRP  1.73 /DUS/TWIRP 23.25
.A WSCM8 20220816 M DH1630/QRIRP   0.092 /HGIRP  1.73 /DUS/TWIRP 23.39
.A WSCM8 20220816 M DH1645/QRIRP   0.092 /HGIRP  1.73 /DUS/TWIRP 23.51
.A WSCM8 20220816 M DH1700/QRIRP   0.092 /HGIRP  1.73 /DUS/TWIRP 23.61
.A WSCM8 20220816 M DH1715/QRIRP   0.092 /HGIRP  1.73 /DUS/TWIRP 23.70

: East Gallatin River near Manhattan

.A GNMM8 20220816 M DH1230/QRIRP   0.165 /HGIRP  2.64 /DUS/TWIRP 19.98
.A GNMM8 20220816 M DH1245/QRIRP   0.165 /HGIRP  2.64 /DUS/TWIRP 20.19
.A GNMM8 20220816 M DH1300/QRIRP   0.165 /HGIRP  2.64 /DUS/TWIRP 20.42
.A GNMM8 20220816 M DH1315/QRIRP   0.165 /HGIRP  2.64 /DUS/TWIRP 20.65
.A GNMM8 20220816 M DH1330/QRIRP   0.165 /HGIRP  2.64 /DUS/TWIRP 20.88
.A GNMM8 20220816 M DH1345/QRIRP   0.165 /HGIRP  2.64 /DUS/TWIRP 21.10
.A GNMM8 20220816 M DH1400/QRIRP   0.165 /HGIRP  2.64 /DUS/TWIRP 21.30
.A GNMM8 20220816 M DH1415/QRIRP   0.165 /HGIRP  2.64 /DUS/TWIRP 21.50
.A GNMM8 20220816 M DH1430/QRIRP   0.165 /HGIRP  2.64 /DUS/TWIRP 21.71
.A GNMM8 20220816 M DH1445/QRIRP   0.165 /HGIRP  2.64 /DUS/TWIRP 21.88
.A GNMM8 20220816 M DH1500/QRIRP   0.165 /HGIRP  2.64 /DUS/TWIRP 22.03
.A GNMM8 20220816 M DH1515/QRIRP   0.165 /HGIRP  2.64 /DUS/TWIRP 22.18
.A GNMM8 20220816 M DH1530/QRIRP   0.165 /HGIRP  2.64 /DUS/TWIRP 22.34
.A GNMM8 20220816 M DH1545/QRIRP   0.165 /HGIRP  2.64 /DUS/TWIRP 22.48
.A GNMM8 20220816 M DH1600/QRIRP   0.162 /HGIRP  2.63 /DUS/TWIRP 22.60
.A GNMM8 20220816 M DH1615/QRIRP   0.162 /HGIRP  2.63 /DUS/TWIRP 22.65
.A GNMM8 20220816 M DH1630/QRIRP   0.162 /HGIRP  2.63 /DUS/TWIRP 22.73
.A GNMM8 20220816 M DH1645/QRIRP   0.162 /HGIRP  2.63 /DUS/TWIRP 22.78
.A GNMM8 20220816 M DH1700/QRIRP   0.162 /HGIRP  2.63 /DUS/TWIRP 22.83
.A GNMM8 20220816 M DH1715/QRIRP   0.162 /HGIRP  2.63 /DUS/TWIRP 22.83

: Sourdough Creek abv city intake near Bozeman

.A SNBM8 20220816 M DH1230/QRIRP   0.014 /HGIRP  1.19
.A SNBM8 20220816 M DH1245/QRIRP   0.014 /HGIRP  1.19
.A SNBM8 20220816 M DH1300/QRIRP   0.014 /HGIRP  1.19
.A SNBM8 20220816 M DH1315/QRIRP   0.014 /HGIRP  1.19
.A SNBM8 20220816 M DH1330/QRIRP   0.014 /HGIRP  1.19
.A SNBM8 20220816 M DH1345/QRIRP   0.014 /HGIRP  1.19
.A SNBM8 20220816 M DH1400/QRIRP   0.014 /HGIRP  1.19
.A SNBM8 20220816 M DH1415/QRIRP   0.014 /HGIRP  1.19
.A SNBM8 20220816 M DH1430/QRIRP   0.014 /HGIRP  1.18
.A SNBM8 20220816 M DH1445/QRIRP   0.014 /HGIRP  1.19
.A SNBM8 20220816 M DH1500/QRIRP   0.014 /HGIRP  1.18
.A SNBM8 20220816 M DH1515/QRIRP   0.014 /HGIRP  1.18
.A SNBM8 20220816 M DH1530/QRIRP   0.014 /HGIRP  1.18
.A SNBM8 20220816 M DH1545/QRIRP   0.014 /HGIRP  1.18
.A SNBM8 20220816 M DH1600/QRIRP   0.014 /HGIRP  1.18
.A SNBM8 20220816 M DH1615/QRIRP   0.014 /HGIRP  1.18
.A SNBM8 20220816 M DH1630/QRIRP   0.014 /HGIRP  1.18
.A SNBM8 20220816 M DH1645/QRIRP   0.014 /HGIRP  1.18
.A SNBM8 20220816 M DH1700/QRIRP   0.014 /HGIRP  1.18

: Ruby River at Harrington bridge near Sheridan

.A RNSM8 20220816 M DH1230/QRIRP   0.088 /HGIRP  2.52 /DUS/TWIRP 17.09
.A RNSM8 20220816 M DH1245/QRIRP   0.088 /HGIRP  2.52 /DUS/TWIRP 17.18
.A RNSM8 20220816 M DH1300/QRIRP   0.088 /HGIRP  2.52 /DUS/TWIRP 17.28
.A RNSM8 20220816 M DH1315/QRIRP   0.088 /HGIRP  2.52 /DUS/TWIRP 17.38
.A RNSM8 20220816 M DH1330/QRIRP   0.088 /HGIRP  2.52 /DUS/TWIRP 17.49
.A RNSM8 20220816 M DH1345/QRIRP   0.088 /HGIRP  2.52 /DUS/TWIRP 17.61
.A RNSM8 20220816 M DH1400/QRIRP   0.088 /HGIRP  2.52 /DUS/TWIRP 17.72
.A RNSM8 20220816 M DH1415/QRIRP   0.088 /HGIRP  2.52 /DUS/TWIRP 17.84
.A RNSM8 20220816 M DH1430/QRIRP   0.088 /HGIRP  2.52 /DUS/TWIRP 17.96
.A RNSM8 20220816 M DH1445/QRIRP   0.088 /HGIRP  2.52 /DUS/TWIRP 18.07
.A RNSM8 20220816 M DH1500/QRIRP   0.088 /HGIRP  2.52 /DUS/TWIRP 18.20
.A RNSM8 20220816 M DH1515/QRIRP   0.086 /HGIRP  2.51 /DUS/TWIRP 18.32
.A RNSM8 20220816 M DH1530/QRIRP   0.088 /HGIRP  2.52 /DUS/TWIRP 18.45
.A RNSM8 20220816 M DH1545/QRIRP   0.088 /HGIRP  2.52 /DUS/TWIRP 18.57
.A RNSM8 20220816 M DH1600/QRIRP   0.086 /HGIRP  2.51 /DUS/TWIRP 18.70
.A RNSM8 20220816 M DH1615/QRIRP   0.088 /HGIRP  2.52 /DUS/TWIRP 18.84
.A RNSM8 20220816 M DH1630/QRIRP   0.086 /HGIRP  2.51 /DUS/TWIRP 18.97
.A RNSM8 20220816 M DH1645/QRIRP   0.086 /HGIRP  2.51 /DUS/TWIRP 19.09
.A RNSM8 20220816 M DH1700/QRIRP   0.086 /HGIRP  2.51 /DUS/TWIRP 19.20

: Wise River near mouth near Wise River

.A WRNM8 20220816 M DH1230/QRIRP   0.019 /HGIRP  0.67 /DUS/TWIRP 14.67
.A WRNM8 20220816 M DH1245/QRIRP   0.019 /HGIRP  0.67 /DUS/TWIRP 15.15
.A WRNM8 20220816 M DH1300/QRIRP   0.019 /HGIRP  0.67 /DUS/TWIRP 15.62
.A WRNM8 20220816 M DH1315/QRIRP   0.019 /HGIRP  0.67 /DUS/TWIRP 16.07
.A WRNM8 20220816 M DH1330/QRIRP   0.019 /HGIRP  0.67 /DUS/TWIRP 16.50
.A WRNM8 20220816 M DH1345/QRIRP   0.021 /HGIRP  0.70 /DUS/TWIRP 16.90
.A WRNM8 20220816 M DH1400/QRIRP   0.021 /HGIRP  0.71 /DUS/TWIRP 17.29
.A WRNM8 20220816 M DH1415/QRIRP   0.021 /HGIRP  0.71 /DUS/TWIRP 17.70
.A WRNM8 20220816 M DH1430/QRIRP   0.019 /HGIRP  0.67 /DUS/TWIRP 18.08
.A WRNM8 20220816 M DH1445/QRIRP   0.021 /HGIRP  0.71 /DUS/TWIRP 18.44
.A WRNM8 20220816 M DH1500/QRIRP   0.021 /HGIRP  0.70 /DUS/TWIRP 18.75
.A WRNM8 20220816 M DH1515/QRIRP   0.021 /HGIRP  0.70 /DUS/TWIRP 19.05
.A WRNM8 20220816 M DH1530/QRIRP   0.021 /HGIRP  0.70 /DUS/TWIRP 19.29
.A WRNM8 20220816 M DH1545/QRIRP   0.020 /HGIRP  0.69 /DUS/TWIRP 19.53
.A WRNM8 20220816 M DH1600/QRIRP   0.021 /HGIRP  0.71 /DUS/TWIRP 19.68
.A WRNM8 20220816 M DH1615/QRIRP   0.021 /HGIRP  0.70 /DUS/TWIRP 19.79
.A WRNM8 20220816 M DH1630/QRIRP   0.021 /HGIRP  0.70 /DUS/TWIRP 19.93
.A WRNM8 20220816 M DH1645/QRIRP   0.020 /HGIRP  0.69 /DUS/TWIRP 19.99
.A WRNM8 20220816 M DH1700/QRIRP   0.020 /HGIRP  0.69 /DUS/TWIRP 20.02
.A WRNM8 20220816 M DH1715/QRIRP   0.020 /HGIRP  0.69 /DUS/TWIRP 19.95

: Teton River abv Springhill

.A TRAM8 20220816 M DH1230/QRIRP   0.033 /HGIRP  3.74 /DUS/TWIRP 22.02
.A TRAM8 20220816 M DH1245/QRIRP   0.033 /HGIRP  3.74 /DUS/TWIRP 22.32
.A TRAM8 20220816 M DH1300/QRIRP   0.033 /HGIRP  3.74 /DUS/TWIRP 22.61
.A TRAM8 20220816 M DH1315/QRIRP   0.033 /HGIRP  3.74 /DUS/TWIRP 22.85
.A TRAM8 20220816 M DH1330/QRIRP   0.033 /HGIRP  3.74 /DUS/TWIRP 23.09
.A TRAM8 20220816 M DH1345/QRIRP   0.033 /HGIRP  3.74 /DUS/TWIRP 23.34
.A TRAM8 20220816 M DH1400/QRIRP   0.033 /HGIRP  3.74 /DUS/TWIRP 23.55
.A TRAM8 20220816 M DH1415/QRIRP   0.033 /HGIRP  3.74 /DUS/TWIRP 23.77
.A TRAM8 20220816 M DH1430/QRIRP   0.033 /HGIRP  3.74 /DUS/TWIRP 23.96
.A TRAM8 20220816 M DH1445/QRIRP   0.033 /HGIRP  3.74 /DUS/TWIRP 24.13
.A TRAM8 20220816 M DH1500/QRIRP   0.033 /HGIRP  3.74 /DUS/TWIRP 24.25
.A TRAM8 20220816 M DH1515/QRIRP   0.033 /HGIRP  3.74 /DUS/TWIRP 24.37
.A TRAM8 20220816 M DH1530/QRIRP   0.032 /HGIRP  3.73 /DUS/TWIRP 24.44
.A TRAM8 20220816 M DH1545/QRIRP   0.032 /HGIRP  3.73 /DUS/TWIRP 24.52
.A TRAM8 20220816 M DH1600/QRIRP   0.032 /HGIRP  3.73 /DUS/TWIRP 24.59
.A TRAM8 20220816 M DH1615/QRIRP   0.032 /HGIRP  3.73 /DUS/TWIRP 24.65
.A TRAM8 20220816 M DH1630/QRIRP   0.032 /HGIRP  3.73 /DUS/TWIRP 24.64
.A TRAM8 20220816 M DH1645/QRIRP   0.032 /HGIRP  3.73 /DUS/TWIRP 24.64
.A TRAM8 20220816 M DH1700/QRIRP   0.032 /HGIRP  3.73 /DUS/TWIRP 24.63
.A TRAM8 20220816 M DH1715/QRIRP   0.032 /HGIRP  3.73 /DUS/TWIRP 24.54

: Red Rock River abv Clark Canyon Res

.A RCDM8 20220816 M DH1230/QRIRP   0.121 /HGIRP  3.64 /DUS/TWIRP 16.51
.A RCDM8 20220816 M DH1245/QRIRP   0.119 /HGIRP  3.63 /DUS/TWIRP 16.80
.A RCDM8 20220816 M DH1300/QRIRP   0.119 /HGIRP  3.63 /DUS/TWIRP 17.08
.A RCDM8 20220816 M DH1315/QRIRP   0.119 /HGIRP  3.63 /DUS/TWIRP 17.37
.A RCDM8 20220816 M DH1330/QRIRP   0.121 /HGIRP  3.64 /DUS/TWIRP 17.65
.A RCDM8 20220816 M DH1345/QRIRP   0.119 /HGIRP  3.63 /DUS/TWIRP 17.92
.A RCDM8 20220816 M DH1400/QRIRP   0.119 /HGIRP  3.63 /DUS/TWIRP 18.18
.A RCDM8 20220816 M DH1415/QRIRP   0.119 /HGIRP  3.63 /DUS/TWIRP 18.43
.A RCDM8 20220816 M DH1430/QRIRP   0.119 /HGIRP  3.63 /DUS/TWIRP 18.66
.A RCDM8 20220816 M DH1445/QRIRP   0.119 /HGIRP  3.63 /DUS/TWIRP 18.90
.A RCDM8 20220816 M DH1500/QRIRP   0.119 /HGIRP  3.63 /DUS/TWIRP 19.13
.A RCDM8 20220816 M DH1515/QRIRP   0.116 /HGIRP  3.62 /DUS/TWIRP 19.36
.A RCDM8 20220816 M DH1530/QRIRP   0.119 /HGIRP  3.63 /DUS/TWIRP 19.57
.A RCDM8 20220816 M DH1545/QRIRP   0.116 /HGIRP  3.62 /DUS/TWIRP 19.76
.A RCDM8 20220816 M DH1600/QRIRP   0.116 /HGIRP  3.62 /DUS/TWIRP 19.93
.A RCDM8 20220816 M DH1615/QRIRP   0.116 /HGIRP  3.62 /DUS/TWIRP 20.08
.A RCDM8 20220816 M DH1630/QRIRP   0.116 /HGIRP  3.62 /DUS/TWIRP 20.21
.A RCDM8 20220816 M DH1645/QRIRP   0.116 /HGIRP  3.62 /DUS/TWIRP 20.31
.A RCDM8 20220816 M DH1700/QRIRP   0.119 /HGIRP  3.63 /DUS/TWIRP 20.38
.A RCDM8 20220816 M DH1715/QRIRP   0.116 /HGIRP  3.62 /DUS/TWIRP 20.43

: Mill Coulee Creek near Sun River

.A MCSM8 20220816 M DH1230/QRIRP   0.043 /HGIRP  2.20
.A MCSM8 20220816 M DH1245/QRIRP   0.043 /HGIRP  2.20
.A MCSM8 20220816 M DH1300/QRIRP   0.043 /HGIRP  2.20
.A MCSM8 20220816 M DH1315/QRIRP   0.043 /HGIRP  2.20
.A MCSM8 20220816 M DH1330/QRIRP   0.043 /HGIRP  2.20
.A MCSM8 20220816 M DH1345/QRIRP   0.043 /HGIRP  2.19
.A MCSM8 20220816 M DH1400/QRIRP   0.043 /HGIRP  2.17
.A MCSM8 20220816 M DH1415/QRIRP   0.043 /HGIRP  2.17
.A MCSM8 20220816 M DH1430/QRIRP   0.043 /HGIRP  2.17
.A MCSM8 20220816 M DH1445/QRIRP   0.042 /HGIRP  2.16
.A MCSM8 20220816 M DH1500/QRIRP   0.043 /HGIRP  2.17
.A MCSM8 20220816 M DH1515/QRIRP   0.043 /HGIRP  2.17
.A MCSM8 20220816 M DH1530/QRIRP   0.043 /HGIRP  2.17
.A MCSM8 20220816 M DH1545/QRIRP   0.043 /HGIRP  2.17
.A MCSM8 20220816 M DH1600/QRIRP   0.043 /HGIRP  2.17
.A MCSM8 20220816 M DH1615/QRIRP   0.043 /HGIRP  2.17
.A MCSM8 20220816 M DH1630/QRIRP   0.043 /HGIRP  2.18
.A MCSM8 20220816 M DH1645/QRIRP   0.043 /HGIRP  2.19
.A MCSM8 20220816 M DH1700/QRIRP   0.043 /HGIRP  2.20
.A MCSM8 20220816 M DH1715/QRIRP   0.043 /HGIRP  2.19

: Duck Creek abv Simms Ashuelot Road Bridge

.A DCSM8 20220816 M DH1230/QRIRP   0.042 /HGIRP  1.45
.A DCSM8 20220816 M DH1245/QRIRP   0.042 /HGIRP  1.46
.A DCSM8 20220816 M DH1300/QRIRP   0.042 /HGIRP  1.46
.A DCSM8 20220816 M DH1315/QRIRP   0.042 /HGIRP  1.46
.A DCSM8 20220816 M DH1330/QRIRP   0.042 /HGIRP  1.47
.A DCSM8 20220816 M DH1345/QRIRP   0.042 /HGIRP  1.47
.A DCSM8 20220816 M DH1400/QRIRP   0.048 /HGIRP  1.47
.A DCSM8 20220816 M DH1415/QRIRP   0.048 /HGIRP  1.48
.A DCSM8 20220816 M DH1430/QRIRP   0.048 /HGIRP  1.48
.A DCSM8 20220816 M DH1445/QRIRP   0.048 /HGIRP  1.48
.A DCSM8 20220816 M DH1500/QRIRP   0.048 /HGIRP  1.48
.A DCSM8 20220816 M DH1515/QRIRP   0.049 /HGIRP  1.49
.A DCSM8 20220816 M DH1530/QRIRP   0.049 /HGIRP  1.49
.A DCSM8 20220816 M DH1545/QRIRP   0.049 /HGIRP  1.49
.A DCSM8 20220816 M DH1600/QRIRP   0.049 /HGIRP  1.49
.A DCSM8 20220816 M DH1615/QRIRP   0.049 /HGIRP  1.49
.A DCSM8 20220816 M DH1630/QRIRP   0.049 /HGIRP  1.50
.A DCSM8 20220816 M DH1645/QRIRP   0.049 /HGIRP  1.50
.A DCSM8 20220816 M DH1700/QRIRP   0.049 /HGIRP  1.50
.A DCSM8 20220816 M DH1715/QRIRP   0.049 /HGIRP  1.50
.A DCSM8 20220816 M DH1730/QRIRP   0.049 /HGIRP  1.50
.A DCSM8 20220816 M DH1745/QRIRP   0.050 /HGIRP  1.51

:  People's Creek near Dodson

.A KHRM8 20220816 M DH1230/QRIRP   0.000 /HGIRP  9.88
.A KHRM8 20220816 M DH1245/QRIRP   0.000 /HGIRP  9.87
.A KHRM8 20220816 M DH1300/QRIRP   0.000 /HGIRP  9.86
.A KHRM8 20220816 M DH1315/QRIRP   0.000 /HGIRP  9.86
.A KHRM8 20220816 M DH1330/QRIRP   0.000 /HGIRP  9.87
.A KHRM8 20220816 M DH1345/QRIRP   0.000 /HGIRP  9.87
.A KHRM8 20220816 M DH1400/QRIRP   0.000 /HGIRP  9.86
.A KHRM8 20220816 M DH1415/QRIRP   0.000 /HGIRP  9.83
.A KHRM8 20220816 M DH1430/QRIRP   0.000 /HGIRP  9.86
.A KHRM8 20220816 M DH1445/QRIRP   0.000 /HGIRP  9.87
.A KHRM8 20220816 M DH1500/QRIRP   0.000 /HGIRP  9.87
.A KHRM8 20220816 M DH1515/QRIRP   0.000 /HGIRP  9.88
.A KHRM8 20220816 M DH1530/QRIRP   0.000 /HGIRP  9.87
.A KHRM8 20220816 M DH1545/QRIRP   0.000 /HGIRP  9.87
.A KHRM8 20220816 M DH1600/QRIRP   0.000 /HGIRP  9.87
.A KHRM8 20220816 M DH1615/QRIRP   0.000 /HGIRP  9.88
.A KHRM8 20220816 M DH1630/QRIRP   0.000 /HGIRP  9.87
.A KHRM8 20220816 M DH1645/QRIRP   0.000 /HGIRP  9.88
.A KHRM8 20220816 M DH1700/QRIRP   0.000 /HGIRP  9.87
.A KHRM8 20220816 M DH1715/QRIRP   0.000 /HGIRP  9.88

:END OF MESSAGE

$$



SRUS53 KKRF 170105
RR3KRF

NWS MISSOURI BASIN RIVER FORECAST CENTER PLEASANT HILL MO
Wed Aug 17 01:05:01 UTC 2022

:MILK - USGS discharge and stage data scrubbed from website

.AR  WLTN8  20220816 Z DH231500/HGIR2    13.90/                               :USGSID 06330000
.AR  WLTN8  20220816 Z DH233000/HGIR2    13.90/                               :USGSID 06330000
.AR  WLTN8  20220816 Z DH234500/HGIR2    13.88/                               :USGSID 06330000
.AR  WLTN8  20220817 Z DH000000/HGIR2    13.89/                               :USGSID 06330000


:END OF MESSAGE

$$



SRUS53 KKRF 170205
RR3KRF

NWS MISSOURI BASIN RIVER FORECAST CENTER PLEASANT HILL MO
Wed Aug 17 02:05:01 UTC 2022

:MILK - USGS discharge and stage data scrubbed from website

.AR  WLTN8  20220817 Z DH001500/HGIR2    13.90/                               :USGSID 06330000
.AR  WLTN8  20220817 Z DH003000/HGIR2    13.90/                               :USGSID 06330000
.AR  WLTN8  20220817 Z DH004500/HGIR2    13.90/                               :USGSID 06330000
.AR  WLTN8  20220817 Z DH010000/HGIR2    13.90/                               :USGSID 06330000


:END OF MESSAGE

$$



SRUS53 KKRF 170306
RR3KRF

NWS MISSOURI BASIN RIVER FORECAST CENTER PLEASANT HILL MO
Wed Aug 17 03:05:01 UTC 2022

:MILK - USGS discharge and stage data scrubbed from website

.AR  WLTN8  20220817 Z DH011500/HGIR2    13.90/                               :USGSID 06330000
.AR  WLTN8  20220817 Z DH013000/HGIR2    13.89/                               :USGSID 06330000
.AR  WLTN8  20220817 Z DH014500/HGIR2    13.90/                               :USGSID 06330000
.AR  WLTN8  20220817 Z DH020000/HGIR2    13.90/                               :USGSID 06330000


:END OF MESSAGE

$$



SRUS53 KKRF 170318
RR3KRF

NWS/Missouri Basin River Forecast Center Pleasant Hill MO
Wed Aug 17 03:17:58 UTC 2022


: realtime data from Montana DNRC


: Frenchman Creek at Mouth

.A FRCM8 20220816 M DH1530/QRIRP   0.009 /HGIRP  2.25
.A FRCM8 20220816 M DH1545/QRIRP   0.009 /HGIRP  2.24
.A FRCM8 20220816 M DH1600/QRIRP   0.010 /HGIRP  2.26
.A FRCM8 20220816 M DH1615/QRIRP   0.010 /HGIRP  2.26
.A FRCM8 20220816 M DH1630/QRIRP   0.010 /HGIRP  2.26
.A FRCM8 20220816 M DH1645/QRIRP   0.010 /HGIRP  2.26
.A FRCM8 20220816 M DH1700/QRIRP   0.010 /HGIRP  2.26
.A FRCM8 20220816 M DH1715/QRIRP   0.010 /HGIRP  2.26
.A FRCM8 20220816 M DH1730/QRIRP   0.009 /HGIRP  2.24
.A FRCM8 20220816 M DH1745/QRIRP   0.010 /HGIRP  2.26
.A FRCM8 20220816 M DH1800/QRIRP   0.010 /HGIRP  2.26
.A FRCM8 20220816 M DH1815/QRIRP   0.010 /HGIRP  2.26
.A FRCM8 20220816 M DH1830/QRIRP   0.010 /HGIRP  2.26
.A FRCM8 20220816 M DH1845/QRIRP   0.010 /HGIRP  2.26
.A FRCM8 20220816 M DH1900/QRIRP   0.009 /HGIRP  2.25
.A FRCM8 20220816 M DH1915/QRIRP   0.010 /HGIRP  2.26
.A FRCM8 20220816 M DH1930/QRIRP   0.009 /HGIRP  2.25
.A FRCM8 20220816 M DH1945/QRIRP   0.009 /HGIRP  2.25
.A FRCM8 20220816 M DH2000/QRIRP   0.009 /HGIRP  2.25
.A FRCM8 20220816 M DH2015/QRIRP   0.010 /HGIRP  2.26
.A FRCM8 20220816 M DH2030/QRIRP   0.009 /HGIRP  2.25
.A FRCM8 20220816 M DH2045/QRIRP   0.009 /HGIRP  2.25

: Teton River above Hwy 221 bridge

.A TCHM8 20220816 M DH1530/QRIRP   0.020 /HGIRP  1.84
.A TCHM8 20220816 M DH1545/QRIRP   0.020 /HGIRP  1.84
.A TCHM8 20220816 M DH1600/QRIRP   0.020 /HGIRP  1.84
.A TCHM8 20220816 M DH1615/QRIRP   0.020 /HGIRP  1.84
.A TCHM8 20220816 M DH1630/QRIRP   0.020 /HGIRP  1.84
.A TCHM8 20220816 M DH1645/QRIRP   0.020 /HGIRP  1.84
.A TCHM8 20220816 M DH1700/QRIRP   0.020 /HGIRP  1.84
.A TCHM8 20220816 M DH1715/QRIRP   0.020 /HGIRP  1.84
.A TCHM8 20220816 M DH1730/QRIRP   0.019 /HGIRP  1.83
.A TCHM8 20220816 M DH1745/QRIRP   0.019 /HGIRP  1.83
.A TCHM8 20220816 M DH1800/QRIRP   0.019 /HGIRP  1.83
.A TCHM8 20220816 M DH1815/QRIRP   0.019 /HGIRP  1.83
.A TCHM8 20220816 M DH1830/QRIRP   0.019 /HGIRP  1.83
.A TCHM8 20220816 M DH1845/QRIRP   0.019 /HGIRP  1.83
.A TCHM8 20220816 M DH1900/QRIRP   0.019 /HGIRP  1.83
.A TCHM8 20220816 M DH1915/QRIRP   0.020 /HGIRP  1.84
.A TCHM8 20220816 M DH1930/QRIRP   0.019 /HGIRP  1.83
.A TCHM8 20220816 M DH1945/QRIRP   0.019 /HGIRP  1.83
.A TCHM8 20220816 M DH2000/QRIRP   0.019 /HGIRP  1.83

: Canyon Creek at ZooMomtana

.A ZOOM8 20220816 M DH1530/QRIRP   0.081 /HGIRP  2.35 /DUS/TWIRP 14.35
.A ZOOM8 20220816 M DH1545/QRIRP   0.081 /HGIRP  2.35 /DUS/TWIRP 14.36
.A ZOOM8 20220816 M DH1600/QRIRP   0.082 /HGIRP  2.36 /DUS/TWIRP 14.36
.A ZOOM8 20220816 M DH1615/QRIRP   0.082 /HGIRP  2.36 /DUS/TWIRP 14.37
.A ZOOM8 20220816 M DH1630/QRIRP   0.084 /HGIRP  2.38 /DUS/TWIRP 14.38
.A ZOOM8 20220816 M DH1645/QRIRP   0.083 /HGIRP  2.37 /DUS/TWIRP 14.37
.A ZOOM8 20220816 M DH1700/QRIRP   0.083 /HGIRP  2.37 /DUS/TWIRP 14.38
.A ZOOM8 20220816 M DH1715/QRIRP   0.084 /HGIRP  2.38 /DUS/TWIRP 14.38
.A ZOOM8 20220816 M DH1730/QRIRP   0.085 /HGIRP  2.39 /DUS/TWIRP 14.38
.A ZOOM8 20220816 M DH1745/QRIRP   0.084 /HGIRP  2.38 /DUS/TWIRP 14.38
.A ZOOM8 20220816 M DH1800/QRIRP   0.084 /HGIRP  2.38 /DUS/TWIRP 14.36
.A ZOOM8 20220816 M DH1815/QRIRP   0.086 /HGIRP  2.41 /DUS/TWIRP 14.37
.A ZOOM8 20220816 M DH1830/QRIRP   0.085 /HGIRP  2.40 /DUS/TWIRP 14.37
.A ZOOM8 20220816 M DH1845/QRIRP   0.084 /HGIRP  2.38 /DUS/TWIRP 14.37
.A ZOOM8 20220816 M DH1900/QRIRP   0.084 /HGIRP  2.38 /DUS/TWIRP 14.36
.A ZOOM8 20220816 M DH1915/QRIRP   0.085 /HGIRP  2.39 /DUS/TWIRP 14.38
.A ZOOM8 20220816 M DH1930/QRIRP   0.085 /HGIRP  2.39 /DUS/TWIRP 14.38
.A ZOOM8 20220816 M DH1945/QRIRP   0.084 /HGIRP  2.38 /DUS/TWIRP 14.38
.A ZOOM8 20220816 M DH2000/QRIRP   0.085 /HGIRP  2.39 /DUS/TWIRP 14.38

: Sweet Grass Creek near Tronrud Bridge

.A SGCM8 20220816 M DH1530/QRIRP   0.057 /HGIRP  1.38 /DUS/TWIRP 16.20
.A SGCM8 20220816 M DH1545/QRIRP   0.056 /HGIRP  1.37 /DUS/TWIRP 16.38
.A SGCM8 20220816 M DH1600/QRIRP   0.056 /HGIRP  1.37 /DUS/TWIRP 16.57
.A SGCM8 20220816 M DH1615/QRIRP   0.056 /HGIRP  1.37 /DUS/TWIRP 16.73
.A SGCM8 20220816 M DH1630/QRIRP   0.056 /HGIRP  1.37 /DUS/TWIRP 16.86
.A SGCM8 20220816 M DH1645/QRIRP   0.056 /HGIRP  1.37 /DUS/TWIRP 16.92
.A SGCM8 20220816 M DH1700/QRIRP   0.056 /HGIRP  1.37 /DUS/TWIRP 16.94
.A SGCM8 20220816 M DH1715/QRIRP   0.056 /HGIRP  1.37 /DUS/TWIRP 17.00
.A SGCM8 20220816 M DH1730/QRIRP   0.056 /HGIRP  1.37 /DUS/TWIRP 17.01
.A SGCM8 20220816 M DH1745/QRIRP   0.056 /HGIRP  1.37 /DUS/TWIRP 17.00
.A SGCM8 20220816 M DH1800/QRIRP   0.056 /HGIRP  1.37 /DUS/TWIRP 16.99
.A SGCM8 20220816 M DH1815/QRIRP   0.056 /HGIRP  1.37 /DUS/TWIRP 17.00
.A SGCM8 20220816 M DH1830/QRIRP   0.054 /HGIRP  1.36 /DUS/TWIRP 16.94
.A SGCM8 20220816 M DH1845/QRIRP   0.056 /HGIRP  1.37 /DUS/TWIRP 16.82
.A SGCM8 20220816 M DH1900/QRIRP   0.054 /HGIRP  1.36 /DUS/TWIRP 16.71
.A SGCM8 20220816 M DH1915/QRIRP   0.056 /HGIRP  1.37 /DUS/TWIRP 16.62
.A SGCM8 20220816 M DH1930/QRIRP   0.054 /HGIRP  1.36 /DUS/TWIRP 16.53
.A SGCM8 20220816 M DH1945/QRIRP   0.056 /HGIRP  1.37 /DUS/TWIRP 16.45
.A SGCM8 20220816 M DH2000/QRIRP   0.054 /HGIRP  1.36 /DUS/TWIRP 16.36

: N Fk Musselshell River near Delphine

.A DLPM8 20220816 M DH1530/QRIRP   0.005 /HGIRP  0.71
.A DLPM8 20220816 M DH1545/QRIRP   0.005 /HGIRP  0.70
.A DLPM8 20220816 M DH1600/QRIRP   0.005 /HGIRP  0.70
.A DLPM8 20220816 M DH1615/QRIRP   0.005 /HGIRP  0.70
.A DLPM8 20220816 M DH1630/QRIRP   0.005 /HGIRP  0.70
.A DLPM8 20220816 M DH1645/QRIRP   0.005 /HGIRP  0.69
.A DLPM8 20220816 M DH1700/QRIRP   0.005 /HGIRP  0.69
.A DLPM8 20220816 M DH1715/QRIRP   0.005 /HGIRP  0.69
.A DLPM8 20220816 M DH1730/QRIRP   0.005 /HGIRP  0.69
.A DLPM8 20220816 M DH1745/QRIRP   0.005 /HGIRP  0.69
.A DLPM8 20220816 M DH1800/QRIRP   0.005 /HGIRP  0.68
.A DLPM8 20220816 M DH1815/QRIRP   0.005 /HGIRP  0.68
.A DLPM8 20220816 M DH1830/QRIRP   0.005 /HGIRP  0.68
.A DLPM8 20220816 M DH1845/QRIRP   0.005 /HGIRP  0.68
.A DLPM8 20220816 M DH1900/QRIRP   0.005 /HGIRP  0.68
.A DLPM8 20220816 M DH1915/QRIRP   0.005 /HGIRP  0.68
.A DLPM8 20220816 M DH1930/QRIRP   0.005 /HGIRP  0.68
.A DLPM8 20220816 M DH1945/QRIRP   0.005 /HGIRP  0.68
.A DLPM8 20220816 M DH2000/QRIRP   0.005 /HGIRP  0.68
.A DLPM8 20220816 M DH2015/QRIRP   0.005 /HGIRP  0.68

: N Fk Musselshell River below Bair Res

.A BAIM8 20220816 M DH1530/QRIRP   0.029 /HGIRP  0.88
.A BAIM8 20220816 M DH1545/QRIRP   0.029 /HGIRP  0.88
.A BAIM8 20220816 M DH1600/QRIRP   0.029 /HGIRP  0.88
.A BAIM8 20220816 M DH1615/QRIRP   0.029 /HGIRP  0.88
.A BAIM8 20220816 M DH1630/QRIRP   0.029 /HGIRP  0.88
.A BAIM8 20220816 M DH1645/QRIRP   0.029 /HGIRP  0.88
.A BAIM8 20220816 M DH1700/QRIRP   0.029 /HGIRP  0.88
.A BAIM8 20220816 M DH1715/QRIRP   0.029 /HGIRP  0.88
.A BAIM8 20220816 M DH1730/QRIRP   0.029 /HGIRP  0.88
.A BAIM8 20220816 M DH1745/QRIRP   0.029 /HGIRP  0.88
.A BAIM8 20220816 M DH1800/QRIRP   0.029 /HGIRP  0.88
.A BAIM8 20220816 M DH1815/QRIRP   0.029 /HGIRP  0.88
.A BAIM8 20220816 M DH1830/QRIRP   0.029 /HGIRP  0.88
.A BAIM8 20220816 M DH1845/QRIRP   0.029 /HGIRP  0.88
.A BAIM8 20220816 M DH1900/QRIRP   0.029 /HGIRP  0.88
.A BAIM8 20220816 M DH1915/QRIRP   0.029 /HGIRP  0.88
.A BAIM8 20220816 M DH1930/QRIRP   0.029 /HGIRP  0.88
.A BAIM8 20220816 M DH1945/QRIRP   0.029 /HGIRP  0.88
.A BAIM8 20220816 M DH2000/QRIRP   0.029 /HGIRP  0.88
.A BAIM8 20220816 M DH2015/QRIRP   0.029 /HGIRP  0.88

: Martinsdale Supply Canal

.A MTCM8 20220816 M DH1515/HGIRP   0.000

: Deadman's Basin Supply Canal

.A SHDM8 20220816 M DH1515/HGIRP  0.00
.A SHDM8 20220816 M DH1530/HGIRP  0.15
.A SHDM8 20220816 M DH1545/HGIRP  0.15
.A SHDM8 20220816 M DH1600/HGIRP  0.15
.A SHDM8 20220816 M DH1615/HGIRP  0.15
.A SHDM8 20220816 M DH1630/HGIRP  0.15
.A SHDM8 20220816 M DH1645/HGIRP  0.15
.A SHDM8 20220816 M DH1700/HGIRP  0.15
.A SHDM8 20220816 M DH1715/HGIRP  0.15
.A SHDM8 20220816 M DH1730/HGIRP  0.15
.A SHDM8 20220816 M DH1745/HGIRP  0.15
.A SHDM8 20220816 M DH1800/HGIRP  0.15
.A SHDM8 20220816 M DH1815/HGIRP  0.15
.A SHDM8 20220816 M DH1830/HGIRP  0.15
.A SHDM8 20220816 M DH1845/HGIRP  0.15
.A SHDM8 20220816 M DH1900/HGIRP  0.15
.A SHDM8 20220816 M DH1915/HGIRP  0.15
.A SHDM8 20220816 M DH1930/HGIRP  0.15
.A SHDM8 20220816 M DH1945/HGIRP  0.15
.A SHDM8 20220816 M DH2000/HGIRP  0.15

: Warm Springs Creek at Sand Rock Road near Denton

.A WSCM8 20220816 M DH1530/QRIRP   0.093 /HGIRP  1.74 /DUS/TWIRP 22.78
.A WSCM8 20220816 M DH1545/QRIRP   0.092 /HGIRP  1.73 /DUS/TWIRP 22.95
.A WSCM8 20220816 M DH1600/QRIRP   0.093 /HGIRP  1.74 /DUS/TWIRP 23.10
.A WSCM8 20220816 M DH1615/QRIRP   0.092 /HGIRP  1.73 /DUS/TWIRP 23.25
.A WSCM8 20220816 M DH1630/QRIRP   0.092 /HGIRP  1.73 /DUS/TWIRP 23.39
.A WSCM8 20220816 M DH1645/QRIRP   0.092 /HGIRP  1.73 /DUS/TWIRP 23.51
.A WSCM8 20220816 M DH1700/QRIRP   0.092 /HGIRP  1.73 /DUS/TWIRP 23.61
.A WSCM8 20220816 M DH1715/QRIRP   0.092 /HGIRP  1.73 /DUS/TWIRP 23.70
.A WSCM8 20220816 M DH1730/QRIRP   0.093 /HGIRP  1.74 /DUS/TWIRP 23.77
.A WSCM8 20220816 M DH1745/QRIRP   0.092 /HGIRP  1.73 /DUS/TWIRP 23.82
.A WSCM8 20220816 M DH1800/QRIRP   0.092 /HGIRP  1.73 /DUS/TWIRP 23.86
.A WSCM8 20220816 M DH1815/QRIRP   0.092 /HGIRP  1.73 /DUS/TWIRP 23.87
.A WSCM8 20220816 M DH1830/QRIRP   0.092 /HGIRP  1.73 /DUS/TWIRP 23.87
.A WSCM8 20220816 M DH1845/QRIRP   0.092 /HGIRP  1.73 /DUS/TWIRP 23.84
.A WSCM8 20220816 M DH1900/QRIRP   0.092 /HGIRP  1.73 /DUS/TWIRP 23.80
.A WSCM8 20220816 M DH1915/QRIRP   0.091 /HGIRP  1.72 /DUS/TWIRP 23.74
.A WSCM8 20220816 M DH1930/QRIRP   0.091 /HGIRP  1.72 /DUS/TWIRP 23.66
.A WSCM8 20220816 M DH1945/QRIRP   0.092 /HGIRP  1.73 /DUS/TWIRP 23.59
.A WSCM8 20220816 M DH2000/QRIRP   0.092 /HGIRP  1.73 /DUS/TWIRP 23.52
.A WSCM8 20220816 M DH2015/QRIRP   0.091 /HGIRP  1.72 /DUS/TWIRP 23.45

: East Gallatin River near Manhattan

.A GNMM8 20220816 M DH1530/QRIRP   0.165 /HGIRP  2.64 /DUS/TWIRP 22.34
.A GNMM8 20220816 M DH1545/QRIRP   0.165 /HGIRP  2.64 /DUS/TWIRP 22.48
.A GNMM8 20220816 M DH1600/QRIRP   0.162 /HGIRP  2.63 /DUS/TWIRP 22.60
.A GNMM8 20220816 M DH1615/QRIRP   0.162 /HGIRP  2.63 /DUS/TWIRP 22.65
.A GNMM8 20220816 M DH1630/QRIRP   0.162 /HGIRP  2.63 /DUS/TWIRP 22.73
.A GNMM8 20220816 M DH1645/QRIRP   0.162 /HGIRP  2.63 /DUS/TWIRP 22.78
.A GNMM8 20220816 M DH1700/QRIRP   0.162 /HGIRP  2.63 /DUS/TWIRP 22.83
.A GNMM8 20220816 M DH1715/QRIRP   0.162 /HGIRP  2.63 /DUS/TWIRP 22.83
.A GNMM8 20220816 M DH1730/QRIRP   0.162 /HGIRP  2.63 /DUS/TWIRP 22.85
.A GNMM8 20220816 M DH1745/QRIRP   0.159 /HGIRP  2.62 /DUS/TWIRP 22.83
.A GNMM8 20220816 M DH1800/QRIRP   0.159 /HGIRP  2.62 /DUS/TWIRP 22.82
.A GNMM8 20220816 M DH1815/QRIRP   0.159 /HGIRP  2.62 /DUS/TWIRP 22.76
.A GNMM8 20220816 M DH1830/QRIRP   0.159 /HGIRP  2.62 /DUS/TWIRP 22.72
.A GNMM8 20220816 M DH1845/QRIRP   0.159 /HGIRP  2.62 /DUS/TWIRP 22.65
.A GNMM8 20220816 M DH1900/QRIRP   0.156 /HGIRP  2.61 /DUS/TWIRP 22.54
.A GNMM8 20220816 M DH1915/QRIRP   0.156 /HGIRP  2.61 /DUS/TWIRP 22.44
.A GNMM8 20220816 M DH1930/QRIRP   0.156 /HGIRP  2.61 /DUS/TWIRP 22.34
.A GNMM8 20220816 M DH1945/QRIRP   0.156 /HGIRP  2.61 /DUS/TWIRP 22.27
.A GNMM8 20220816 M DH2000/QRIRP   0.156 /HGIRP  2.61 /DUS/TWIRP 22.17
.A GNMM8 20220816 M DH2015/QRIRP   0.156 /HGIRP  2.61 /DUS/TWIRP 22.04

: Sourdough Creek abv city intake near Bozeman

.A SNBM8 20220816 M DH1530/QRIRP   0.014 /HGIRP  1.18
.A SNBM8 20220816 M DH1545/QRIRP   0.014 /HGIRP  1.18
.A SNBM8 20220816 M DH1600/QRIRP   0.014 /HGIRP  1.18
.A SNBM8 20220816 M DH1615/QRIRP   0.014 /HGIRP  1.18
.A SNBM8 20220816 M DH1630/QRIRP   0.014 /HGIRP  1.18
.A SNBM8 20220816 M DH1645/QRIRP   0.014 /HGIRP  1.18
.A SNBM8 20220816 M DH1700/QRIRP   0.014 /HGIRP  1.18
.A SNBM8 20220816 M DH1715/QRIRP   0.013 /HGIRP  1.17
.A SNBM8 20220816 M DH1730/QRIRP   0.014 /HGIRP  1.18
.A SNBM8 20220816 M DH1745/QRIRP   0.014 /HGIRP  1.18
.A SNBM8 20220816 M DH1800/QRIRP   0.013 /HGIRP  1.17
.A SNBM8 20220816 M DH1815/QRIRP   0.013 /HGIRP  1.17
.A SNBM8 20220816 M DH1830/QRIRP   0.013 /HGIRP  1.17
.A SNBM8 20220816 M DH1845/QRIRP   0.013 /HGIRP  1.17
.A SNBM8 20220816 M DH1900/QRIRP   0.013 /HGIRP  1.17
.A SNBM8 20220816 M DH1915/QRIRP   0.013 /HGIRP  1.17
.A SNBM8 20220816 M DH1930/QRIRP   0.013 /HGIRP  1.17
.A SNBM8 20220816 M DH1945/QRIRP   0.013 /HGIRP  1.17
.A SNBM8 20220816 M DH2000/QRIRP   0.013 /HGIRP  1.17

: Ruby River at Harrington bridge near Sheridan

.A RNSM8 20220816 M DH1530/QRIRP   0.088 /HGIRP  2.52 /DUS/TWIRP 18.45
.A RNSM8 20220816 M DH1545/QRIRP   0.088 /HGIRP  2.52 /DUS/TWIRP 18.57
.A RNSM8 20220816 M DH1600/QRIRP   0.086 /HGIRP  2.51 /DUS/TWIRP 18.70
.A RNSM8 20220816 M DH1615/QRIRP   0.088 /HGIRP  2.52 /DUS/TWIRP 18.84
.A RNSM8 20220816 M DH1630/QRIRP   0.086 /HGIRP  2.51 /DUS/TWIRP 18.97
.A RNSM8 20220816 M DH1645/QRIRP   0.086 /HGIRP  2.51 /DUS/TWIRP 19.09
.A RNSM8 20220816 M DH1700/QRIRP   0.086 /HGIRP  2.51 /DUS/TWIRP 19.20
.A RNSM8 20220816 M DH1715/QRIRP   0.086 /HGIRP  2.51 /DUS/TWIRP 19.31
.A RNSM8 20220816 M DH1730/QRIRP   0.088 /HGIRP  2.52 /DUS/TWIRP 19.42
.A RNSM8 20220816 M DH1745/QRIRP   0.086 /HGIRP  2.51 /DUS/TWIRP 19.53
.A RNSM8 20220816 M DH1800/QRIRP   0.086 /HGIRP  2.51 /DUS/TWIRP 19.63
.A RNSM8 20220816 M DH1815/QRIRP   0.088 /HGIRP  2.52 /DUS/TWIRP 19.73
.A RNSM8 20220816 M DH1830/QRIRP   0.088 /HGIRP  2.52 /DUS/TWIRP 19.82
.A RNSM8 20220816 M DH1845/QRIRP   0.086 /HGIRP  2.51 /DUS/TWIRP 19.90
.A RNSM8 20220816 M DH1900/QRIRP   0.088 /HGIRP  2.52 /DUS/TWIRP 19.98
.A RNSM8 20220816 M DH1915/QRIRP   0.088 /HGIRP  2.52 /DUS/TWIRP 20.05
.A RNSM8 20220816 M DH1930/QRIRP   0.088 /HGIRP  2.52 /DUS/TWIRP 20.12
.A RNSM8 20220816 M DH1945/QRIRP   0.086 /HGIRP  2.51 /DUS/TWIRP 20.18
.A RNSM8 20220816 M DH2000/QRIRP   0.086 /HGIRP  2.51 /DUS/TWIRP 20.23

: Wise River near mouth near Wise River

.A WRNM8 20220816 M DH1530/QRIRP   0.021 /HGIRP  0.70 /DUS/TWIRP 19.29
.A WRNM8 20220816 M DH1545/QRIRP   0.020 /HGIRP  0.69 /DUS/TWIRP 19.53
.A WRNM8 20220816 M DH1600/QRIRP   0.021 /HGIRP  0.71 /DUS/TWIRP 19.68
.A WRNM8 20220816 M DH1615/QRIRP   0.021 /HGIRP  0.70 /DUS/TWIRP 19.79
.A WRNM8 20220816 M DH1630/QRIRP   0.021 /HGIRP  0.70 /DUS/TWIRP 19.93
.A WRNM8 20220816 M DH1645/QRIRP   0.020 /HGIRP  0.69 /DUS/TWIRP 19.99
.A WRNM8 20220816 M DH1700/QRIRP   0.020 /HGIRP  0.69 /DUS/TWIRP 20.02
.A WRNM8 20220816 M DH1715/QRIRP   0.020 /HGIRP  0.69 /DUS/TWIRP 19.95
.A WRNM8 20220816 M DH1730/QRIRP   0.021 /HGIRP  0.70 /DUS/TWIRP 19.90
.A WRNM8 20220816 M DH1745/QRIRP   0.020 /HGIRP  0.69 /DUS/TWIRP 19.81
.A WRNM8 20220816 M DH1800/QRIRP   0.020 /HGIRP  0.69 /DUS/TWIRP 19.67
.A WRNM8 20220816 M DH1815/QRIRP   0.020 /HGIRP  0.69 /DUS/TWIRP 19.46
.A WRNM8 20220816 M DH1830/QRIRP   0.021 /HGIRP  0.70 /DUS/TWIRP 19.28
.A WRNM8 20220816 M DH1845/QRIRP   0.019 /HGIRP  0.68 /DUS/TWIRP 19.05
.A WRNM8 20220816 M DH1900/QRIRP   0.021 /HGIRP  0.70 /DUS/TWIRP 18.78
.A WRNM8 20220816 M DH1915/QRIRP   0.019 /HGIRP  0.67 /DUS/TWIRP 18.48
.A WRNM8 20220816 M DH1930/QRIRP   0.021 /HGIRP  0.70 /DUS/TWIRP 18.15
.A WRNM8 20220816 M DH1945/QRIRP   0.019 /HGIRP  0.68 /DUS/TWIRP 17.83
.A WRNM8 20220816 M DH2000/QRIRP   0.020 /HGIRP  0.69 /DUS/TWIRP 17.55
.A WRNM8 20220816 M DH2015/QRIRP   0.021 /HGIRP  0.70 /DUS/TWIRP 17.28

: Teton River abv Springhill

.A TRAM8 20220816 M DH1530/QRIRP   0.032 /HGIRP  3.73 /DUS/TWIRP 24.44
.A TRAM8 20220816 M DH1545/QRIRP   0.032 /HGIRP  3.73 /DUS/TWIRP 24.52
.A TRAM8 20220816 M DH1600/QRIRP   0.032 /HGIRP  3.73 /DUS/TWIRP 24.59
.A TRAM8 20220816 M DH1615/QRIRP   0.032 /HGIRP  3.73 /DUS/TWIRP 24.65
.A TRAM8 20220816 M DH1630/QRIRP   0.032 /HGIRP  3.73 /DUS/TWIRP 24.64
.A TRAM8 20220816 M DH1645/QRIRP   0.032 /HGIRP  3.73 /DUS/TWIRP 24.64
.A TRAM8 20220816 M DH1700/QRIRP   0.032 /HGIRP  3.73 /DUS/TWIRP 24.63
.A TRAM8 20220816 M DH1715/QRIRP   0.032 /HGIRP  3.73 /DUS/TWIRP 24.54
.A TRAM8 20220816 M DH1730/QRIRP   0.031 /HGIRP  3.72 /DUS/TWIRP 24.43
.A TRAM8 20220816 M DH1745/QRIRP   0.031 /HGIRP  3.72 /DUS/TWIRP 24.32
.A TRAM8 20220816 M DH1800/QRIRP   0.031 /HGIRP  3.72 /DUS/TWIRP 24.19
.A TRAM8 20220816 M DH1815/QRIRP   0.031 /HGIRP  3.72 /DUS/TWIRP 24.03
.A TRAM8 20220816 M DH1830/QRIRP   0.031 /HGIRP  3.72 /DUS/TWIRP 23.84
.A TRAM8 20220816 M DH1845/QRIRP   0.031 /HGIRP  3.72 /DUS/TWIRP 23.67
.A TRAM8 20220816 M DH1900/QRIRP   0.031 /HGIRP  3.72 /DUS/TWIRP 23.52
.A TRAM8 20220816 M DH1915/QRIRP   0.031 /HGIRP  3.72 /DUS/TWIRP 23.27
.A TRAM8 20220816 M DH1930/QRIRP   0.031 /HGIRP  3.72 /DUS/TWIRP 23.02
.A TRAM8 20220816 M DH1945/QRIRP   0.030 /HGIRP  3.71 /DUS/TWIRP 22.73
.A TRAM8 20220816 M DH2000/QRIRP   0.030 /HGIRP  3.71 /DUS/TWIRP 22.50
.A TRAM8 20220816 M DH2015/QRIRP   0.031 /HGIRP  3.72 /DUS/TWIRP 22.26

: Red Rock River abv Clark Canyon Res

.A RCDM8 20220816 M DH1530/QRIRP   0.119 /HGIRP  3.63 /DUS/TWIRP 19.57
.A RCDM8 20220816 M DH1545/QRIRP   0.116 /HGIRP  3.62 /DUS/TWIRP 19.76
.A RCDM8 20220816 M DH1600/QRIRP   0.116 /HGIRP  3.62 /DUS/TWIRP 19.93
.A RCDM8 20220816 M DH1615/QRIRP   0.116 /HGIRP  3.62 /DUS/TWIRP 20.08
.A RCDM8 20220816 M DH1630/QRIRP   0.116 /HGIRP  3.62 /DUS/TWIRP 20.21
.A RCDM8 20220816 M DH1645/QRIRP   0.116 /HGIRP  3.62 /DUS/TWIRP 20.31
.A RCDM8 20220816 M DH1700/QRIRP   0.119 /HGIRP  3.63 /DUS/TWIRP 20.38
.A RCDM8 20220816 M DH1715/QRIRP   0.116 /HGIRP  3.62 /DUS/TWIRP 20.43
.A RCDM8 20220816 M DH1730/QRIRP   0.116 /HGIRP  3.62 /DUS/TWIRP 20.47
.A RCDM8 20220816 M DH1745/QRIRP   0.116 /HGIRP  3.62 /DUS/TWIRP 20.50
.A RCDM8 20220816 M DH1800/QRIRP   0.116 /HGIRP  3.62 /DUS/TWIRP 20.50
.A RCDM8 20220816 M DH1815/QRIRP   0.116 /HGIRP  3.62 /DUS/TWIRP 20.48
.A RCDM8 20220816 M DH1830/QRIRP   0.116 /HGIRP  3.62 /DUS/TWIRP 20.45
.A RCDM8 20220816 M DH1845/QRIRP   0.114 /HGIRP  3.61 /DUS/TWIRP 20.40
.A RCDM8 20220816 M DH1900/QRIRP   0.114 /HGIRP  3.61 /DUS/TWIRP 20.32
.A RCDM8 20220816 M DH1915/QRIRP   0.114 /HGIRP  3.61 /DUS/TWIRP 20.23
.A RCDM8 20220816 M DH1930/QRIRP   0.114 /HGIRP  3.61 /DUS/TWIRP 20.13
.A RCDM8 20220816 M DH1945/QRIRP   0.111 /HGIRP  3.60 /DUS/TWIRP 20.02
.A RCDM8 20220816 M DH2000/QRIRP   0.111 /HGIRP  3.60 /DUS/TWIRP 19.89
.A RCDM8 20220816 M DH2015/QRIRP   0.114 /HGIRP  3.61 /DUS/TWIRP 19.75

: Mill Coulee Creek near Sun River

.A MCSM8 20220816 M DH1530/QRIRP   0.043 /HGIRP  2.17
.A MCSM8 20220816 M DH1545/QRIRP   0.043 /HGIRP  2.17
.A MCSM8 20220816 M DH1600/QRIRP   0.043 /HGIRP  2.17
.A MCSM8 20220816 M DH1615/QRIRP   0.043 /HGIRP  2.17
.A MCSM8 20220816 M DH1630/QRIRP   0.043 /HGIRP  2.18
.A MCSM8 20220816 M DH1645/QRIRP   0.043 /HGIRP  2.19
.A MCSM8 20220816 M DH1700/QRIRP   0.043 /HGIRP  2.20
.A MCSM8 20220816 M DH1715/QRIRP   0.043 /HGIRP  2.19
.A MCSM8 20220816 M DH1730/QRIRP   0.043 /HGIRP  2.18
.A MCSM8 20220816 M DH1745/QRIRP   0.042 /HGIRP  2.15
.A MCSM8 20220816 M DH1800/QRIRP   0.041 /HGIRP  2.12
.A MCSM8 20220816 M DH1815/QRIRP   0.041 /HGIRP  2.10
.A MCSM8 20220816 M DH1830/QRIRP   0.040 /HGIRP  2.07
.A MCSM8 20220816 M DH1845/QRIRP   0.040 /HGIRP  2.06
.A MCSM8 20220816 M DH1900/QRIRP   0.040 /HGIRP  2.05
.A MCSM8 20220816 M DH1915/QRIRP   0.039 /HGIRP  2.04
.A MCSM8 20220816 M DH1930/QRIRP   0.039 /HGIRP  2.03
.A MCSM8 20220816 M DH1945/QRIRP   0.039 /HGIRP  2.03
.A MCSM8 20220816 M DH2000/QRIRP   0.039 /HGIRP  2.03
.A MCSM8 20220816 M DH2015/QRIRP   0.039 /HGIRP  2.02

: Duck Creek abv Simms Ashuelot Road Bridge

.A DCSM8 20220816 M DH1530/QRIRP   0.049 /HGIRP  1.49
.A DCSM8 20220816 M DH1545/QRIRP   0.049 /HGIRP  1.49
.A DCSM8 20220816 M DH1600/QRIRP   0.049 /HGIRP  1.49
.A DCSM8 20220816 M DH1615/QRIRP   0.049 /HGIRP  1.49
.A DCSM8 20220816 M DH1630/QRIRP   0.049 /HGIRP  1.50
.A DCSM8 20220816 M DH1645/QRIRP   0.049 /HGIRP  1.50
.A DCSM8 20220816 M DH1700/QRIRP   0.049 /HGIRP  1.50
.A DCSM8 20220816 M DH1715/QRIRP   0.049 /HGIRP  1.50
.A DCSM8 20220816 M DH1730/QRIRP   0.049 /HGIRP  1.50
.A DCSM8 20220816 M DH1745/QRIRP   0.050 /HGIRP  1.51
.A DCSM8 20220816 M DH1800/QRIRP   0.050 /HGIRP  1.51
.A DCSM8 20220816 M DH1815/QRIRP   0.050 /HGIRP  1.51
.A DCSM8 20220816 M DH1830/QRIRP   0.050 /HGIRP  1.52
.A DCSM8 20220816 M DH1845/QRIRP   0.050 /HGIRP  1.53
.A DCSM8 20220816 M DH1900/QRIRP   0.050 /HGIRP  1.53
.A DCSM8 20220816 M DH1915/QRIRP   0.051 /HGIRP  1.54
.A DCSM8 20220816 M DH1930/QRIRP   0.051 /HGIRP  1.54
.A DCSM8 20220816 M DH1945/QRIRP   0.051 /HGIRP  1.54
.A DCSM8 20220816 M DH2000/QRIRP   0.051 /HGIRP  1.55
.A DCSM8 20220816 M DH2015/QRIRP   0.051 /HGIRP  1.55
.A DCSM8 20220816 M DH2030/QRIRP   0.051 /HGIRP  1.55
.A DCSM8 20220816 M DH2045/QRIRP   0.051 /HGIRP  1.55

:  People's Creek near Dodson

.A KHRM8 20220816 M DH1530/QRIRP   0.000 /HGIRP  9.87
.A KHRM8 20220816 M DH1545/QRIRP   0.000 /HGIRP  9.87
.A KHRM8 20220816 M DH1600/QRIRP   0.000 /HGIRP  9.87
.A KHRM8 20220816 M DH1615/QRIRP   0.000 /HGIRP  9.88
.A KHRM8 20220816 M DH1630/QRIRP   0.000 /HGIRP  9.87
.A KHRM8 20220816 M DH1645/QRIRP   0.000 /HGIRP  9.88
.A KHRM8 20220816 M DH1700/QRIRP   0.000 /HGIRP  9.87
.A KHRM8 20220816 M DH1715/QRIRP   0.000 /HGIRP  9.88
.A KHRM8 20220816 M DH1730/QRIRP   0.000 /HGIRP  9.87
.A KHRM8 20220816 M DH1745/QRIRP   0.000 /HGIRP  9.88
.A KHRM8 20220816 M DH1800/QRIRP   0.000 /HGIRP  9.88
.A KHRM8 20220816 M DH1815/QRIRP   0.000 /HGIRP  9.88
.A KHRM8 20220816 M DH1830/QRIRP   0.000 /HGIRP  9.87
.A KHRM8 20220816 M DH1845/QRIRP   0.000 /HGIRP  9.88
.A KHRM8 20220816 M DH1900/QRIRP   0.000 /HGIRP  9.87
.A KHRM8 20220816 M DH1915/QRIRP   0.000 /HGIRP  9.87
.A KHRM8 20220816 M DH1930/QRIRP   0.000 /HGIRP  9.88
.A KHRM8 20220816 M DH1945/QRIRP   0.000 /HGIRP  9.87
.A KHRM8 20220816 M DH2000/QRIRP   0.000 /HGIRP  9.87
.A KHRM8 20220816 M DH2015/QRIRP   0.000 /HGIRP  9.88

:END OF MESSAGE

$$



SRUS53 KKRF 170405
RR3KRF

NWS MISSOURI BASIN RIVER FORECAST CENTER PLEASANT HILL MO
Wed Aug 17 04:05:01 UTC 2022

:MILK - USGS discharge and stage data scrubbed from website

.AR  WLTN8  20220817 Z DH021500/HGIR2    13.89/                               :USGSID 06330000
.AR  WLTN8  20220817 Z DH023000/HGIR2    13.89/                               :USGSID 06330000
.AR  WLTN8  20220817 Z DH024500/HGIR2    13.89/                               :USGSID 06330000
.AR  WLTN8  20220817 Z DH030000/HGIR2    13.89/                               :USGSID 06330000


:END OF MESSAGE

$$





Office: GJT SRUS55 KGJT 170409 PAB HMLGJT s> 2022-08-17T03:00:00-00:00 3.3 0.0359 2022-08-17T03:15:00-00:00 3.3 0.0359 2022-08-17T03:30:00-00:00 3.3 0.0359 2022-08-17T03:45:00-00:00 3.29 0.0348 2.0 Experimental not manually quality-controlled 2022-08-17T02:45:00-00:00 -9999 -999 2022-08-17T03:00:00-00:00 -9999 -999 2022-08-17T03:15:00-00:00 -9999 -999 2022-08-17T03:30:00-00:00 -9999 -999 2.0 Experimental not manually quality-controlled 2022-08-17T03:00:00-00:00 5.33 0.0308 2022-08-17T03:15:00-00:00 5.4 0.037 2022-08-17T03:30:00-00:00 5.39 0.0359 2022-08-17T03:45:00-00:00 5.37 0.034 2.0 Experimental not manually quality-controlled 2022-08-17T03:00:00-00:00 1.37 0.0526 2022-08-17T03:15:00-00:00 1.37 0.0526 2022-08-17T03:30:00-00:00 1.37 0.0526 2022-08-17T03:45:00-00:00 1.38 0.0532 2.0 Experimental not manually quality-controlled 2022-08-17T03:00:00-00:00 3.97 0 2022-08-17T03:15:00-00:00 3.97 0 2022-08-17T03:30:00-00:00 3.97 0 2022-08-17T03:45:00-00:00 3.97 0 2.0 Experimental not manually quality-controlled 2022-08-17T03:15:00-00:00 1.19 0.153 2022-08-17T03:30:00-00:00 1.19 0.153 2022-08-17T03:45:00-00:00 1.2 0.155 2022-08-17T04:00:00-00:00 1.2 0.155 2.0 Experimental not manually quality-controlled 2022-08-17T03:00:00-00:00 2.94 0.0292 2022-08-17T03:15:00-00:00 2.94 0.0292 2022-08-17T03:30:00-00:00 2.94 0.0292 2022-08-17T03:45:00-00:00 2.94 0.0292 2.0 Experimental not manually quality-controlled 2022-08-17T03:15:00-00:00 1.21 0.0254 2022-08-17T03:30:00-00:00 1.21 0.0254 2022-08-17T03:45:00-00:00 1.21 0.0254 2022-08-17T04:00:00-00:00 1.21 0.0254 2.0 Experimental not manually quality-controlled 2022-08-17T03:15:00-00:00 5914.32 -999 2022-08-17T03:30:00-00:00 5914.32 -999 2022-08-17T03:45:00-00:00 5914.32 -999 2022-08-17T04:00:00-00:00 5914.31 -999 2.0 Experimental not manually quality-controlled 2022-08-17T03:15:00-00:00 2.25 0.115 2022-08-17T03:30:00-00:00 2.25 0.115 2022-08-17T03:45:00-00:00 2.25 0.115 2022-08-17T04:00:00-00:00 2.25 0.115 2.0 Experimental not manually quality-controlled 2022-08-17T03:45:00-00:00 2.35 0.204 2.0 Experimental not manually quality-controlled 2.0 Experimental not manually quality-controlled 2022-08-17T03:45:00-00:00 4.67 2.89 2.0 Experimental not manually quality-controlled 2022-08-17T03:00:00-00:00 3.61 3.31 2022-08-17T03:15:00-00:00 3.6 3.3 2022-08-17T03:30:00-00:00 3.6 3.3 2022-08-17T03:45:00-00:00 3.59 3.28 2.0 Experimental not manually quality-controlled 2022-08-17T03:15:00-00:00 2.32 0.0281 2022-08-17T03:30:00-00:00 2.31 0.0273 2022-08-17T03:45:00-00:00 2.31 0.0273 2022-08-17T04:00:00-00:00 2.3 0.0265 2.0 Experimental not manually quality-controlled 2022-08-17T03:00:00-00:00 2.65 0.172 2022-08-17T03:15:00-00:00 2.64 0.169 2022-08-17T03:30:00-00:00 2.65 0.172 2022-08-17T03:45:00-00:00 2.65 0.172 2.0 Experimental not manually quality-controlled 2022-08-17T03:00:00-00:00 7.02 0.114 2022-08-17T03:15:00-00:00 7.02 0.114 2022-08-17T03:30:00-00:00 7.03 0.117 2022-08-17T03:45:00-00:00 7.03 0.117 2.0 Experimental not manually quality-controlled 2022-08-17T03:00:00-00:00 1.92 0.0734 2022-08-17T03:15:00-00:00 1.93 0.0749 2022-08-17T03:30:00-00:00 1.93 0.0749 2022-08-17T03:45:00-00:00 1.94 0.0764 2.0 Experimental not manually quality-controlled 2022-08-17T03:15:00-00:00 3.27 1.87 2022-08-17T03:30:00-00:00 3.28 1.88 2022-08-17T03:45:00-00:00 3.29 1.89 2022-08-17T04:00:00-00:00 3.31 1.91 2.0 Experimental not manually quality-controlled 2022-08-17T03:45:00-00:00 2.47 0.551 2.0 Experimental not manually quality-controlled 2022-08-17T03:00:00-00:00 5.52 0.067 2022-08-17T03:15:00-00:00 5.58 0.0721 2022-08-17T03:30:00-00:00 5.59 0.073 2022-08-17T03:45:00-00:00 5.69 0.0808 2.0 Experimental not manually quality-controlled 2022-08-17T03:00:00-00:00 2.36 0.901 2022-08-17T03:15:00-00:00 2.36 0.901 2022-08-17T03:30:00-00:00 2.35 0.894 2022-08-17T03:45:00-00:00 2.36 0.901 2.0 Experimental not manually quality-controlled 2022-08-17T03:00:00-00:00 3.06 0.493 2022-08-17T03:15:00-00:00 3.06 0.493 2022-08-17T03:30:00-00:00 3.06 0.493 2022-08-17T03:45:00-00:00 3.04 0.481 2.0 Experimental not manually quality-controlled 2022-08-17T03:00:00-00:00 4.27 0.0489 2022-08-17T03:15:00-00:00 4.27 0.0489 2022-08-17T03:30:00-00:00 4.27 0.0489 2022-08-17T03:45:00-00:00 4.27 0.0489 2.0 Experimental not manually quality-controlled 2022-08-17T03:00:00-00:00 1.35 0.073 2022-08-17T03:15:00-00:00 1.35 0.073 2022-08-17T03:30:00-00:00 1.35 0.073 2022-08-17T03:45:00-00:00 1.34 0.0717 2.0 Experimental not manually quality-controlled 2022-08-17T03:00:00-00:00 1.69 0.151 2022-08-17T03:15:00-00:00 1.69 0.151 2022-08-17T03:30:00-00:00 1.7 0.153 2022-08-17T03:45:00-00:00 1.69 0.151 2.0 Experimental not manually quality-controlled 2022-08-17T03:00:00-00:00 2.13 0.113 2022-08-17T03:15:00-00:00 2.14 0.115 2022-08-17T03:30:00-00:00 2.15 0.117 2022-08-17T03:45:00-00:00 2.14 0.115 2.0 Experimental not manually quality-controlled 2022-08-17T03:00:00-00:00 2.45 0.0614 2022-08-17T03:15:00-00:00 2.45 0.0614 2022-08-17T03:30:00-00:00 2.45 0.0614 2022-08-17T03:45:00-00:00 2.45 0.0614 SRUS55 KGJT 170424 PAB HMLGJT aryUnits="ft" pedts="HGIRG" primaryName="Stage" timezone="UTC" secondaryUnits="kcfs" secondaryName="Flow"> 2022-08-17T03:15:00-00:00 1.19 0.153 2022-08-17T03:30:00-00:00 1.19 0.153 2022-08-17T03:45:00-00:00 1.2 0.155 2022-08-17T04:00:00-00:00 1.2 0.155 2.0 Experimental not manually quality-controlled 2022-08-17T03:15:00-00:00 1.21 0.0254 2022-08-17T03:30:00-00:00 1.21 0.0254 2022-08-17T03:45:00-00:00 1.21 0.0254 2022-08-17T04:00:00-00:00 1.21 0.0254 2.0 Experimental not manually quality-controlled 2022-08-17T03:15:00-00:00 5914.32 -999 2022-08-17T03:30:00-00:00 5914.32 -999 2022-08-17T03:45:00-00:00 5914.32 -999 2022-08-17T04:00:00-00:00 5914.31 -999 2.0 Experimental not manually quality-controlled 2022-08-17T03:30:00-00:00 7750.93 88 2022-08-17T03:45:00-00:00 7750.93 88 2022-08-17T04:00:00-00:00 7750.92 88 2022-08-17T04:15:00-00:00 7750.92 88 2.0 Experimental not manually quality-controlled 2022-08-17T03:15:00-00:00 6.28 0.889 2022-08-17T03:30:00-00:00 6.28 0.889 2022-08-17T03:45:00-00:00 6.28 0.889 2022-08-17T04:00:00-00:00 6.26 0.869 2.0 Experimental not manually quality-controlled 2022-08-17T03:10:00-00:00 4.41 0.166 2022-08-17T03:15:00-00:00 4.41 0.166 2022-08-17T03:20:00-00:00 4.42 0.168 2022-08-17T03:25:00-00:00 4.43 0.171 2022-08-17T03:30:00-00:00 4.42 0.168 2022-08-17T03:35:00-00:00 4.42 0.168 2022-08-17T03:40:00-00:00 4.43 0.171 2022-08-17T03:45:00-00:00 4.42 0.168 2022-08-17T03:50:00-00:00 4.42 0.168 2022-08-17T03:55:00-00:00 4.4 0.164 2022-08-17T04:00:00-00:00 4.4 0.164 2022-08-17T04:05:00-00:00 4.43 0.171 2.0 Experimental not manually quality-controlled 2022-08-17T03:30:00-00:00 1.32 0.124 2022-08-17T03:45:00-00:00 1.32 0.124 2022-08-17T04:00:00-00:00 1.32 0.124 2022-08-17T04:15:00-00:00 1.32 0.124 2.0 Experimental not manually quality-controlled 2022-08-17T03:15:00-00:00 1.52 0.083 2022-08-17T03:30:00-00:00 1.51 0.081 2022-08-17T03:45:00-00:00 1.51 0.081 2022-08-17T04:00:00-00:00 1.51 0.081 2.0 Experimental not manually quality-controlled 2022-08-17T03:15:00-00:00 4.16 0.232 2022-08-17T03:30:00-00:00 4.17 0.235 2022-08-17T03:45:00-00:00 4.16 0.232 2022-08-17T04:00:00-00:00 4.15 0.229 2.0 Experimental not manually quality-controlled 2022-08-17T03:15:00-00:00 2.25 0.115 2022-08-17T03:30:00-00:00 2.25 0.115 2022-08-17T03:45:00-00:00 2.25 0.115 2022-08-17T04:00:00-00:00 2.25 0.115 2.0 Experimental not manually quality-controlled 2022-08-17T03:30:00-00:00 2.06 0.296 2022-08-17T03:45:00-00:00 2.07 0.3 2022-08-17T04:00:00-00:00 2.08 0.304 2022-08-17T04:15:00-00:00 2.08 0.304 2.0 Experimental not manually quality-controlled 2022-08-17T04:00:00-00:00 4.67 2.89 2.0 Experimental not manually quality-controlled 2022-08-17T03:15:00-00:00 2.27 2.94 2022-08-17T03:30:00-00:00 2.27 2.94 2022-08-17T03:45:00-00:00 2.27 2.94 2022-08-17T04:00:00-00:00 2.28 2.96 2.0 Experimental not manually quality-controlled 2022-08-17T03:15:00-00:00 3.1 0.058 2022-08-17T03:30:00-00:00 3.1 0.058 2022-08-17T03:45:00-00:00 3.09 0.057 2022-08-17T04:00:00-00:00 3.1 0.058 2.0 Experimental not manually quality-controlled 2022-08-17T03:15:00-00:00 5.12 0.0669 2022-08-17T03:30:00-00:00 5.12 0.0669 2022-08-17T03:45:00-00:00 5.12 0.0669 2022-08-17T04:00:00-00:00 5.11 0.0657 2.0 Experimental not manually quality-controlled 2022-08-17T03:15:00-00:00 3.27 1.87 2022-08-17T03:30:00-00:00 3.28 1.88 2022-08-17T03:45:00-00:00 3.29 1.89 2022-08-17T04:00:00-00:00 3.31 1.91 2.0 Experimental not manually quality-controlled 2022-08-17T04:00:00-00:00 2.47 0.551 2.0 Experimental not manually quality-controlled 2022-08-17T03:30:00-00:00 1.48 0.547 2022-08-17T03:45:00-00:00 1.48 0.547 2022-08-17T04:00:00-00:00 1.48 0.547 2022-08-17T04:15:00-00:00 1.48 0.547 2.0 Experimental not manually quality-controlled 2022-08-17T03:15:00-00:00 3.79 0.024 2022-08-17T03:30:00-00:00 3.79 0.024 2022-08-17T03:45:00-00:00 3.79 0.024 2022-08-17T04:00:00-00:00 3.79 0.024 2.0 Experimental not manually quality-controlled 2022-08-17T03:15:00-00:00 2.36 0.068 2022-08-17T03:30:00-00:00 2.35 0.0667 2022-08-17T03:45:00-00:00 2.35 0.0667 2022-08-17T04:00:00-00:00 2.34 0.0655 2.0 Experimental not manually quality-controlled 2022-08-17T03:15:00-00:00 4.05 0.15 2022-08-17T03:30:00-00:00 4.02 0.144 2022-08-17T03:45:00-00:00 4.02 0.144 2022-08-17T04:00:00-00:00 4.02 0.144 2.0 Experimental not manually quality-controlled 2.0 Experimental not manually quality-controlled 2022-08-17T04:00:00-00:00 2.36 0.208 2.0 Experimental not manually quality-controlled 2022-08-17T03:15:00-00:00 7640.64 66.4 2022-08-17T03:30:00-00:00 7640.64 66.4 2022-08-17T03:45:00-00:00 7640.63 66.4 2022-08-17T04:00:00-00:00 7640.63 66.4 2.0 Experimental not manually quality-controlled 2022-08-17T03:15:00-00:00 1.93 0.133 2022-08-17T03:30:00-00:00 1.94 0.135 2022-08-17T03:45:00-00:00 1.94 0.135 2022-08-17T04:00:00-00:00 1.95 0.138 2.0 Experimental not manually quality-controlled 2022-08-17T03:15:00-00:00 2.68 0.0477 2022-08-17T03:30:00-00:00 2.68 0.0477 2022-08-17T03:45:00-00:00 2.68 0.0477 2022-08-17T04:00:00-00:00 2.68 0.0477 SRUS55 KGJT 170439 PAA HMLGJT 2.0 Experimental not manually quality-controlled 2022-08-17T03:30:00-00:00 3.02 0.164 2022-08-17T03:45:00-00:00 3.03 0.167 2022-08-17T04:00:00-00:00 3.04 0.171 2022-08-17T04:15:00-00:00 3.05 0.174 2.0 Experimental not manually quality-controlled 2022-08-17T04:15:00-00:00 4.65 2.85 2.0 Experimental not manually quality-controlled 2022-08-17T03:30:00-00:00 1.09 0.152 2022-08-17T03:45:00-00:00 1.09 0.152 2022-08-17T04:00:00-00:00 1.09 0.152 2022-08-17T04:15:00-00:00 1.09 0.152 2.0 Experimental not manually quality-controlled 2022-08-17T03:30:00-00:00 4.16 0.222 2022-08-17T03:45:00-00:00 4.16 0.222 2022-08-17T04:00:00-00:00 4.16 0.222 2022-08-17T04:15:00-00:00 4.16 0.222 2.0 Experimental not manually quality-controlled 2022-08-17T03:30:00-00:00 1.95 0.132 2022-08-17T03:45:00-00:00 1.95 0.132 2022-08-17T04:00:00-00:00 1.95 0.132 2022-08-17T04:15:00-00:00 1.96 0.134 2.0 Experimental not manually quality-controlled 2022-08-17T03:30:00-00:00 1.85 0.732 2022-08-17T03:45:00-00:00 1.85 0.732 2022-08-17T04:00:00-00:00 1.86 0.74 2022-08-17T04:15:00-00:00 1.86 0.74 2.0 Experimental not manually quality-controlled 2022-08-17T03:30:00-00:00 2.41 0.0016 2022-08-17T03:45:00-00:00 2.42 0.0016 2022-08-17T04:00:00-00:00 2.42 0.0016 2022-08-17T04:15:00-00:00 2.43 0.0017 2.0 Experimental not manually quality-controlled 2022-08-17T03:30:00-00:00 1.82 0.0444 2022-08-17T03:45:00-00:00 1.82 0.0444 2022-08-17T04:00:00-00:00 1.81 0.0432 2022-08-17T04:15:00-00:00 1.81 0.0432 2.0 Experimental not manually quality-controlled 2022-08-17T03:30:00-00:00 4.82 2.96 2022-08-17T03:45:00-00:00 4.82 2.96 2022-08-17T04:00:00-00:00 4.82 2.96 2022-08-17T04:15:00-00:00 4.82 2.96 2.0 Experimental not manually quality-controlled 2022-08-17T04:15:00-00:00 2.46 0.546 2.0 Experimental not manually quality-controlled 2022-08-17T03:30:00-00:00 6.03 0.0808 2022-08-17T03:45:00-00:00 6.04 0.082 2022-08-17T04:00:00-00:00 6.07 0.0859 2022-08-17T04:15:00-00:00 6.12 0.0925 2.0 Experimental not manually quality-controlled 2022-08-17T03:30:00-00:00 4.78 0.475 2022-08-17T03:45:00-00:00 4.78 0.475 2022-08-17T04:00:00-00:00 4.77 0.468 2022-08-17T04:15:00-00:00 4.75 0.455 2.0 Experimental not manually quality-controlled 2022-08-17T03:30:00-00:00 1.44 -999 2022-08-17T03:45:00-00:00 1.44 -999 2022-08-17T04:00:00-00:00 1.44 -999 2022-08-17T04:15:00-00:00 1.44 -999 2.0 Experimental not manually quality-controlled 2022-08-17T03:30:00-00:00 0.7 0.0053 2022-08-17T03:45:00-00:00 0.75 0.0071 2022-08-17T04:00:00-00:00 0.74 0.0067 2022-08-17T04:15:00-00:00 0.74 0.0067 2.0 Experimental not manually quality-controlled 2022-08-17T03:45:00-00:00 3.46 0.0146 2022-08-17T04:00:00-00:00 3.46 0.0146 2022-08-17T04:15:00-00:00 3.46 0.0146 2022-08-17T04:30:00-00:00 3.46 0.0146 2.0 Experimental not manually quality-controlled 2022-08-17T03:47:00-00:00 3.04 0.481 2022-08-17T04:02:00-00:00 3.05 0.487 2022-08-17T04:17:00-00:00 3.05 0.487 2.0 Experimental not manually quality-controlled 2022-08-17T03:30:00-00:00 1.41 0.0902 2022-08-17T03:45:00-00:00 1.41 0.0902 2022-08-17T04:00:00-00:00 1.41 0.0902 2022-08-17T04:15:00-00:00 1.4 0.088 2.0 Experimental not manually quality-controlled 2022-08-17T03:30:00-00:00 3.05 0.0323 2022-08-17T03:45:00-00:00 3.06 0.0329 2022-08-17T04:00:00-00:00 3.09 0.035 2022-08-17T04:15:00-00:00 3.12 0.0372 2.0 Experimental not manually quality-controlled 2022-08-17T03:30:00-00:00 2.07 0.259 2022-08-17T03:45:00-00:00 2.07 0.259 2022-08-17T04:00:00-00:00 2.07 0.259 2022-08-17T04:15:00-00:00 2.07 0.259 2.0 Experimental not manually quality-controlled 2022-08-17T03:30:00-00:00 1.98 0.248 2022-08-17T03:45:00-00:00 1.98 0.248 2022-08-17T04:00:00-00:00 1.98 0.248 2022-08-17T04:15:00-00:00 1.98 0.248 2.0 Experimental not manually quality-controlled 2022-08-17T04:15:00-00:00 2.36 0.208 2.0 Experimental not manually quality-controlled 2022-08-17T03:30:00-00:00 1.53 0.0982 2022-08-17T03:45:00-00:00 1.53 0.0982 2022-08-17T04:00:00-00:00 1.53 0.0982 2022-08-17T04:15:00-00:00 1.53 0.0982 SRUS55 KGJT 170454 PAA HMLGJT 2.0 Experimental not manually quality-controlled 2022-08-17T03:45:00-00:00 1.02 0.0568 2022-08-17T04:00:00-00:00 1.01 0.0555 2022-08-17T04:15:00-00:00 1.01 0.0555 2022-08-17T04:30:00-00:00 1 0.0542 2.0 Experimental not manually quality-controlled 2022-08-17T03:45:00-00:00 6.83 1.6 2022-08-17T04:00:00-00:00 6.82 1.59 2022-08-17T04:15:00-00:00 6.81 1.58 2022-08-17T04:30:00-00:00 6.8 1.57 2.0 Experimental not manually quality-controlled 2022-08-17T04:30:00-00:00 4.63 2.82 2.0 Experimental not manually quality-controlled 2022-08-17T04:00:00-00:00 3.58 3.26 2022-08-17T04:15:00-00:00 3.57 3.24 2022-08-17T04:30:00-00:00 3.56 3.23 2022-08-17T04:45:00-00:00 3.55 3.21 2.0 Experimental not manually quality-controlled 2022-08-17T04:00:00-00:00 2.64 0.169 2022-08-17T04:15:00-00:00 2.64 0.169 2022-08-17T04:30:00-00:00 2.64 0.169 2022-08-17T04:45:00-00:00 2.64 0.169 2.0 Experimental not manually quality-controlled 2022-08-17T03:45:00-00:00 2.66 0.403 2022-08-17T04:00:00-00:00 2.67 0.409 2022-08-17T04:15:00-00:00 2.66 0.403 2022-08-17T04:30:00-00:00 2.66 0.403 2.0 Experimental not manually quality-controlled 2022-08-17T04:00:00-00:00 0.63 0.026 2022-08-17T04:15:00-00:00 0.63 0.026 2022-08-17T04:30:00-00:00 0.63 0.026 2022-08-17T04:45:00-00:00 0.63 0.026 2.0 Experimental not manually quality-controlled 2022-08-17T04:00:00-00:00 1.94 0.0764 2022-08-17T04:15:00-00:00 1.95 0.0779 2022-08-17T04:30:00-00:00 1.94 0.0764 2022-08-17T04:45:00-00:00 1.93 0.0749 2.0 Experimental not manually quality-controlled 2022-08-17T03:45:00-00:00 1.88 0.112 2022-08-17T04:00:00-00:00 1.88 0.112 2022-08-17T04:15:00-00:00 1.88 0.112 2022-08-17T04:30:00-00:00 1.88 0.112 2.0 Experimental not manually quality-controlled 2022-08-17T03:45:00-00:00 2.35 0.0994 2022-08-17T04:00:00-00:00 2.36 0.102 2022-08-17T04:15:00-00:00 2.37 0.104 2022-08-17T04:30:00-00:00 2.38 0.106 2.0 Experimental not manually quality-controlled 2022-08-17T03:45:00-00:00 2.66 0.111 2022-08-17T04:00:00-00:00 2.66 0.111 2022-08-17T04:15:00-00:00 2.66 0.111 2022-08-17T04:30:00-00:00 2.66 0.111 2.0 Experimental not manually quality-controlled 2022-08-17T04:30:00-00:00 2.47 0.551 2.0 Experimental not manually quality-controlled 2022-08-17T03:45:00-00:00 2.93 1.13 2022-08-17T04:00:00-00:00 2.94 1.14 2022-08-17T04:15:00-00:00 2.94 1.14 2022-08-17T04:30:00-00:00 2.94 1.14 2.0 Experimental not manually quality-controlled 2022-08-17T04:00:00-00:00 5.7 0.0817 2022-08-17T04:15:00-00:00 5.74 0.0851 2022-08-17T04:30:00-00:00 5.8 0.0917 2022-08-17T04:45:00-00:00 5.79 0.0905 2.0 Experimental not manually quality-controlled 2022-08-17T03:45:00-00:00 9.54 2.11 2022-08-17T04:00:00-00:00 9.54 2.11 2022-08-17T04:15:00-00:00 9.54 2.11 2022-08-17T04:30:00-00:00 9.54 2.11 2.0 Experimental not manually quality-controlled 2022-08-17T03:45:00-00:00 2.76 2.1 2022-08-17T04:00:00-00:00 2.77 2.11 2022-08-17T04:15:00-00:00 2.79 2.14 2022-08-17T04:30:00-00:00 2.77 2.11 2.0 Experimental not manually quality-controlled 2022-08-17T03:45:00-00:00 4.52 0.156 2022-08-17T04:00:00-00:00 4.52 0.156 2022-08-17T04:15:00-00:00 4.52 0.156 2022-08-17T04:30:00-00:00 4.52 0.156 2.0 Experimental not manually quality-controlled 2022-08-17T04:01:00-00:00 1.38 0.0532 2022-08-17T04:16:00-00:00 1.37 0.0526 2022-08-17T04:31:00-00:00 1.38 0.0532 2.0 Experimental not manually quality-controlled 2022-08-17T04:00:00-00:00 2.94 0.0292 2022-08-17T04:15:00-00:00 2.94 0.0292 2022-08-17T04:30:00-00:00 2.94 0.0292 2022-08-17T04:45:00-00:00 2.95 0.03 2.0 Experimental not manually quality-controlled 2022-08-17T03:45:00-00:00 1.03 0.0205 2022-08-17T04:00:00-00:00 1.03 0.0205 2022-08-17T04:15:00-00:00 1.03 0.0205 2022-08-17T04:30:00-00:00 1.03 0.0205 2.0 Experimental not manually quality-controlled 2022-08-17T03:45:00-00:00 2.73 0.0413 2022-08-17T04:00:00-00:00 2.73 0.0413 2022-08-17T04:15:00-00:00 2.73 0.0413 2022-08-17T04:30:00-00:00 2.74 0.0426 2.0 Experimental not manually quality-controlled 2022-08-17T03:45:00-00:00 1.85 0.179 2022-08-17T04:00:00-00:00 1.85 0.179 2022-08-17T04:15:00-00:00 1.86 0.181 2022-08-17T04:30:00-00:00 1.86 0.181 2.0 Experimental not manually quality-controlled 2022-08-17T04:30:00-00:00 2.36 0.208 2.0 Experimental not manually quality-controlled 2022-08-17T04:00:00-00:00 4.27 0.0489 2022-08-17T04:15:00-00:00 4.27 0.0489 2022-08-17T04:30:00-00:00 4.27 0.0489 2022-08-17T04:45:00-00:00 4.27 0.0489 2.0 Experimental not manually quality-controlled 2022-08-17T04:00:00-00:00 1.34 0.0717 2022-08-17T04:15:00-00:00 1.34 0.0717 2022-08-17T04:30:00-00:00 1.35 0.073 2022-08-17T04:45:00-00:00 1.34 0.0717 2.0 Experimental not manually quality-controlled 2022-08-17T03:45:00-00:00 4.05 0.195 2022-08-17T04:00:00-00:00 4.02 0.187 2022-08-17T04:15:00-00:00 4.02 0.187 2022-08-17T04:30:00-00:00 4.02 0.187 2.0 Experimental not manually quality-controlled 2022-08-17T04:00:00-00:00 2.39 0.116 2022-08-17T04:15:00-00:00 2.38 0.113 2022-08-17T04:30:00-00:00 2.39 0.116 2022-08-17T04:45:00-00:00 2.38 0.113 2.0 Experimental not manually quality-controlled 2022-08-17T04:00:00-00:00 2.45 0.0614 2022-08-17T04:15:00-00:00 2.45 0.0614 2022-08-17T04:30:00-00:00 2.45 0.0614 2022-08-17T04:45:00-00:00 2.45 0.0614 SRUS55 KGJT 162109 PZC HMLGJT primaryName="Stage" timezone="UTC" secondaryUnits="kcfs" secondaryName="Flow"> 2022-08-16T20:00:00-00:00 1.4 0.08 2022-08-16T20:15:00-00:00 1.4 0.08 2022-08-16T20:30:00-00:00 1.4 0.08 2022-08-16T20:45:00-00:00 1.39 0.0786 2.0 Experimental not manually quality-controlled 2022-08-16T20:00:00-00:00 1.7 0.153 2022-08-16T20:15:00-00:00 1.72 0.158 2022-08-16T20:30:00-00:00 1.72 0.158 2022-08-16T20:45:00-00:00 1.73 0.161 2.0 Experimental not manually quality-controlled 2022-08-16T20:00:00-00:00 2.15 0.117 2022-08-16T20:15:00-00:00 2.15 0.117 2022-08-16T20:30:00-00:00 2.16 0.12 2022-08-16T20:45:00-00:00 2.15 0.117 2.0 Experimental not manually quality-controlled 2022-08-16T20:00:00-00:00 2.38 0.0504 2022-08-16T20:15:00-00:00 2.38 0.0504 2022-08-16T20:30:00-00:00 2.38 0.0504 2022-08-16T20:45:00-00:00 2.39 0.052 SRUS55 KGJT 162109 PAA HMLGJT 2.0 Experimental not manually quality-controlled 2022-08-16T20:45:00-00:00 4.36 2.38 2.0 Experimental not manually quality-controlled 2022-08-16T20:00:00-00:00 3.44 3.02 2022-08-16T20:15:00-00:00 3.45 3.04 2022-08-16T20:30:00-00:00 3.48 3.09 2022-08-16T20:45:00-00:00 3.49 3.11 2.0 Experimental not manually quality-controlled 2022-08-16T20:15:00-00:00 2.5 0.0449 2022-08-16T20:30:00-00:00 2.49 0.0438 2022-08-16T20:45:00-00:00 2.47 0.0418 2022-08-16T21:00:00-00:00 2.46 0.0408 2.0 Experimental not manually quality-controlled 2022-08-16T20:00:00-00:00 2.6 0.159 2022-08-16T20:15:00-00:00 2.6 0.159 2022-08-16T20:30:00-00:00 2.61 0.161 2022-08-16T20:45:00-00:00 2.62 0.164 2.0 Experimental not manually quality-controlled 2022-08-16T20:00:00-00:00 7.02 0.114 2022-08-16T20:15:00-00:00 7.01 0.112 2022-08-16T20:30:00-00:00 7.01 0.112 2022-08-16T20:45:00-00:00 7 0.11 2.0 Experimental not manually quality-controlled 2022-08-16T20:00:00-00:00 1.91 0.072 2022-08-16T20:15:00-00:00 1.91 0.072 2022-08-16T20:30:00-00:00 1.91 0.072 2022-08-16T20:45:00-00:00 1.91 0.072 2.0 Experimental not manually quality-controlled 2022-08-16T20:15:00-00:00 3.19 1.79 2022-08-16T20:30:00-00:00 3.2 1.8 2022-08-16T20:45:00-00:00 3.2 1.8 2022-08-16T21:00:00-00:00 3.19 1.79 2.0 Experimental not manually quality-controlled 2022-08-16T20:45:00-00:00 2.47 0.551 2.0 Experimental not manually quality-controlled 2022-08-16T20:00:00-00:00 5.35 0.0553 2022-08-16T20:15:00-00:00 5.41 0.0593 2022-08-16T20:30:00-00:00 5.39 0.0579 2022-08-16T20:45:00-00:00 5.35 0.0553 2.0 Experimental not manually quality-controlled 2022-08-16T20:00:00-00:00 2.39 0.923 2022-08-16T20:15:00-00:00 2.37 0.909 2022-08-16T20:30:00-00:00 2.38 0.916 2022-08-16T20:45:00-00:00 2.38 0.916 2.0 Experimental not manually quality-controlled 2022-08-16T20:00:00-00:00 3.07 0.499 2022-08-16T20:15:00-00:00 3.07 0.499 2022-08-16T20:30:00-00:00 3.07 0.499 2022-08-16T20:45:00-00:00 3.07 0.499 2.0 Experimental not manually quality-controlled < SRUS55 KGJT 162109 PAB HMLGJT observed primaryUnits="ft" pedts="HGIRG" primaryName="Stage" timezone="UTC" secondaryUnits="kcfs" secondaryName="Flow"> 2022-08-16T20:00:00-00:00 3.33 0.0389 2022-08-16T20:15:00-00:00 3.33 0.0389 2022-08-16T20:30:00-00:00 3.33 0.0389 2022-08-16T20:45:00-00:00 3.33 0.0389 2.0 Experimental not manually quality-controlled 2022-08-16T19:45:00-00:00 -9999 -999 2022-08-16T20:00:00-00:00 -9999 -999 2022-08-16T20:15:00-00:00 -9999 -999 2022-08-16T20:30:00-00:00 -9999 -999 2.0 Experimental not manually quality-controlled 2022-08-16T20:00:00-00:00 5.26 0.0253 2022-08-16T20:15:00-00:00 5.26 0.0253 2022-08-16T20:30:00-00:00 5.25 0.0246 2022-08-16T20:45:00-00:00 5.25 0.0246 2.0 Experimental not manually quality-controlled 2022-08-16T20:00:00-00:00 1.38 0.0532 2022-08-16T20:15:00-00:00 1.38 0.0532 2022-08-16T20:30:00-00:00 1.38 0.0532 2022-08-16T20:45:00-00:00 1.38 0.0532 2.0 Experimental not manually quality-controlled 2022-08-16T20:00:00-00:00 4.02 0 2022-08-16T20:15:00-00:00 4.02 0 2022-08-16T20:30:00-00:00 4.02 0 2022-08-16T20:45:00-00:00 4.03 0 2.0 Experimental not manually quality-controlled 2022-08-16T20:15:00-00:00 1.19 0.153 2022-08-16T20:30:00-00:00 1.18 0.15 2022-08-16T20:45:00-00:00 1.17 0.148 2022-08-16T21:00:00-00:00 1.17 0.148 2.0 Experimental not manually quality-controlled 2022-08-16T20:00:00-00:00 2.89 0.0253 2022-08-16T20:15:00-00:00 2.89 0.0253 2022-08-16T20:30:00-00:00 2.9 0.0262 2022-08-16T20:45:00-00:00 2.9 0.0262 2.0 Experimental not manually quality-controlled 2022-08-16T20:15:00-00:00 1.21 0.0254 2022-08-16T20:30:00-00:00 1.21 0.0254 2022-08-16T20:45:00-00:00 1.21 0.0254 2022-08-16T21:00:00-00:00 1.21 0.0254 2.0 Experimental not manually quality-controlled 2022-08-16T20:15:00-00:00 5914.35 -999 2022-08-16T20:30:00-00:00 5914.36 -999 2022-08-16T20:45:00-00:00 5914.35 -999 2022-08-16T21:00:00-00:00 5914.35 -999 2.0 Experimental not manually quality-controlled 2022-08-16T20:45:00-00:00 2.36 0.208 2.0 Experimental not manually quality-controlled 2022-08-16T20:00:00-00:00 4.19 0.0412 2022-08-16T20:15:00-00:00 4.2 0.0421 2022-08-16T20:30:00-00:00 4.21 0.0431 2022-08-16T20:45:00-00:00 4.22 0.044 2.0 Experimental not manually quality-controlled 2022-08-16T20:15:00-00:00 1.19 0.153 2022-08-16T20:30:00-00:00 1.18 0.15 2022-08-16T20:45:00-00:00 1.17 0.148 2022-08-16T21:00:00-00:00 1.17 0.148 2.0 Experimental not manually quality-controlled 2022-08-16T20:15:00-00:00 1.21 0.0254 2022-08-16T20:30:00-00:00 1.21 0.0254 2022-08-16T20:45:00-00:00 1.21 0.0254 2022-08-16T21:00:00-00:00 1.21 0.0254 2.0 Experimental not manually quality-controlled 2022-08-16T20:15:00-00:00 5914.35 -999 2022-08-16T20:30:00-00:00 5914.36 -999 2022-08-16T20:45:00-00:00 5914.35 -999 2022-08-16T21:00:00-00:00 5914.35 -999 2.0 Experimental not manually quality-controlled 2022-08-16T20:30:00-00:00 7751.01 88.1 2022-08-16T20:45:00-00:00 7751 88.1 2022-08-16T21:00:00-00:00 7751 88.1 2022-08-16T21:15:00-00:00 7750.99 88.1 2.0 Experimental not manually quality-controlled 2022-08-16T20:15:00-00:00 6.07 0.688 2022-08-16T20:30:00-00:00 6.07 0.688 2022-08-16T20:45:00-00:00 6.06 0.68 2022-08-16T21:00:00-00:00 6.05 0.671 2.0 Experimental not manually quality-controlled 2022-08-16T20:10:00-00:00 4.38 0.159 2022-08-16T20:15:00-00:00 4.37 0.157 2022-08-16T20:20:00-00:00 4.35 0.153 2022-08-16T20:25:00-00:00 4.37 0.157 2022-08-16T20:30:00-00:00 4.38 0.159 2022-08-16T20:35:00-00:00 4.38 0.159 2022-08-16T20:40:00-00:00 4.4 0.164 2022-08-16T20:45:00-00:00 4.39 0.162 2022-08-16T20:50:00-00:00 4.38 0.159 2022-08-16T20:55:00-00:00 4.38 0.159 2022-08-16T21:00:00-00:00 4.39 0.162 2022-08-16T21:05:00-00:00 4.37 0.157 2.0 Experimental not manually quality-controlled 2022-08-16T20:30:00-00:00 1.32 0.124 2022-08-16T20:45:00-00:00 1.32 0.124 2022-08-16T21:00:00-00:00 1.33 0.126 2022-08-16T21:15:00-00:00 1.33 0.126 2.0 Experimental not manually quality-controlled 2022-08-16T20:15:00-00:00 1.39 0.062 2022-08-16T20:30:00-00:00 1.4 0.0633 2022-08-16T20:45:00-00:00 1.4 0.0633 2022-08-16T21:00:00-00:00 1.4 0.0633 2.0 Experimental not manually quality-controlled 2022-08-16T20:15:00-00:00 4.16 0.232 2022-08-16T20:30:00-00:00 4.16 0.232 2022-08-16T20:45:00-00:00 4.16 0.232 2022-08-16T21:00:00-00:00 4.16 0.232 2.0 Experimental not manually quality-controlled 2022-08-16T20:15:00-00:00 2.2 0.106 2022-08-16T20:30:00-00:00 2.21 0.108 2022-08-16T20:45:00-00:00 2.21 0.108 2022-08-16T21:00:00-00:00 2.2 0.106 SRUS55 KGJT 162124 PAA HMLGJT 2.0 Experimental not manually quality-controlled 2022-08-16T20:30:00-00:00 2.05 0.292 2022-08-16T20:45:00-00:00 2.05 0.292 2022-08-16T21:00:00-00:00 2.05 0.292 2022-08-16T21:15:00-00:00 2.06 0.296 2.0 Experimental not manually quality-controlled 2022-08-16T21:00:00-00:00 4.37 2.4 2.0 Experimental not manually quality-controlled 2022-08-16T20:15:00-00:00 2.21 2.83 2022-08-16T20:30:00-00:00 2.22 2.85 2022-08-16T20:45:00-00:00 2.26 2.92 2022-08-16T21:00:00-00:00 2.26 2.92 2.0 Experimental not manually quality-controlled 2022-08-16T20:15:00-00:00 3.06 0.0537 2022-08-16T20:30:00-00:00 3.05 0.0524 2022-08-16T20:45:00-00:00 3.06 0.0537 2022-08-16T21:00:00-00:00 3.06 0.0537 2.0 Experimental not manually quality-controlled 2022-08-16T20:15:00-00:00 5.22 0.0803 2022-08-16T20:30:00-00:00 5.23 0.0817 2022-08-16T20:45:00-00:00 5.23 0.0817 2022-08-16T21:00:00-00:00 5.23 0.0817 2.0 Experimental not manually quality-controlled 2022-08-16T20:15:00-00:00 3.19 1.79 2022-08-16T20:30:00-00:00 3.2 1.8 2022-08-16T20:45:00-00:00 3.2 1.8 2022-08-16T21:00:00-00:00 3.19 1.79 2.0 Experimental not manually quality-controlled 2022-08-16T21:00:00-00:00 2.47 0.551 2.0 Experimental not manually quality-controlled 2022-08-16T20:30:00-00:00 1.44 0.511 2022-08-16T20:45:00-00:00 1.43 0.502 2022-08-16T21:00:00-00:00 1.43 0.502 2022-08-16T21:15:00-00:00 1.43 0.502 2.0 Experimental not manually quality-controlled 2022-08-16T20:15:00-00:00 3.82 0.0262 2022-08-16T20:30:00-00:00 3.82 0.0262 2022-08-16T20:45:00-00:00 3.82 0.0262 2022-08-16T21:00:00-00:00 3.82 0.0262 2.0 Experimental not manually quality-controlled 2022-08-16T20:15:00-00:00 2.52 0.091 2022-08-16T20:30:00-00:00 2.51 0.0894 2022-08-16T20:45:00-00:00 2.5 0.0877 2022-08-16T21:00:00-00:00 2.5 0.0877 2.0 Experimental not manually quality-controlled 2022-08-16T20:15:00-00:00 4.06 0.152 2022-08-16T20:30:00-00:00 4.03 0.146 2022-08-16T20:45:00-00:00 4.04 0.148 2022-08-16T21:00:00-00:00 4.05 0.15 2.0 Experimental not manually quality-controlled 2.0 Experimental not manually quality-controlled 2022-08-16T21:00:00-00:00 2.36 0.208 2.0 Experimental not manually quality-controlled 2022-08-16T20:15:00-00:00 7640.71 66.6 2022-08-16T20:30:00-00:00 7640.71 66.6 2022-08-16T20:45:00-00:00 7640.71 66.6 2022-08-16T21:00:00-00:00 7640.71 66.6 2.0 Experimental not manually quality-controlled 2022-08-16T20:15:00-00:00 2 0.15 2022-08-16T20:30:00-00:00 1.99 0.147 2022-08-16T20:45:00-00:00 1.99 0.147 2022-08-16T21:00:00-00:00 1.98 0.145 2.0 Experimental not manually quality-controlled 2022-08-16T20:15:00-00:00 2.7 0.0492 2022-08-16T20:30:00-00:00 2.7 0.0492 2022-08-16T20:45:00-00:00 2.69 0.0485 SRUS55 KGJT 162139 PZB HMLGJT > 2022-08-16T20:30:00-00:00 4.72 0.433 2022-08-16T20:45:00-00:00 4.72 0.433 2022-08-16T21:00:00-00:00 4.73 0.441 2022-08-16T21:15:00-00:00 4.73 0.441 2.0 Experimental not manually quality-controlled 2022-08-16T20:30:00-00:00 1.45 -999 2022-08-16T20:45:00-00:00 1.44 -999 2022-08-16T21:00:00-00:00 1.44 -999 2022-08-16T21:15:00-00:00 1.45 -999 2.0 Experimental not manually quality-controlled 2022-08-16T20:30:00-00:00 0.82 0.0104 2022-08-16T20:45:00-00:00 0.82 0.0104 2022-08-16T21:00:00-00:00 0.81 0.0099 2022-08-16T21:15:00-00:00 0.82 0.0104 2.0 Experimental not manually quality-controlled 2022-08-16T20:45:00-00:00 3.48 0.0157 2022-08-16T21:00:00-00:00 3.47 0.0151 2022-08-16T21:15:00-00:00 3.47 0.0151 2022-08-16T21:30:00-00:00 3.47 0.0151 2.0 Experimental not manually quality-controlled 2022-08-16T20:30:00-00:00 1.3 0.067 2022-08-16T20:45:00-00:00 1.29 0.0651 2022-08-16T21:00:00-00:00 1.3 0.067 2022-08-16T21:15:00-00:00 1.31 0.0689 2.0 Experimental not manually quality-controlled 2022-08-16T20:30:00-00:00 2.88 0.0225 2022-08-16T20:45:00-00:00 2.88 0.0225 2022-08-16T21:00:00-00:00 2.88 0.0225 2022-08-16T21:15:00-00:00 2.88 0.0225 2.0 Experimental not manually quality-controlled 2022-08-16T20:30:00-00:00 2.08 0.263 2022-08-16T20:45:00-00:00 2.08 0.263 2022-08-16T21:00:00-00:00 2.08 0.263 2022-08-16T21:15:00-00:00 2.08 0.263 2.0 Experimental not manually quality-controlled 2022-08-16T20:30:00-00:00 1.98 0.248 2022-08-16T20:45:00-00:00 1.98 0.248 2022-08-16T21:00:00-00:00 1.98 0.248 2022-08-16T21:15:00-00:00 1.98 0.248 2.0 Experimental not manually quality-controlled 2022-08-16T21:15:00-00:00 2.36 0.208 2.0 Experimental not manually quality-controlled 2022-08-16T20:30:00-00:00 1.58 0.108 2022-08-16T20:45:00-00:00 1.58 0.108 2022-08-16T21:00:00-00:00 1.57 0.106 2022-08-16T21:15:00-00:00 1.57 0.106 SRUS55 KGJT 162139 PAA HMLGJT 2.0 Experimental not manually quality-controlled 2022-08-16T20:30:00-00:00 2.94 0.139 2022-08-16T20:45:00-00:00 2.95 0.142 2022-08-16T21:00:00-00:00 2.94 0.139 2022-08-16T21:15:00-00:00 2.95 0.142 2.0 Experimental not manually quality-controlled 2022-08-16T21:15:00-00:00 4.38 2.41 2.0 Experimental not manually quality-controlled 2022-08-16T20:30:00-00:00 1.09 0.152 2022-08-16T20:45:00-00:00 1.09 0.152 2022-08-16T21:00:00-00:00 1.09 0.152 2022-08-16T21:15:00-00:00 1.09 0.152 2.0 Experimental not manually quality-controlled 2022-08-16T20:30:00-00:00 4.19 0.231 2022-08-16T20:45:00-00:00 4.18 0.228 2022-08-16T21:00:00-00:00 4.18 0.228 2022-08-16T21:15:00-00:00 4.19 0.231 2.0 Experimental not manually quality-controlled 2022-08-16T20:30:00-00:00 1.95 0.132 2022-08-16T20:45:00-00:00 1.96 0.134 2022-08-16T21:00:00-00:00 1.95 0.132 2022-08-16T21:15:00-00:00 1.95 0.132 2.0 Experimental not manually quality-controlled 2022-08-16T20:30:00-00:00 1.84 0.725 2022-08-16T20:45:00-00:00 1.83 0.718 2022-08-16T21:00:00-00:00 1.83 0.718 2022-08-16T21:15:00-00:00 1.83 0.718 2.0 Experimental not manually quality-controlled 2022-08-16T20:30:00-00:00 2.41 0.0016 2022-08-16T20:45:00-00:00 2.41 0.0016 2022-08-16T21:00:00-00:00 2.41 0.0016 2022-08-16T21:15:00-00:00 2.39 0.0014 2.0 Experimental not manually quality-controlled 2022-08-16T20:30:00-00:00 1.84 0.047 2022-08-16T20:45:00-00:00 1.84 0.047 2022-08-16T21:00:00-00:00 1.84 0.047 2022-08-16T21:15:00-00:00 1.84 0.047 2.0 Experimental not manually quality-controlled 2022-08-16T20:30:00-00:00 4.86 3.03 2022-08-16T20:45:00-00:00 4.84 2.99 2022-08-16T21:00:00-00:00 4.83 2.97 2022-08-16T21:15:00-00:00 4.82 2.96 2.0 Experimental not manually quality-controlled 2022-08-16T21:15:00-00:00 2.47 0.551 2.0 Experimental not manually quality-controlled 2022-08-16T20:30:00-00:00 6.16 0.0977 2022-08-16T20:45:00-00:00 6.11 0.0912 2022-08-16T21:00:00-00:00 6.07 0.0859 2022-08-16T21:15:00-00:00 6 0.0773 2.0 Experimental not manually quality-controlled 2.0 Experimental not manually quality-controlled 2022-08-16T21:30:00-00:00 2.46 0.546 2.0 Experimental not manually quality-controlled 2022-08-16T20:45:00-00:00 2.9 1.1 2022-08-16T21:00:00-00:00 2.91 1.11 2022-08-16T21:15:00-00:00 2.91 1.11 2022-08-16T21:30:00-00:00 2.9 1.1 2.0 Experimental not manually quality-controlled 2022-08-16T21:00:00-00:00 5.34 0.0546 2022-08-16T21:15:00-00:00 5.35 0.0553 2022-08-16T21:30:00-00:00 5.32 0.0533 2022-08-16T21:45:00-00:00 5.28 0.0507 2.0 Experimental not manually quality-controlled 2022-08-16T20:45:00-00:00 9.51 2.08 2022-08-16T21:00:00-00:00 9.51 2.08 2022-08-16T21:15:00-00:00 9.51 2.08 2022-08-16T21:30:00-00:00 9.51 2.08 2.0 Experimental not manually quality-controlled 2022-08-16T20:45:00-00:00 2.52 1.81 2022-08-16T21:00:00-00:00 2.53 1.82 2022-08-16T21:15:00-00:00 2.52 1.81 2022-08-16T21:30:00-00:00 2.53 1.82 2.0 Experimental not manually quality-controlled 2022-08-16T20:45:00-00:00 4.52 0.156 2022-08-16T21:00:00-00:00 4.52 0.156 2022-08-16T21:15:00-00:00 4.52 0.156 2022-08-16T21:30:00-00:00 4.52 0.156 2.0 Experimental not manually quality-controlled 2022-08-16T21:00:00-00:00 2.91 0.027 2022-08-16T21:15:00-00:00 2.91 0.027 2022-08-16T21:30:00-00:00 2.89 0.0253 2022-08-16T21:45:00-00:00 2.89 0.0253 2.0 Experimental not manually quality-controlled 2022-08-16T20:45:00-00:00 0.97 0.017 2022-08-16T21:00:00-00:00 0.97 0.017 2022-08-16T21:15:00-00:00 0.97 0.017 2022-08-16T21:30:00-00:00 0.97 0.017 2022-08-16T21:45:00-00:00 0.97 0.017 2.0 Experimental not manually quality-controlled 2022-08-16T20:45:00-00:00 2.79 0.0503 2022-08-16T21:00:00-00:00 2.8 0.0516 2022-08-16T21:15:00-00:00 2.8 0.0516 2022-08-16T21:30:00-00:00 2.8 0.0516 2.0 Experimental not manually quality-controlled 2022-08-16T20:45:00-00:00 1.76 0.162 2022-08-16T21:00:00-00:00 1.76 0.162 2022-08-16T21:15:00-00:00 1.76 0.162 2022-08-16T21:30:00-00:00 1.77 0.164 2.0 Experimental not manually quality-controlled 2022-08-16T21:30:00-00:00 2.36 0.208 2.0 Experimental not manually quality-contro SRUS55 KGJT 162154 PZC HMLGJT lled 2022-08-16T21:00:00-00:00 4.23 0.0449 2022-08-16T21:15:00-00:00 4.24 0.0459 2022-08-16T21:30:00-00:00 4.24 0.0459 2022-08-16T21:45:00-00:00 4.25 0.0469 2.0 Experimental not manually quality-controlled 2022-08-16T21:00:00-00:00 1.39 0.0786 2022-08-16T21:15:00-00:00 1.39 0.0786 2022-08-16T21:30:00-00:00 1.39 0.0786 2022-08-16T21:45:00-00:00 1.38 0.0772 2.0 Experimental not manually quality-controlled 2022-08-16T20:45:00-00:00 4.05 0.195 2022-08-16T21:00:00-00:00 4.06 0.197 2022-08-16T21:15:00-00:00 4.06 0.197 2022-08-16T21:30:00-00:00 4.06 0.197 2.0 Experimental not manually quality-controlled 2022-08-16T21:00:00-00:00 2.4 0.119 2022-08-16T21:15:00-00:00 2.4 0.119 2022-08-16T21:30:00-00:00 2.4 0.119 2022-08-16T21:45:00-00:00 2.4 0.119 2.0 Experimental not manually quality-controlled 2022-08-16T21:00:00-00:00 2.39 0.052 2022-08-16T21:15:00-00:00 2.38 0.0504 2022-08-16T21:30:00-00:00 2.39 0.052 2022-08-16T21:45:00-00:00 2.38 0.0504 SRUS55 KGJT 162154 PAA HMLGJT 2.0 Experimental not manually quality-controlled 2022-08-16T20:45:00-00:00 1.04 0.0593 2022-08-16T21:00:00-00:00 1.04 0.0593 2022-08-16T21:15:00-00:00 1.04 0.0593 2022-08-16T21:30:00-00:00 1.04 0.0593 2.0 Experimental not manually quality-controlled 2022-08-16T20:45:00-00:00 7.6 2.34 2022-08-16T21:00:00-00:00 7.58 2.32 2022-08-16T21:15:00-00:00 7.57 2.31 2022-08-16T21:30:00-00:00 7.57 2.31 2.0 Experimental not manually quality-controlled 2022-08-16T21:30:00-00:00 4.4 2.45 2.0 Experimental not manually quality-controlled 2022-08-16T21:00:00-00:00 3.52 3.16 2022-08-16T21:15:00-00:00 3.54 3.19 2022-08-16T21:30:00-00:00 3.57 3.24 2022-08-16T21:45:00-00:00 3.6 3.3 2.0 Experimental not manually quality-controlled 2022-08-16T21:00:00-00:00 2.62 0.164 2022-08-16T21:15:00-00:00 2.63 0.167 2022-08-16T21:30:00-00:00 2.63 0.167 2022-08-16T21:45:00-00:00 2.63 0.167 2.0 Experimental not manually quality-controlled 2022-08-16T20:45:00-00:00 2.6 0.366 2022-08-16T21:00:00-00:00 2.6 0.366 2022-08-16T21:15:00-00:00 2.61 0.372 2022-08-16T21:30:00-00:00 2.61 0.372 2.0 Experimental not manually quality-controlled 2022-08-16T21:00:00-00:00 0.63 0.026 2022-08-16T21:15:00-00:00 0.63 0.026 2022-08-16T21:30:00-00:00 0.63 0.026 2022-08-16T21:45:00-00:00 0.63 0.026 2.0 Experimental not manually quality-controlled 2022-08-16T21:00:00-00:00 1.9 0.0708 2022-08-16T21:15:00-00:00 1.91 0.072 2022-08-16T21:30:00-00:00 1.91 0.072 2022-08-16T21:45:00-00:00 1.91 0.072 2.0 Experimental not manually quality-controlled 2022-08-16T20:45:00-00:00 1.89 0.115 2022-08-16T21:00:00-00:00 1.9 0.117 2022-08-16T21:15:00-00:00 1.89 0.115 2022-08-16T21:30:00-00:00 1.89 0.115 2.0 Experimental not manually quality-controlled 2022-08-16T20:45:00-00:00 2.31 0.0916 2022-08-16T21:00:00-00:00 2.3 0.09 2022-08-16T21:15:00-00:00 2.31 0.0916 2022-08-16T21:30:00-00:00 2.32 0.0933 2.0 Experimental not manually quality-controlled 2022-08-16T20:45:00-00:00 2.72 0.123 2022-08-16T21:00:00-00:00 2.7 0.119 2022-08-16T21:15:00-00:00 2.66 0.111 2022-08-16T21:30:00-00:00 2.66 0.111 2022-08-16T21:00:00-00:00 3.33 0.0389 2022-08-16T21:15:00-00:00 3.33 0.0389 2022-08-16T21:30:00-00:00 3.34 0.0399 2022-08-16T21:45:00-00:00 3.33 0.0389 2.0 Experimental not manually quality-controlled 2022-08-16T20:45:00-00:00 -9999 -999 2022-08-16T21:00:00-00:00 -9999 -999 2022-08-16T21:15:00-00:00 -9999 -999 2022-08-16T21:30:00-00:00 -9999 -999 2.0 Experimental not manually quality-controlled 2022-08-16T21:00:00-00:00 5.25 0.0246 2022-08-16T21:15:00-00:00 5.25 0.0246 2022-08-16T21:30:00-00:00 5.24 0.0239 2022-08-16T21:45:00-00:00 5.28 0.0268 2.0 Experimental not manually quality-controlled 2022-08-16T21:00:00-00:00 1.38 0.0532 2022-08-16T21:15:00-00:00 1.38 0.0532 2022-08-16T21:30:00-00:00 1.38 0.0532 2022-08-16T21:45:00-00:00 1.38 0.0532 2.0 Experimental not manually quality-controlled 2022-08-16T21:00:00-00:00 4.02 0 2022-08-16T21:15:00-00:00 4.02 0 2022-08-16T21:30:00-00:00 4.01 0 2022-08-16T21:45:00-00:00 4 0 2.0 Experimental not manually quality-controlled 2022-08-16T21:00:00-00:00 2.91 0.027 2022-08-16T21:15:00-00:00 2.91 0.027 2022-08-16T21:30:00-00:00 2.89 0.0253 2022-08-16T21:45:00-00:00 2.89 0.0253 2.0 Experimental not manually quality-controlled 2022-08-16T21:15:00-00:00 1.21 0.0254 2022-08-16T21:30:00-00:00 1.21 0.0254 2022-08-16T21:45:00-00:00 1.21 0.0254 2022-08-16T22:00:00-00:00 1.21 0.0254 2.0 Experimental not manually quality-controlled 2022-08-16T21:15:00-00:00 5914.36 -999 2022-08-16T21:30:00-00:00 5914.35 -999 2022-08-16T21:45:00-00:00 5914.36 -999 2022-08-16T22:00:00-00:00 5914.36 -999 2.0 Experimental not manually quality-controlled 2022-08-16T21:45:00-00:00 2.36 0.208 2.0 Experimental not manually quality-controlled 2022-08-16T21:00:00-00:00 4.23 0.0449 2022-08-16T21:15:00-00:00 4.24 0.0459 2022-08-16T21:30:00-00:00 4.24 0.0459 2022-08-16T21:45:00-00:00 4.25 0.0469 2.0 Experimental not manually quality-controlled 2022-08-16T21:00:00-00:00 1.39 0.0786 2022-08-16T21:15:00-00:00 1.39 0.0786 2022-08-16T21:30:00-00:00 1.39 0.0786 2022-08-16T21:45:00-00:00 1.38 0.0772 2.0 Experimental not manually quality-controlled 2.0 Experimental not manually quality-controlled 2022-08-16T21:45:00-00:00 4.41 2.46 2.0 Experimental not manually quality-controlled 2022-08-16T21:00:00-00:00 3.52 3.16 2022-08-16T21:15:00-00:00 3.54 3.19 2022-08-16T21:30:00-00:00 3.57 3.24 2022-08-16T21:45:00-00:00 3.6 3.3 2.0 Experimental not manually quality-controlled 2022-08-16T21:15:00-00:00 2.45 0.0399 2022-08-16T21:30:00-00:00 2.44 0.0389 2022-08-16T21:45:00-00:00 2.44 0.0389 2022-08-16T22:00:00-00:00 2.42 0.037 2.0 Experimental not manually quality-controlled 2022-08-16T21:00:00-00:00 2.62 0.164 2022-08-16T21:15:00-00:00 2.63 0.167 2022-08-16T21:30:00-00:00 2.63 0.167 2022-08-16T21:45:00-00:00 2.63 0.167 2.0 Experimental not manually quality-controlled 2022-08-16T21:00:00-00:00 7 0.11 2022-08-16T21:15:00-00:00 6.99 0.107 2022-08-16T21:30:00-00:00 6.98 0.105 2022-08-16T21:45:00-00:00 6.98 0.105 2.0 Experimental not manually quality-controlled 2022-08-16T21:00:00-00:00 1.9 0.0708 2022-08-16T21:15:00-00:00 1.91 0.072 2022-08-16T21:30:00-00:00 1.91 0.072 2022-08-16T21:45:00-00:00 1.91 0.072 2.0 Experimental not manually quality-controlled 2022-08-16T21:15:00-00:00 3.21 1.81 2022-08-16T21:30:00-00:00 3.2 1.8 2022-08-16T21:45:00-00:00 3.2 1.8 2022-08-16T22:00:00-00:00 3.22 1.82 2.0 Experimental not manually quality-controlled 2022-08-16T21:45:00-00:00 2.47 0.551 2.0 Experimental not manually quality-controlled 2022-08-16T21:00:00-00:00 5.34 0.0546 2022-08-16T21:15:00-00:00 5.35 0.0553 2022-08-16T21:30:00-00:00 5.32 0.0533 2022-08-16T21:45:00-00:00 5.28 0.0507 2.0 Experimental not manually quality-controlled 2022-08-16T21:00:00-00:00 2.39 0.923 2022-08-16T21:15:00-00:00 2.4 0.93 2022-08-16T21:30:00-00:00 2.39 0.923 2022-08-16T21:45:00-00:00 2.39 0.923 2.0 Experimental not manually quality-controlled 2022-08-16T21:00:00-00:00 3.07 0.499 2022-08-16T21:15:00-00:00 3.07 0.499 2022-08-16T21:30:00-00:00 3.07 0.499 2022-08-16T21:45:00-00:00 3.07 0.499 2.0 Experimental not manually quality-controlled 2022-08-16T21:00:00-00:00 1.73 0.161 2022-08-16T21:15:00-00:00 1.74 0.163 2022-08-16T21:30:00-00:00 1.73 0.161 2022-08-16T21:45:00-00:00 1.74 0.163 2.0 Experimental not manually quality-controlled 2022-08-16T21:00:00-00:00 2.15 0.117 2022-08-16T21:15:00-00:00 2.17 0.122 2022-08-16T21:30:00-00:00 2.16 0.12 2022-08-16T21:45:00-00:00 2.17 0.122 2.0 Experimental not manually quality-controlled 2022-08-16T21:00:00-00:00 2.39 0.052 2022-08-16T21:15:00-00:00 2.38 0.0504 2022-08-16T21:30:00-00:00 2.39 0.052 2022-08-16T21:45:00-00:00 2.38 0.0504 SRUS55 KGJT 162224 PAA HMLGJT 2.0 Experimental not manually quality-controlled 2022-08-16T21:30:00-00:00 2.06 0.296 2022-08-16T21:45:00-00:00 2.06 0.296 2022-08-16T22:00:00-00:00 2.07 0.3 2022-08-16T22:15:00-00:00 2.06 0.296 2.0 Experimental not manually quality-controlled 2022-08-16T22:00:00-00:00 4.42 2.48 2.0 Experimental not manually quality-controlled 2022-08-16T21:15:00-00:00 2.26 2.92 2022-08-16T21:30:00-00:00 2.27 2.94 2022-08-16T21:45:00-00:00 2.27 2.94 2022-08-16T22:00:00-00:00 2.27 2.94 2.0 Experimental not manually quality-controlled 2022-08-16T21:15:00-00:00 3.06 0.0537 2022-08-16T21:30:00-00:00 3.06 0.0537 2022-08-16T21:45:00-00:00 3.05 0.0524 2022-08-16T22:00:00-00:00 3.04 0.0512 2.0 Experimental not manually quality-controlled 2022-08-16T21:15:00-00:00 5.22 0.0803 2022-08-16T21:30:00-00:00 5.22 0.0803 2022-08-16T21:45:00-00:00 5.22 0.0803 2022-08-16T22:00:00-00:00 5.21 0.079 2.0 Experimental not manually quality-controlled 2022-08-16T21:15:00-00:00 3.21 1.81 2022-08-16T21:30:00-00:00 3.2 1.8 2022-08-16T21:45:00-00:00 3.2 1.8 2022-08-16T22:00:00-00:00 3.22 1.82 2.0 Experimental not manually quality-controlled 2022-08-16T22:00:00-00:00 2.47 0.551 2.0 Experimental not manually quality-controlled 2022-08-16T21:30:00-00:00 1.44 0.511 2022-08-16T21:45:00-00:00 1.43 0.502 2022-08-16T22:00:00-00:00 1.43 0.502 2022-08-16T22:15:00-00:00 1.43 0.502 2.0 Experimental not manually quality-controlled 2022-08-16T21:15:00-00:00 3.82 0.0262 2022-08-16T21:30:00-00:00 3.82 0.0262 2022-08-16T21:45:00-00:00 3.81 0.0255 2022-08-16T22:00:00-00:00 3.81 0.0255 2.0 Experimental not manually quality-controlled 2022-08-16T21:15:00-00:00 2.5 0.0877 2022-08-16T21:30:00-00:00 2.5 0.0877 2022-08-16T21:45:00-00:00 2.49 0.0861 2022-08-16T22:00:00-00:00 2.48 0.0846 2.0 Experimental not manually quality-controlled 2022-08-16T21:15:00-00:00 4.04 0.148 2022-08-16T21:30:00-00:00 4.05 0.15 2022-08-16T21:45:00-00:00 4.04 0.148 2022-08-16T22:00:00-00:00 4.06 0.152 2.0 Experimental not manually quality-controlled 2.0 Experimental not manually quality-controlled 2022-08-16T22:00:00-00:00 2.36 0.208 2.0 Experimental not manually quality-controlled 2022-08-16T21:15:00-00:00 7640.71 66.6 2022-08-16T21:30:00-00:00 7640.69 66.5 2022-08-16T21:45:00-00:00 7640.69 66.5 2022-08-16T22:00:00-00:00 7640.69 66.5 2.0 Experimental not manually quality-controlled 2022-08-16T21:15:00-00:00 1.98 0.145 2022-08-16T21:30:00-00:00 1.97 0.142 2022-08-16T21:45:00-00:00 1.97 0.142 2022-08-16T22:00:00-00:00 1.96 0.14 2.0 Experimental not manually quality-controlled 2022-08-16T21:15:00-00:00 2.69 0.0485 2022-08-16T21:30:00-00:00 2.69 0.0485 2022-08-16T21:45:00-00:00 2.69 0.0485 2022-08-16T22:00:00-00:00 2.68 0.0477 SRUS55 KGJT 162224 PAB HMLGJT primaryUnits="ft" pedts="HGIRG" primaryName="Stage" timezone="UTC" secondaryUnits="kcfs" secondaryName="Flow"> 2022-08-16T21:15:00-00:00 1.17 0.148 2022-08-16T21:30:00-00:00 1.17 0.148 2022-08-16T21:45:00-00:00 1.16 0.145 2022-08-16T22:00:00-00:00 1.16 0.145 2.0 Experimental not manually quality-controlled 2022-08-16T21:15:00-00:00 1.21 0.0254 2022-08-16T21:30:00-00:00 1.21 0.0254 2022-08-16T21:45:00-00:00 1.21 0.0254 2022-08-16T22:00:00-00:00 1.21 0.0254 2.0 Experimental not manually quality-controlled 2022-08-16T21:15:00-00:00 5914.36 -999 2022-08-16T21:30:00-00:00 5914.35 -999 2022-08-16T21:45:00-00:00 5914.36 -999 2022-08-16T22:00:00-00:00 5914.36 -999 2.0 Experimental not manually quality-controlled 2022-08-16T21:30:00-00:00 7750.99 88.1 2022-08-16T21:45:00-00:00 7750.98 88.1 2022-08-16T22:00:00-00:00 7750.98 88.1 2022-08-16T22:15:00-00:00 7750.97 88.1 2.0 Experimental not manually quality-controlled 2022-08-16T21:15:00-00:00 6.05 0.671 2022-08-16T21:30:00-00:00 6.05 0.671 2022-08-16T21:45:00-00:00 6.05 0.671 2022-08-16T22:00:00-00:00 6.04 0.662 2.0 Experimental not manually quality-controlled 2022-08-16T21:10:00-00:00 4.34 0.15 2022-08-16T21:15:00-00:00 4.39 0.162 2022-08-16T21:20:00-00:00 4.37 0.157 2022-08-16T21:25:00-00:00 4.38 0.159 2022-08-16T21:30:00-00:00 4.39 0.162 2022-08-16T21:35:00-00:00 4.38 0.159 2022-08-16T21:40:00-00:00 4.36 0.155 2022-08-16T21:45:00-00:00 4.36 0.155 2022-08-16T21:50:00-00:00 4.39 0.162 2022-08-16T21:55:00-00:00 4.37 0.157 2022-08-16T22:00:00-00:00 4.37 0.157 2022-08-16T22:05:00-00:00 4.38 0.159 2.0 Experimental not manually quality-controlled 2022-08-16T21:30:00-00:00 1.33 0.126 2022-08-16T21:45:00-00:00 1.33 0.126 2022-08-16T22:00:00-00:00 1.33 0.126 2022-08-16T22:15:00-00:00 1.34 0.128 2.0 Experimental not manually quality-controlled 2022-08-16T21:15:00-00:00 1.4 0.0633 2022-08-16T21:30:00-00:00 1.4 0.0633 2022-08-16T21:45:00-00:00 1.4 0.0633 2022-08-16T22:00:00-00:00 1.4 0.0633 2.0 Experimental not manually quality-controlled 2022-08-16T21:15:00-00:00 4.14 0.226 2022-08-16T21:30:00-00:00 4.17 0.235 2022-08-16T21:45:00-00:00 4.15 0.229 2022-08-16T22:00:00-00:00 4.16 0.232 2.0 Experimental not manually quality-controlled 2022-08-16T21:15:00-00:00 2.2 0.106 2022-08-16T21:30:00-00:00 2.2 0.106 2022-08-16T21:45:00-00:00 2.21 0.108 2022-08-16T22:00:00-00:00 2.21 0.108 2.0 Experimental not manually quality-controlled 2022-08-16T21:30:00-00:00 2.94 0.139 2022-08-16T21:45:00-00:00 2.94 0.139 2022-08-16T22:00:00-00:00 2.94 0.139 2022-08-16T22:15:00-00:00 2.94 0.139 2.0 Experimental not manually quality-controlled 2022-08-16T22:15:00-00:00 4.43 2.49 2.0 Experimental not manually quality-controlled 2022-08-16T21:30:00-00:00 1.08 0.15 2022-08-16T21:45:00-00:00 1.09 0.152 2022-08-16T22:00:00-00:00 1.09 0.152 2022-08-16T22:15:00-00:00 1.09 0.152 2.0 Experimental not manually quality-controlled 2022-08-16T21:30:00-00:00 4.18 0.228 2022-08-16T21:45:00-00:00 4.18 0.228 2022-08-16T22:00:00-00:00 4.18 0.228 2022-08-16T22:15:00-00:00 4.17 0.225 2.0 Experimental not manually quality-controlled 2022-08-16T21:30:00-00:00 1.96 0.134 2022-08-16T21:45:00-00:00 1.95 0.132 2022-08-16T22:00:00-00:00 1.95 0.132 2022-08-16T22:15:00-00:00 1.95 0.132 2.0 Experimental not manually quality-controlled 2022-08-16T21:30:00-00:00 1.84 0.725 2022-08-16T21:45:00-00:00 1.84 0.725 2022-08-16T22:00:00-00:00 1.84 0.725 2022-08-16T22:15:00-00:00 1.83 0.718 2.0 Experimental not manually quality-controlled 2022-08-16T21:30:00-00:00 2.38 0.0014 2022-08-16T21:45:00-00:00 2.38 0.0014 2022-08-16T22:00:00-00:00 2.39 0.0014 2022-08-16T22:15:00-00:00 2.39 0.0014 2.0 Experimental not manually quality-controlled 2022-08-16T21:30:00-00:00 1.84 0.047 2022-08-16T21:45:00-00:00 1.84 0.047 2022-08-16T22:00:00-00:00 1.84 0.047 2022-08-16T22:15:00-00:00 1.84 0.047 2.0 Experimental not manually quality-controlled 2022-08-16T21:30:00-00:00 4.81 2.94 2022-08-16T21:45:00-00:00 4.79 2.9 2022-08-16T22:00:00-00:00 4.76 2.84 2022-08-16T22:15:00-00:00 4.75 2.82 2.0 Experimental not manually quality-controlled 2022-08-16T22:15:00-00:00 2.47 0.551 2.0 Experimental not manually quality-controlled 2022-08-16T21:30:00-00:00 6 0.0773 2022-08-16T21:45:00-00:00 6.03 0.0808 2022-08-16T22:00:00-00:00 6.02 0.0796 2022-08-16T22:15:00-00:00 5.98 0.0751 2.0 Experimental not manually quality-controlled SRUS55 KGJT 162239 PZB HMLGJT 2022-08-16T21:30:00-00:00 4.74 0.448 2022-08-16T21:45:00-00:00 4.73 0.441 2022-08-16T22:00:00-00:00 4.73 0.441 2022-08-16T22:15:00-00:00 4.76 0.462 2.0 Experimental not manually quality-controlled 2022-08-16T21:30:00-00:00 1.44 -999 2022-08-16T21:45:00-00:00 1.44 -999 2022-08-16T22:00:00-00:00 1.44 -999 2022-08-16T22:15:00-00:00 1.44 -999 2.0 Experimental not manually quality-controlled 2022-08-16T21:30:00-00:00 0.81 0.0099 2022-08-16T21:45:00-00:00 0.81 0.0099 2022-08-16T22:00:00-00:00 0.8 0.0094 2022-08-16T22:15:00-00:00 0.79 0.0089 2.0 Experimental not manually quality-controlled 2022-08-16T21:45:00-00:00 3.47 0.0151 2022-08-16T22:00:00-00:00 3.47 0.0151 2022-08-16T22:15:00-00:00 3.46 0.0146 2022-08-16T22:30:00-00:00 3.46 0.0146 2.0 Experimental not manually quality-controlled 2022-08-16T21:30:00-00:00 1.29 0.0651 2022-08-16T21:45:00-00:00 1.32 0.0709 2022-08-16T22:00:00-00:00 1.33 0.0729 2022-08-16T22:15:00-00:00 1.3 0.067 2.0 Experimental not manually quality-controlled 2022-08-16T21:30:00-00:00 2.88 0.0225 2022-08-16T21:45:00-00:00 2.88 0.0225 2022-08-16T22:00:00-00:00 2.88 0.0225 2022-08-16T22:15:00-00:00 2.88 0.0225 2.0 Experimental not manually quality-controlled 2022-08-16T21:30:00-00:00 2.07 0.259 2022-08-16T21:45:00-00:00 2.07 0.259 2022-08-16T22:00:00-00:00 2.08 0.263 2022-08-16T22:15:00-00:00 2.07 0.259 2.0 Experimental not manually quality-controlled 2022-08-16T21:30:00-00:00 1.99 0.253 2022-08-16T21:45:00-00:00 1.99 0.253 2022-08-16T22:00:00-00:00 1.99 0.253 2022-08-16T22:15:00-00:00 1.98 0.248 2.0 Experimental not manually quality-controlled 2022-08-16T22:15:00-00:00 2.36 0.208 2.0 Experimental not manually quality-controlled 2022-08-16T21:30:00-00:00 1.56 0.104 2022-08-16T21:45:00-00:00 1.56 0.104 2022-08-16T22:00:00-00:00 1.56 0.104 2022-08-16T22:15:00-00:00 1.56 0.104 SRUS55 KGJT 162254 PZC HMLGJT "> 2.0 Experimental not manually quality-controlled 2022-08-16T22:00:00-00:00 4.26 0.0479 2022-08-16T22:15:00-00:00 4.26 0.0479 2022-08-16T22:30:00-00:00 4.26 0.0479 2022-08-16T22:45:00-00:00 4.26 0.0479 2.0 Experimental not manually quality-controlled 2022-08-16T22:00:00-00:00 1.38 0.0772 2022-08-16T22:15:00-00:00 1.38 0.0772 2022-08-16T22:30:00-00:00 1.38 0.0772 2022-08-16T22:45:00-00:00 1.38 0.0772 2.0 Experimental not manually quality-controlled 2022-08-16T21:45:00-00:00 4.06 0.197 2022-08-16T22:00:00-00:00 4.05 0.195 2022-08-16T22:15:00-00:00 4.05 0.195 2022-08-16T22:30:00-00:00 4.05 0.195 2.0 Experimental not manually quality-controlled 2022-08-16T22:00:00-00:00 2.39 0.116 2022-08-16T22:15:00-00:00 2.4 0.119 2022-08-16T22:30:00-00:00 2.39 0.116 2022-08-16T22:45:00-00:00 2.4 0.119 2.0 Experimental not manually quality-controlled 2022-08-16T22:00:00-00:00 2.39 0.052 2022-08-16T22:15:00-00:00 2.39 0.052 2022-08-16T22:30:00-00:00 2.39 0.052 2022-08-16T22:45:00-00:00 2.39 0.052 SRUS55 KGJT 162254 PAB HMLGJT 2022-08-16T22:15:00-00:00 2.66 0.111 2022-08-16T22:30:00-00:00 2.66 0.111 2.0 Experimental not manually quality-controlled 2022-08-16T22:30:00-00:00 2.47 0.551 2.0 Experimental not manually quality-controlled 2022-08-16T21:45:00-00:00 2.91 1.11 2022-08-16T22:00:00-00:00 2.91 1.11 2022-08-16T22:15:00-00:00 2.91 1.11 2022-08-16T22:30:00-00:00 2.91 1.11 2.0 Experimental not manually quality-controlled 2022-08-16T22:00:00-00:00 5.27 0.0501 2022-08-16T22:15:00-00:00 5.28 0.0507 2022-08-16T22:30:00-00:00 5.31 0.0527 2022-08-16T22:45:00-00:00 5.33 0.054 2.0 Experimental not manually quality-controlled 2022-08-16T21:45:00-00:00 9.51 2.08 2022-08-16T22:00:00-00:00 9.51 2.08 2022-08-16T22:15:00-00:00 9.52 2.09 2022-08-16T22:30:00-00:00 9.53 2.1 2.0 Experimental not manually quality-controlled 2022-08-16T21:45:00-00:00 2.54 1.83 2022-08-16T22:00:00-00:00 2.54 1.83 2022-08-16T22:15:00-00:00 2.55 1.85 2022-08-16T22:30:00-00:00 2.55 1.85 2.0 Experimental not manually quality-controlled 2022-08-16T21:45:00-00:00 4.52 0.156 2022-08-16T22:00:00-00:00 4.52 0.156 2022-08-16T22:15:00-00:00 4.52 0.156 2022-08-16T22:30:00-00:00 4.52 0.156 2.0 Experimental not manually quality-controlled 2022-08-16T22:00:00-00:00 2.89 0.0253 2022-08-16T22:15:00-00:00 2.9 0.0262 2022-08-16T22:30:00-00:00 2.9 0.0262 2022-08-16T22:45:00-00:00 2.9 0.0262 2.0 Experimental not manually quality-controlled 2022-08-16T22:00:00-00:00 0.97 0.017 2022-08-16T22:15:00-00:00 0.97 0.017 2022-08-16T22:30:00-00:00 0.97 0.017 2.0 Experimental not manually quality-controlled 2022-08-16T21:45:00-00:00 2.8 0.0516 2022-08-16T22:00:00-00:00 2.8 0.0516 2022-08-16T22:15:00-00:00 2.8 0.0516 2022-08-16T22:30:00-00:00 2.81 0.053 2.0 Experimental not manually quality-controlled 2022-08-16T21:45:00-00:00 1.77 0.164 2022-08-16T22:00:00-00:00 1.78 0.166 2022-08-16T22:15:00-00:00 1.77 0.164 2022-08-16T22:30:00-00:00 1.78 0.166 2.0 Experimental not manually quality-controlled 2022-08-16T22:30:00-00:00 2.36 0.208 2.0 Experimental not manually quality-controlled 2022-08-16T21:45:00-00:00 1.04 0.0593 2022-08-16T22:00:00-00:00 1.04 0.0593 2022-08-16T22:15:00-00:00 1.05 0.0607 2022-08-16T22:30:00-00:00 1.05 0.0607 2.0 Experimental not manually quality-controlled 2022-08-16T21:45:00-00:00 7.53 2.26 2022-08-16T22:00:00-00:00 7.52 2.25 2022-08-16T22:15:00-00:00 7.51 2.24 2022-08-16T22:30:00-00:00 7.49 2.22 2.0 Experimental not manually quality-controlled 2022-08-16T22:30:00-00:00 4.44 2.51 2.0 Experimental not manually quality-controlled 2022-08-16T22:00:00-00:00 3.63 3.35 2022-08-16T22:15:00-00:00 3.65 3.38 2022-08-16T22:30:00-00:00 3.68 3.44 2022-08-16T22:45:00-00:00 3.71 3.49 2.0 Experimental not manually quality-controlled 2022-08-16T22:00:00-00:00 2.63 0.167 2022-08-16T22:15:00-00:00 2.64 0.169 2022-08-16T22:30:00-00:00 2.64 0.169 2022-08-16T22:45:00-00:00 2.64 0.169 2.0 Experimental not manually quality-controlled 2022-08-16T21:45:00-00:00 2.61 0.372 2022-08-16T22:00:00-00:00 2.62 0.378 2022-08-16T22:15:00-00:00 2.62 0.378 2022-08-16T22:30:00-00:00 2.62 0.378 2.0 Experimental not manually quality-controlled 2022-08-16T22:00:00-00:00 0.63 0.026 2022-08-16T22:15:00-00:00 0.63 0.026 2022-08-16T22:30:00-00:00 0.63 0.026 2022-08-16T22:45:00-00:00 0.63 0.026 2.0 Experimental not manually quality-controlled 2022-08-16T22:00:00-00:00 1.9 0.0708 2022-08-16T22:15:00-00:00 1.9 0.0708 2022-08-16T22:30:00-00:00 1.91 0.072 2022-08-16T22:45:00-00:00 1.9 0.0708 2.0 Experimental not manually quality-controlled 2022-08-16T21:45:00-00:00 1.91 0.119 2022-08-16T22:00:00-00:00 1.88 0.112 2022-08-16T22:15:00-00:00 1.9 0.117 2022-08-16T22:30:00-00:00 1.9 0.117 2.0 Experimental not manually quality-controlled 2022-08-16T21:45:00-00:00 2.32 0.0933 2022-08-16T22:00:00-00:00 2.31 0.0916 2022-08-16T22:02:00-00:00 2.31 0.0916 2022-08-16T22:15:00-00:00 2.31 0.0916 2022-08-16T22:17:00-00:00 2.31 0.0916 2022-08-16T22:30:00-00:00 2.31 0.0916 2022-08-16T22:32:00-00:00 2.31 0.0916 2.0 Experimental not manually quality-controlled 2022-08-16T21:45:00-00:00 2.66 0.111 2022-08-16T22:00:00-00:00 2.66 0.111 SRUS55 KGJT 162300 RR3GJT WxCoder .A ROSU1 220816 M DH1700/TX 91/TN 57/TA 90/PP 0.00 .A1 SF 0.0/SD 0/DC2208161656 SRUS55 KGJT 162309 PAB HMLGJT 2022-08-16T22:00:00-00:00 3.33 0.0389 2022-08-16T22:15:00-00:00 3.34 0.0399 2022-08-16T22:30:00-00:00 3.33 0.0389 2022-08-16T22:45:00-00:00 3.33 0.0389 2.0 Experimental not manually quality-controlled 2022-08-16T21:45:00-00:00 -9999 -999 2022-08-16T22:00:00-00:00 -9999 -999 2022-08-16T22:15:00-00:00 -9999 -999 2022-08-16T22:30:00-00:00 -9999 -999 2.0 Experimental not manually quality-controlled 2022-08-16T22:00:00-00:00 5.31 0.0292 2022-08-16T22:15:00-00:00 5.31 0.0292 2022-08-16T22:30:00-00:00 5.31 0.0292 2022-08-16T22:45:00-00:00 5.31 0.0292 2.0 Experimental not manually quality-controlled 2022-08-16T22:00:00-00:00 1.38 0.0532 2022-08-16T22:15:00-00:00 1.38 0.0532 2022-08-16T22:30:00-00:00 1.38 0.0532 2022-08-16T22:45:00-00:00 1.38 0.0532 2.0 Experimental not manually quality-controlled 2022-08-16T22:00:00-00:00 4.02 0 2022-08-16T22:15:00-00:00 4.02 0 2022-08-16T22:30:00-00:00 4.01 0 2022-08-16T22:45:00-00:00 4.01 0 2.0 Experimental not manually quality-controlled 2022-08-16T22:15:00-00:00 1.16 0.145 2022-08-16T22:30:00-00:00 1.16 0.145 2022-08-16T22:45:00-00:00 1.16 0.145 2022-08-16T23:00:00-00:00 1.16 0.145 2.0 Experimental not manually quality-controlled 2022-08-16T22:00:00-00:00 2.89 0.0253 2022-08-16T22:15:00-00:00 2.9 0.0262 2022-08-16T22:30:00-00:00 2.9 0.0262 2022-08-16T22:45:00-00:00 2.9 0.0262 2.0 Experimental not manually quality-controlled 2022-08-16T22:15:00-00:00 1.21 0.0254 2022-08-16T22:30:00-00:00 1.21 0.0254 2022-08-16T22:45:00-00:00 1.21 0.0254 2022-08-16T23:00:00-00:00 1.21 0.0254 2.0 Experimental not manually quality-controlled 2022-08-16T22:15:00-00:00 5914.36 -999 2022-08-16T22:30:00-00:00 5914.35 -999 2022-08-16T22:45:00-00:00 5914.36 -999 2022-08-16T23:00:00-00:00 5914.36 -999 2.0 Experimental not manually quality-controlled 2022-08-16T22:45:00-00:00 2.36 0.208 2.0 Experimental not manually quality-controlled 2022-08-16T22:00:00-00:00 4.26 0.0479 2022-08-16T22:15:00-00:00 4.26 0.0479 2022-08-16T22:30:00-00:00 4.26 0.0479 2022-08-16T22:45:00-00:00 4.26 0.0479 2.0 Experimental not manually quality-controlled 2.0 Experimental not manually quality-controlled 2022-08-16T22:45:00-00:00 4.45 2.53 2.0 Experimental not manually quality-controlled 2022-08-16T22:00:00-00:00 3.63 3.35 2022-08-16T22:15:00-00:00 3.65 3.38 2022-08-16T22:30:00-00:00 3.68 3.44 2022-08-16T22:45:00-00:00 3.71 3.49 2.0 Experimental not manually quality-controlled 2022-08-16T22:15:00-00:00 2.42 0.037 2022-08-16T22:30:00-00:00 2.42 0.037 2022-08-16T22:45:00-00:00 2.41 0.036 2022-08-16T23:00:00-00:00 2.4 0.0351 2.0 Experimental not manually quality-controlled 2022-08-16T22:00:00-00:00 2.63 0.167 2022-08-16T22:15:00-00:00 2.64 0.169 2022-08-16T22:30:00-00:00 2.64 0.169 2022-08-16T22:45:00-00:00 2.64 0.169 2.0 Experimental not manually quality-controlled 2022-08-16T22:00:00-00:00 6.98 0.105 2022-08-16T22:15:00-00:00 6.98 0.105 2022-08-16T22:30:00-00:00 6.98 0.105 2022-08-16T22:45:00-00:00 6.98 0.105 2.0 Experimental not manually quality-controlled 2022-08-16T22:00:00-00:00 1.9 0.0708 2022-08-16T22:15:00-00:00 1.9 0.0708 2022-08-16T22:30:00-00:00 1.91 0.072 2022-08-16T22:45:00-00:00 1.9 0.0708 2.0 Experimental not manually quality-controlled 2022-08-16T22:15:00-00:00 3.22 1.82 2022-08-16T22:30:00-00:00 3.24 1.84 2022-08-16T22:45:00-00:00 3.24 1.84 2022-08-16T23:00:00-00:00 3.25 1.85 2.0 Experimental not manually quality-controlled 2022-08-16T22:45:00-00:00 2.47 0.551 2.0 Experimental not manually quality-controlled 2022-08-16T22:00:00-00:00 5.27 0.0501 2022-08-16T22:15:00-00:00 5.28 0.0507 2022-08-16T22:30:00-00:00 5.31 0.0527 2022-08-16T22:45:00-00:00 5.33 0.054 2.0 Experimental not manually quality-controlled 2022-08-16T22:00:00-00:00 2.39 0.923 2022-08-16T22:15:00-00:00 2.4 0.93 2022-08-16T22:30:00-00:00 2.39 0.923 2022-08-16T22:45:00-00:00 2.4 0.93 2.0 Experimental not manually quality-controlled 2022-08-16T22:00:00-00:00 3.07 0.499 2022-08-16T22:15:00-00:00 3.07 0.499 2022-08-16T22:30:00-00:00 3.07 0.499 2022-08-16T22:45:00-00:00 3.07 0.499 2.0 Experimental not manually quality-controlled SRUS55 KGJT 162309 PZC HMLGJT primaryName="Stage" timezone="UTC" secondaryUnits="kcfs" secondaryName="Flow"> 2022-08-16T22:00:00-00:00 1.38 0.0772 2022-08-16T22:15:00-00:00 1.38 0.0772 2022-08-16T22:30:00-00:00 1.38 0.0772 2022-08-16T22:45:00-00:00 1.38 0.0772 2.0 Experimental not manually quality-controlled 2022-08-16T22:00:00-00:00 1.73 0.161 2022-08-16T22:15:00-00:00 1.73 0.161 2022-08-16T22:30:00-00:00 1.72 0.158 2022-08-16T22:45:00-00:00 1.72 0.158 2.0 Experimental not manually quality-controlled 2022-08-16T22:00:00-00:00 2.17 0.122 2022-08-16T22:15:00-00:00 2.16 0.12 2022-08-16T22:30:00-00:00 2.16 0.12 2022-08-16T22:45:00-00:00 2.16 0.12 2.0 Experimental not manually quality-controlled 2022-08-16T22:00:00-00:00 2.39 0.052 2022-08-16T22:15:00-00:00 2.39 0.052 2022-08-16T22:30:00-00:00 2.39 0.052 2022-08-16T22:45:00-00:00 2.39 0.052 SRUS55 KGJT 162315 RR3GJT WxCoder .A MOAU1 220816 M DH1600/TX 89/TN 66/TA 77/PP 0.04 .A1 SF 0.0/SD 0/DC2208161711 SRUS55 KGJT 162324 PZC HMLGJT d"> 2.0 Experimental not manually quality-controlled 2022-08-16T23:00:00-00:00 2.36 0.208 2.0 Experimental not manually quality-controlled 2022-08-16T22:15:00-00:00 7640.69 66.5 2022-08-16T22:30:00-00:00 7640.69 66.5 2022-08-16T22:45:00-00:00 7640.69 66.5 2022-08-16T23:00:00-00:00 7640.69 66.5 2.0 Experimental not manually quality-controlled 2022-08-16T22:15:00-00:00 1.96 0.14 2022-08-16T22:30:00-00:00 1.96 0.14 2022-08-16T22:45:00-00:00 1.95 0.138 2022-08-16T23:00:00-00:00 1.95 0.138 2.0 Experimental not manually quality-controlled 2022-08-16T22:15:00-00:00 2.69 0.0485 2022-08-16T22:30:00-00:00 2.68 0.0477 2022-08-16T22:45:00-00:00 2.68 0.0477 2022-08-16T23:00:00-00:00 2.68 0.0477 SRUS55 KGJT 162324 PAB HMLGJT ryUnits="ft" pedts="HGIRG" primaryName="Stage" timezone="UTC" secondaryUnits="kcfs" secondaryName="Flow"> 2022-08-16T22:15:00-00:00 1.16 0.145 2022-08-16T22:30:00-00:00 1.16 0.145 2022-08-16T22:45:00-00:00 1.16 0.145 2022-08-16T23:00:00-00:00 1.16 0.145 2.0 Experimental not manually quality-controlled 2022-08-16T22:15:00-00:00 1.21 0.0254 2022-08-16T22:30:00-00:00 1.21 0.0254 2022-08-16T22:45:00-00:00 1.21 0.0254 2022-08-16T23:00:00-00:00 1.21 0.0254 2.0 Experimental not manually quality-controlled 2022-08-16T22:15:00-00:00 5914.36 -999 2022-08-16T22:30:00-00:00 5914.35 -999 2022-08-16T22:45:00-00:00 5914.36 -999 2022-08-16T23:00:00-00:00 5914.36 -999 2.0 Experimental not manually quality-controlled 2022-08-16T22:30:00-00:00 7750.97 88.1 2022-08-16T22:45:00-00:00 7750.97 88.1 2022-08-16T23:00:00-00:00 7750.98 88.1 2022-08-16T23:15:00-00:00 7750.98 88.1 2.0 Experimental not manually quality-controlled 2022-08-16T22:15:00-00:00 6.04 0.662 2022-08-16T22:30:00-00:00 6.03 0.654 2022-08-16T22:45:00-00:00 6.02 0.645 2022-08-16T23:00:00-00:00 6.02 0.645 2.0 Experimental not manually quality-controlled 2022-08-16T22:10:00-00:00 4.38 0.159 2022-08-16T22:15:00-00:00 4.38 0.159 2022-08-16T22:20:00-00:00 4.38 0.159 2022-08-16T22:25:00-00:00 4.38 0.159 2022-08-16T22:30:00-00:00 4.38 0.159 2022-08-16T22:35:00-00:00 4.4 0.164 2022-08-16T22:40:00-00:00 4.37 0.157 2022-08-16T22:45:00-00:00 4.4 0.164 2022-08-16T22:50:00-00:00 4.39 0.162 2022-08-16T22:55:00-00:00 4.38 0.159 2022-08-16T23:00:00-00:00 4.38 0.159 2022-08-16T23:05:00-00:00 4.41 0.166 2.0 Experimental not manually quality-controlled 2022-08-16T22:30:00-00:00 1.34 0.128 2022-08-16T22:45:00-00:00 1.34 0.128 2022-08-16T23:00:00-00:00 1.34 0.128 2022-08-16T23:15:00-00:00 1.34 0.128 2.0 Experimental not manually quality-controlled 2022-08-16T22:15:00-00:00 1.4 0.0633 2022-08-16T22:30:00-00:00 1.4 0.0633 2022-08-16T22:45:00-00:00 1.41 0.0646 2022-08-16T23:00:00-00:00 1.41 0.0646 2.0 Experimental not manually quality-controlled 2022-08-16T22:15:00-00:00 4.16 0.232 2022-08-16T22:30:00-00:00 4.16 0.232 2022-08-16T22:45:00-00:00 4.17 0.235 2022-08-16T23:00:00-00:00 4.17 0.235 2.0 Experimental not manually quality-controlled 2022-08-16T22:15:00-00:00 2.21 0.108 2022-08-16T22:30:00-00:00 2.21 0.108 2022-08-16T22:45:00-00:00 2.21 0.108 2022-08-16T23:00:00-00:00 2.21 0.108 2.0 Experimental not manually quality-controlled 2022-08-16T22:30:00-00:00 2.06 0.296 2022-08-16T22:45:00-00:00 2.05 0.292 2022-08-16T23:00:00-00:00 2.05 0.292 2022-08-16T23:15:00-00:00 2.05 0.292 2.0 Experimental not manually quality-controlled 2022-08-16T23:00:00-00:00 4.46 2.54 2.0 Experimental not manually quality-controlled 2022-08-16T22:15:00-00:00 2.27 2.94 2022-08-16T22:30:00-00:00 2.27 2.94 2022-08-16T22:45:00-00:00 2.27 2.94 2022-08-16T23:00:00-00:00 2.27 2.94 2.0 Experimental not manually quality-controlled 2022-08-16T22:15:00-00:00 3.05 0.0524 2022-08-16T22:30:00-00:00 3.04 0.0512 2022-08-16T22:45:00-00:00 3.05 0.0524 2022-08-16T23:00:00-00:00 3.04 0.0512 2.0 Experimental not manually quality-controlled 2022-08-16T22:15:00-00:00 5.21 0.079 2022-08-16T22:30:00-00:00 5.21 0.079 2022-08-16T22:45:00-00:00 5.2 0.0776 2022-08-16T23:00:00-00:00 5.2 0.0776 2.0 Experimental not manually quality-controlled 2022-08-16T22:15:00-00:00 3.22 1.82 2022-08-16T22:30:00-00:00 3.24 1.84 2022-08-16T22:45:00-00:00 3.24 1.84 2022-08-16T23:00:00-00:00 3.25 1.85 2.0 Experimental not manually quality-controlled 2022-08-16T23:00:00-00:00 2.47 0.551 2.0 Experimental not manually quality-controlled 2022-08-16T22:30:00-00:00 1.43 0.502 2022-08-16T22:45:00-00:00 1.44 0.511 2022-08-16T23:00:00-00:00 1.45 0.52 2022-08-16T23:15:00-00:00 1.47 0.538 2.0 Experimental not manually quality-controlled 2022-08-16T22:15:00-00:00 3.8 0.0247 2022-08-16T22:30:00-00:00 3.8 0.0247 2022-08-16T22:45:00-00:00 3.8 0.0247 2022-08-16T23:00:00-00:00 3.79 0.024 2.0 Experimental not manually quality-controlled 2022-08-16T22:15:00-00:00 2.47 0.083 2022-08-16T22:30:00-00:00 2.47 0.083 2022-08-16T22:45:00-00:00 2.46 0.0815 2022-08-16T23:00:00-00:00 2.45 0.08 2.0 Experimental not manually quality-controlled 2022-08-16T22:15:00-00:00 4.05 0.15 2022-08-16T22:30:00-00:00 4.05 0.15 2022-08-16T22:45:00-00:00 4.05 0.15 2022-08-16T23:00:00-00:00 4.04 0.148 2.0 Experimental not manually quality-controlled 2.0 Experimental not manually quality-controlled 2022-08-16T22:30:00-00:00 4.76 0.462 2022-08-16T22:45:00-00:00 4.75 0.455 2022-08-16T23:00:00-00:00 4.75 0.455 2022-08-16T23:15:00-00:00 4.74 0.448 2.0 Experimental not manually quality-controlled 2022-08-16T22:30:00-00:00 1.44 -999 2022-08-16T22:45:00-00:00 1.44 -999 2022-08-16T23:00:00-00:00 1.44 -999 2022-08-16T23:15:00-00:00 1.44 -999 2.0 Experimental not manually quality-controlled 2022-08-16T22:30:00-00:00 0.79 0.0089 2022-08-16T22:45:00-00:00 0.79 0.0089 2022-08-16T23:00:00-00:00 0.77 0.008 2022-08-16T23:15:00-00:00 0.78 0.0084 2.0 Experimental not manually quality-controlled 2022-08-16T22:45:00-00:00 3.46 0.0146 2022-08-16T23:00:00-00:00 3.46 0.0146 2022-08-16T23:15:00-00:00 3.46 0.0146 2022-08-16T23:30:00-00:00 3.46 0.0146 2.0 Experimental not manually quality-controlled 2022-08-16T22:30:00-00:00 1.33 0.0729 2022-08-16T22:45:00-00:00 1.31 0.0689 2022-08-16T23:00:00-00:00 1.35 0.077 2022-08-16T23:15:00-00:00 1.33 0.0729 2.0 Experimental not manually quality-controlled 2022-08-16T22:30:00-00:00 2.88 0.0225 2022-08-16T22:45:00-00:00 2.89 0.023 2022-08-16T23:00:00-00:00 2.9 0.0235 2022-08-16T23:15:00-00:00 2.9 0.0235 2.0 Experimental not manually quality-controlled 2022-08-16T22:30:00-00:00 2.07 0.259 2022-08-16T22:45:00-00:00 2.08 0.263 2022-08-16T23:00:00-00:00 2.07 0.259 2022-08-16T23:15:00-00:00 2.08 0.263 2.0 Experimental not manually quality-controlled 2022-08-16T22:30:00-00:00 1.98 0.248 2022-08-16T22:45:00-00:00 1.98 0.248 2022-08-16T23:00:00-00:00 1.98 0.248 2022-08-16T23:15:00-00:00 1.98 0.248 2.0 Experimental not manually quality-controlled 2022-08-16T22:30:00-00:00 1.34 0.128 2022-08-16T22:45:00-00:00 1.34 0.128 2022-08-16T23:00:00-00:00 1.34 0.128 2022-08-16T23:15:00-00:00 1.34 0.128 2.0 Experimental not manually quality-controlled 2022-08-16T23:15:00-00:00 2.36 0.208 2.0 Experimental not manually quality-controlled 2022-08-16T22:30:00-00:00 1.56 0.104 2022-08-16T22:45:00-00:00 1.55 0.102 2022-08-16T23:00:00-00:00 1.55 0.102 2022-08-16T23:15:00-00:00 1.55 0.102 SRUS55 KGJT 162339 PAA HMLGJT 2.0 Experimental not manually quality-controlled 2022-08-16T22:30:00-00:00 2.94 0.139 2022-08-16T22:45:00-00:00 2.94 0.139 2022-08-16T23:00:00-00:00 2.94 0.139 2022-08-16T23:15:00-00:00 2.94 0.139 2.0 Experimental not manually quality-controlled 2022-08-16T23:15:00-00:00 4.47 2.56 2.0 Experimental not manually quality-controlled 2022-08-16T22:30:00-00:00 1.09 0.152 2022-08-16T22:45:00-00:00 1.09 0.152 2022-08-16T23:00:00-00:00 1.08 0.15 2022-08-16T23:15:00-00:00 1.08 0.15 2.0 Experimental not manually quality-controlled 2022-08-16T22:30:00-00:00 4.17 0.225 2022-08-16T22:45:00-00:00 4.16 0.222 2022-08-16T23:00:00-00:00 4.16 0.222 2022-08-16T23:15:00-00:00 4.15 0.22 2.0 Experimental not manually quality-controlled 2022-08-16T22:30:00-00:00 1.95 0.132 2022-08-16T22:45:00-00:00 1.95 0.132 2022-08-16T23:00:00-00:00 1.95 0.132 2022-08-16T23:15:00-00:00 1.95 0.132 2.0 Experimental not manually quality-controlled 2022-08-16T22:30:00-00:00 1.84 0.725 2022-08-16T22:45:00-00:00 1.84 0.725 2022-08-16T23:00:00-00:00 1.85 0.732 2022-08-16T23:15:00-00:00 1.86 0.74 2.0 Experimental not manually quality-controlled 2022-08-16T22:30:00-00:00 2.39 0.0014 2022-08-16T22:45:00-00:00 2.39 0.0014 2022-08-16T23:00:00-00:00 2.39 0.0014 2022-08-16T23:15:00-00:00 2.38 0.0014 2.0 Experimental not manually quality-controlled 2022-08-16T22:30:00-00:00 1.84 0.047 2022-08-16T22:45:00-00:00 1.84 0.047 2022-08-16T23:00:00-00:00 1.83 0.0457 2022-08-16T23:01:00-00:00 1.83 0.0457 2022-08-16T23:15:00-00:00 1.83 0.0457 2022-08-16T23:16:00-00:00 1.83 0.0457 2022-08-16T23:31:00-00:00 1.83 0.0457 2.0 Experimental not manually quality-controlled 2022-08-16T22:30:00-00:00 4.74 2.8 2022-08-16T22:45:00-00:00 4.72 2.77 2022-08-16T23:00:00-00:00 4.71 2.75 2022-08-16T23:15:00-00:00 4.72 2.77 2.0 Experimental not manually quality-controlled 2022-08-16T23:15:00-00:00 2.47 0.551 2.0 Experimental not manually quality-controlled 2022-08-16T22:30:00-00:00 5.96 0.073 2022-08-16T22:45:00-00:00 5.95 0.072 2022-08-16T23:00:00-00:00 5.95 0.072 2022-08-16T23:15:00-00:00 5.94 0.0709 2.0 Experimental not manually quality-controlled 2022-08-16T23:30:00-00:00 2.47 0.551 2.0 Experimental not manually quality-controlled 2022-08-16T22:45:00-00:00 2.92 1.12 2022-08-16T23:00:00-00:00 2.92 1.12 2022-08-16T23:15:00-00:00 2.92 1.12 2022-08-16T23:30:00-00:00 2.91 1.11 2.0 Experimental not manually quality-controlled 2022-08-16T23:00:00-00:00 5.33 0.054 2022-08-16T23:15:00-00:00 5.33 0.054 2022-08-16T23:30:00-00:00 5.29 0.0514 2022-08-16T23:45:00-00:00 5.28 0.0507 2.0 Experimental not manually quality-controlled 2022-08-16T22:45:00-00:00 9.53 2.1 2022-08-16T23:00:00-00:00 9.54 2.11 2022-08-16T23:15:00-00:00 9.53 2.1 2022-08-16T23:30:00-00:00 9.54 2.11 2.0 Experimental not manually quality-controlled 2022-08-16T22:45:00-00:00 2.56 1.86 2022-08-16T23:00:00-00:00 2.57 1.87 2022-08-16T23:15:00-00:00 2.57 1.87 2022-08-16T23:30:00-00:00 2.6 1.9 2.0 Experimental not manually quality-controlled 2022-08-16T22:45:00-00:00 4.52 0.156 2022-08-16T23:00:00-00:00 4.52 0.156 2022-08-16T23:15:00-00:00 4.52 0.156 2022-08-16T23:30:00-00:00 4.52 0.156 2.0 Experimental not manually quality-controlled 2022-08-16T23:00:00-00:00 2.9 0.0262 2022-08-16T23:15:00-00:00 2.9 0.0262 2022-08-16T23:30:00-00:00 2.92 0.0277 2022-08-16T23:45:00-00:00 2.92 0.0277 2.0 Experimental not manually quality-controlled 2022-08-16T22:45:00-00:00 0.97 0.017 2022-08-16T23:00:00-00:00 0.98 0.0175 2022-08-16T23:15:00-00:00 0.99 0.018 2022-08-16T23:30:00-00:00 0.99 0.018 2.0 Experimental not manually quality-controlled 2022-08-16T22:45:00-00:00 2.8 0.0516 2022-08-16T23:00:00-00:00 2.8 0.0516 2022-08-16T23:15:00-00:00 2.79 0.0503 2022-08-16T23:30:00-00:00 2.79 0.0503 2.0 Experimental not manually quality-controlled 2022-08-16T22:45:00-00:00 1.78 0.166 2022-08-16T23:00:00-00:00 1.78 0.166 2022-08-16T23:15:00-00:00 1.79 0.168 2022-08-16T23:30:00-00:00 1.8 0.17 2.0 Experimental not manually quality-controlled 2022-08-16T23:30:00-00:00 2.36 0.208 2.0 Experimental not manually quality-controlled 2.0 Experimental not manually quality-controlled 2022-08-16T22:45:00-00:00 1.05 0.0607 2022-08-16T23:00:00-00:00 1.05 0.0607 2022-08-16T23:15:00-00:00 1.05 0.0607 2022-08-16T23:30:00-00:00 1.05 0.0607 2.0 Experimental not manually quality-controlled 2022-08-16T22:45:00-00:00 7.48 2.21 2022-08-16T23:00:00-00:00 7.46 2.19 2022-08-16T23:15:00-00:00 7.47 2.2 2022-08-16T23:30:00-00:00 7.44 2.17 2.0 Experimental not manually quality-controlled 2022-08-16T23:30:00-00:00 4.48 2.57 2.0 Experimental not manually quality-controlled 2022-08-16T23:00:00-00:00 3.73 3.53 2022-08-16T23:15:00-00:00 3.76 3.58 2022-08-16T23:30:00-00:00 3.76 3.58 2022-08-16T23:45:00-00:00 3.75 3.56 2.0 Experimental not manually quality-controlled 2022-08-16T23:00:00-00:00 2.65 0.172 2022-08-16T23:15:00-00:00 2.65 0.172 2022-08-16T23:30:00-00:00 2.65 0.172 2022-08-16T23:45:00-00:00 2.65 0.172 2.0 Experimental not manually quality-controlled 2022-08-16T22:45:00-00:00 2.62 0.378 2022-08-16T23:00:00-00:00 2.63 0.384 2022-08-16T23:15:00-00:00 2.63 0.384 2022-08-16T23:30:00-00:00 2.63 0.384 2.0 Experimental not manually quality-controlled 2022-08-16T23:00:00-00:00 0.63 0.026 2022-08-16T23:15:00-00:00 0.63 0.026 2022-08-16T23:30:00-00:00 0.63 0.026 2022-08-16T23:45:00-00:00 0.63 0.026 2.0 Experimental not manually quality-controlled 2022-08-16T23:00:00-00:00 1.91 0.072 2022-08-16T23:15:00-00:00 1.91 0.072 2022-08-16T23:30:00-00:00 1.9 0.0708 2022-08-16T23:45:00-00:00 1.91 0.072 2.0 Experimental not manually quality-controlled 2022-08-16T22:45:00-00:00 1.91 0.119 2022-08-16T23:00:00-00:00 1.88 0.112 2022-08-16T23:15:00-00:00 1.88 0.112 2022-08-16T23:30:00-00:00 1.89 0.115 2.0 Experimental not manually quality-controlled 2022-08-16T22:45:00-00:00 2.31 0.0916 2022-08-16T23:00:00-00:00 2.3 0.09 2022-08-16T23:15:00-00:00 2.3 0.09 2022-08-16T23:30:00-00:00 2.3 0.09 2.0 Experimental not manually quality-controlled 2022-08-16T22:45:00-00:00 2.66 0.111 2022-08-16T23:00:00-00:00 2.66 0.111 2022-08-16T23:15:00-00:00 2.66 0.111 2022-08-16T23:30:00-00:00 2.66 0.111 2022-08-16T23:00:00-00:00 4.26 0.0479 2022-08-16T23:15:00-00:00 4.26 0.0479 2022-08-16T23:30:00-00:00 4.27 0.0489 2022-08-16T23:45:00-00:00 4.27 0.0489 2.0 Experimental not manually quality-controlled 2022-08-16T23:00:00-00:00 1.37 0.0758 2022-08-16T23:15:00-00:00 1.37 0.0758 2022-08-16T23:30:00-00:00 1.37 0.0758 2022-08-16T23:45:00-00:00 1.37 0.0758 2.0 Experimental not manually quality-controlled 2022-08-16T22:45:00-00:00 4.05 0.195 2022-08-16T23:00:00-00:00 4.04 0.192 2022-08-16T23:15:00-00:00 4.05 0.195 2022-08-16T23:30:00-00:00 4.05 0.195 2.0 Experimental not manually quality-controlled 2022-08-16T23:00:00-00:00 2.39 0.116 2022-08-16T23:15:00-00:00 2.4 0.119 2022-08-16T23:30:00-00:00 2.4 0.119 2022-08-16T23:45:00-00:00 2.39 0.116 2.0 Experimental not manually quality-controlled 2022-08-16T23:00:00-00:00 2.39 0.052 2022-08-16T23:15:00-00:00 2.39 0.052 2022-08-16T23:30:00-00:00 2.39 0.052 2022-08-16T23:45:00-00:00 2.39 0.052 SRUS55 KGJT 170009 PZB HMLGJT 2.0 Experimental not manually quality-controlled 2022-08-16T22:45:00-00:00 -9999 -999 2022-08-16T23:00:00-00:00 -9999 -999 2022-08-16T23:15:00-00:00 -9999 -999 2022-08-16T23:30:00-00:00 -9999 -999 2.0 Experimental not manually quality-controlled 2022-08-16T23:00:00-00:00 5.3 0.0283 2022-08-16T23:15:00-00:00 5.3 0.0283 2022-08-16T23:30:00-00:00 5.3 0.0283 2022-08-16T23:45:00-00:00 5.3 0.0283 2.0 Experimental not manually quality-controlled 2022-08-16T23:00:00-00:00 1.38 0.0532 2022-08-16T23:15:00-00:00 1.38 0.0532 2022-08-16T23:30:00-00:00 1.38 0.0532 2022-08-16T23:45:00-00:00 1.38 0.0532 2.0 Experimental not manually quality-controlled 2022-08-16T23:00:00-00:00 4 0 2022-08-16T23:15:00-00:00 4 0 2022-08-16T23:30:00-00:00 3.99 0 2022-08-16T23:45:00-00:00 3.99 0 2.0 Experimental not manually quality-controlled 2022-08-16T23:00:00-00:00 2.9 0.0262 2022-08-16T23:15:00-00:00 2.9 0.0262 2022-08-16T23:30:00-00:00 2.92 0.0277 2022-08-16T23:45:00-00:00 2.92 0.0277 2.0 Experimental not manually quality-controlled 2022-08-16T23:45:00-00:00 2.36 0.208 2.0 Experimental not manually quality-controlled 2022-08-16T23:00:00-00:00 4.26 0.0479 2022-08-16T23:15:00-00:00 4.26 0.0479 2022-08-16T23:30:00-00:00 4.27 0.0489 2022-08-16T23:45:00-00:00 4.27 0.0489 2.0 Experimental not manually quality-controlled 2022-08-16T23:00:00-00:00 1.37 0.0758 2022-08-16T23:15:00-00:00 1.37 0.0758 2022-08-16T23:30:00-00:00 1.37 0.0758 2022-08-16T23:45:00-00:00 1.37 0.0758 2.0 Experimental not manually quality-controlled 2022-08-16T23:00:00-00:00 1.72 0.158 2022-08-16T23:15:00-00:00 1.72 0.158 2022-08-16T23:30:00-00:00 1.72 0.158 2022-08-16T23:45:00-00:00 1.71 0.156 2.0 Experimental not manually quality-controlled 2022-08-16T23:00:00-00:00 2.15 0.117 2022-08-16T23:15:00-00:00 2.16 0.12 2022-08-16T23:30:00-00:00 2.15 0.117 2022-08-16T23:45:00-00:00 2.17 0.122 2.0 Experimental not manually quality-controlled 2022-08-16T23:00:00-00:00 2.39 0.052 2022-08-16T23:15:00-00:00 2.39 0.052 2022-08-16T23:30:00-00:00 2.39 0.052 2022-08-16T23:45:00-00:00 2.39 0.052 SRUS55 KGJT 170009 PAA HMLGJT 2.0 Experimental not manually quality-controlled 2022-08-16T23:45:00-00:00 4.49 2.59 2.0 Experimental not manually quality-controlled 2022-08-16T23:00:00-00:00 3.73 3.53 2022-08-16T23:15:00-00:00 3.76 3.58 2022-08-16T23:30:00-00:00 3.76 3.58 2022-08-16T23:45:00-00:00 3.75 3.56 2.0 Experimental not manually quality-controlled 2022-08-16T23:15:00-00:00 2.4 0.0351 2022-08-16T23:30:00-00:00 2.4 0.0351 2022-08-16T23:45:00-00:00 2.39 0.0342 2022-08-17T00:00:00-00:00 2.38 0.0332 2.0 Experimental not manually quality-controlled 2022-08-16T23:00:00-00:00 2.65 0.172 2022-08-16T23:15:00-00:00 2.65 0.172 2022-08-16T23:30:00-00:00 2.65 0.172 2022-08-16T23:45:00-00:00 2.65 0.172 2.0 Experimental not manually quality-controlled 2022-08-16T23:00:00-00:00 6.99 0.107 2022-08-16T23:15:00-00:00 6.99 0.107 2022-08-16T23:30:00-00:00 7 0.11 2022-08-16T23:45:00-00:00 7 0.11 2.0 Experimental not manually quality-controlled 2022-08-16T23:00:00-00:00 1.91 0.072 2022-08-16T23:15:00-00:00 1.91 0.072 2022-08-16T23:30:00-00:00 1.9 0.0708 2022-08-16T23:45:00-00:00 1.91 0.072 2.0 Experimental not manually quality-controlled 2022-08-16T23:45:00-00:00 2.47 0.551 2.0 Experimental not manually quality-controlled 2022-08-16T23:00:00-00:00 5.33 0.054 2022-08-16T23:15:00-00:00 5.33 0.054 2022-08-16T23:30:00-00:00 5.29 0.0514 2022-08-16T23:45:00-00:00 5.28 0.0507 2.0 Experimental not manually quality-controlled 2022-08-16T23:00:00-00:00 2.39 0.923 2022-08-16T23:15:00-00:00 2.39 0.923 2022-08-16T23:30:00-00:00 2.39 0.923 2022-08-16T23:45:00-00:00 2.38 0.916 2.0 Experimental not manually quality-controlled 2022-08-16T22:00:00-00:00 3.07 0.499 2022-08-16T22:15:00-00:00 3.07 0.499 2022-08-16T22:30:00-00:00 3.07 0.499 2022-08-16T22:45:00-00:00 3.07 0.499 2022-08-16T23:00:00-00:00 3.07 0.499 2022-08-16T23:15:00-00:00 3.07 0.499 2022-08-16T23:30:00-00:00 3.07 0.499 2022-08-16T23:45:00-00:00 3.06 0.493 2.0 Experimental not manually quality-controlled 2022-08-16T23:00:00-00:00 3.33 0.0389 2022-08-16T23:15:00-00:00 3.33 0.0389 2022-08-16T23:30:00-00:00 3.33 0.0389 2022-08-16T23:45:00-00:00 3.33 0.0389 SRUS55 KGJT 170010 RR3GJT WxCoder .A BLFU1 220816 M DH1800/TX 86/TN 65/TA 85/PP 0.27 .A1 SF 0.0/SD 0/DC2208161808 SRUS55 KGJT 170015 RR3GJT WxCoder .A HAYC2 220816 M DH1800/TX 84/TN 54/TA 75/PP 0.00 .A1 SF 0.0/SD 0/DC2208161810 SRUS55 KGJT 170024 PAB HMLGJT primaryUnits="ft" pedts="HGIRG" primaryName="Stage" timezone="UTC" secondaryUnits="kcfs" secondaryName="Flow"> 2022-08-16T23:15:00-00:00 1.16 0.145 2022-08-16T23:30:00-00:00 1.18 0.15 2022-08-16T23:45:00-00:00 1.19 0.153 2022-08-17T00:00:00-00:00 1.19 0.153 2.0 Experimental not manually quality-controlled 2022-08-16T23:15:00-00:00 1.21 0.0254 2022-08-16T23:30:00-00:00 1.21 0.0254 2022-08-16T23:45:00-00:00 1.21 0.0254 2022-08-17T00:00:00-00:00 1.21 0.0254 2.0 Experimental not manually quality-controlled 2022-08-16T23:15:00-00:00 5914.35 -999 2022-08-16T23:30:00-00:00 5914.35 -999 2022-08-16T23:45:00-00:00 5914.35 -999 2022-08-17T00:00:00-00:00 5914.35 -999 2.0 Experimental not manually quality-controlled 2022-08-16T23:30:00-00:00 7750.98 88.1 2022-08-16T23:45:00-00:00 7750.97 88.1 2022-08-17T00:00:00-00:00 7750.97 88.1 2022-08-17T00:15:00-00:00 7750.97 88.1 2.0 Experimental not manually quality-controlled 2022-08-16T23:15:00-00:00 6.03 0.654 2022-08-16T23:30:00-00:00 6.04 0.662 2022-08-16T23:45:00-00:00 6.07 0.688 2022-08-17T00:00:00-00:00 6.1 0.715 2.0 Experimental not manually quality-controlled 2022-08-16T23:10:00-00:00 4.38 0.159 2022-08-16T23:15:00-00:00 4.4 0.164 2022-08-16T23:20:00-00:00 4.4 0.164 2022-08-16T23:25:00-00:00 4.43 0.171 2022-08-16T23:30:00-00:00 4.44 0.173 2022-08-16T23:35:00-00:00 4.45 0.176 2022-08-16T23:40:00-00:00 4.45 0.176 2022-08-16T23:45:00-00:00 4.44 0.173 2022-08-16T23:50:00-00:00 4.47 0.181 2022-08-16T23:55:00-00:00 4.46 0.179 2022-08-17T00:00:00-00:00 4.45 0.176 2022-08-17T00:05:00-00:00 4.46 0.179 2.0 Experimental not manually quality-controlled 2022-08-16T23:30:00-00:00 1.34 0.128 2022-08-16T23:45:00-00:00 1.34 0.128 2022-08-17T00:00:00-00:00 1.33 0.126 2022-08-17T00:15:00-00:00 1.34 0.128 2.0 Experimental not manually quality-controlled 2022-08-16T23:15:00-00:00 1.41 0.0646 2022-08-16T23:30:00-00:00 1.41 0.0646 2022-08-16T23:45:00-00:00 1.41 0.0646 2022-08-17T00:00:00-00:00 1.41 0.0646 2.0 Experimental not manually quality-controlled 2022-08-16T23:15:00-00:00 4.16 0.232 2022-08-16T23:30:00-00:00 4.16 0.232 2022-08-16T23:45:00-00:00 4.16 0.232 2022-08-17T00:00:00-00:00 4.16 0.232 2.0 Experimental not manually quality-controlled 2022-08-16T23:15:00-00:00 2.21 0.108 2022-08-16T23:30:00-00:00 2.21 0.108 2022-08-16T23:45:00-00:00 2.21 0.108 2022-08-17T00:00:00-00:00 2.21 0.108 2.0 Experimental not manually quality-controlled 2022-08-16T23:30:00-00:00 2.06 0.296 2022-08-16T23:45:00-00:00 2.05 0.292 2022-08-17T00:00:00-00:00 2.06 0.296 2022-08-17T00:15:00-00:00 2.06 0.296 2.0 Experimental not manually quality-controlled 2022-08-17T00:00:00-00:00 4.49 2.59 2.0 Experimental not manually quality-controlled 2022-08-16T23:15:00-00:00 2.27 2.94 2022-08-16T23:30:00-00:00 2.27 2.94 2022-08-16T23:45:00-00:00 2.27 2.94 2022-08-17T00:00:00-00:00 2.27 2.94 2.0 Experimental not manually quality-controlled 2022-08-16T23:15:00-00:00 3.04 0.0512 2022-08-16T23:30:00-00:00 3.05 0.0524 2022-08-16T23:45:00-00:00 3.05 0.0524 2022-08-17T00:00:00-00:00 3.05 0.0524 2.0 Experimental not manually quality-controlled 2022-08-16T23:15:00-00:00 5.2 0.0776 2022-08-16T23:30:00-00:00 5.19 0.0763 2022-08-16T23:45:00-00:00 5.18 0.075 2022-08-17T00:00:00-00:00 5.18 0.075 2.0 Experimental not manually quality-controlled 2022-08-16T23:15:00-00:00 3.24 1.84 2022-08-16T23:30:00-00:00 3.22 1.82 2022-08-16T23:45:00-00:00 3.23 1.83 2022-08-17T00:00:00-00:00 3.23 1.83 2.0 Experimental not manually quality-controlled 2022-08-17T00:00:00-00:00 2.46 0.546 2.0 Experimental not manually quality-controlled 2022-08-16T23:30:00-00:00 1.47 0.538 2022-08-16T23:45:00-00:00 1.47 0.538 2022-08-17T00:00:00-00:00 1.47 0.538 2022-08-17T00:15:00-00:00 1.47 0.538 2.0 Experimental not manually quality-controlled 2022-08-16T23:15:00-00:00 3.79 0.024 2022-08-16T23:30:00-00:00 3.79 0.024 2022-08-16T23:45:00-00:00 3.79 0.024 2022-08-17T00:00:00-00:00 3.79 0.024 2.0 Experimental not manually quality-controlled 2022-08-16T23:15:00-00:00 2.45 0.08 2022-08-16T23:30:00-00:00 2.44 0.0786 2022-08-16T23:45:00-00:00 2.43 0.0773 2022-08-17T00:00:00-00:00 2.42 0.0759 2.0 Experimental not manually quality-controlled 2022-08-16T23:15:00-00:00 4.04 0.148 2022-08-16T23:30:00-00:00 4.06 0.152 2022-08-16T23:45:00-00:00 4.05 0.15 2022-08-17T00:00:00-00:00 4.06 0.152 2.0 Experimental not manually quality-controlled 2.0 Experimental not manually quality-controlled 2022-08-17T00:00:00-00:00 2.36 0.208 2.0 Experimental not manually quality-controlled 2022-08-16T23:15:00-00:00 7640.69 66.5 2022-08-16T23:30:00-00:00 7640.68 66.5 2022-08-16T23:45:00-00:00 7640.67 66.5 2022-08-17T00:00:00-00:00 7640.67 66.5 2.0 Experimental not manually quality-controlled 2022-08-16T23:15:00-00:00 1.94 0.135 2022-08-16T23:30:00-00:00 1.94 0.135 2022-08-16T23:45:00-00:00 1.94 0.135 2022-08-17T00:00:00-00:00 1.94 0.135 2.0 Experimental not manually quality-controlled 2022-08-16T23:15:00-00:00 2.68 0.0477 2022-08-16T23:30:00-00:00 2.68 0.0477 2022-08-16T23:45:00-00:00 2.68 0.0477 2022-08-17T00:00:00-00:00 2.69 0.0485 SRUS55 KGJT 170039 PAA HMLGJT 2.0 Experimental not manually quality-controlled 2022-08-16T23:30:00-00:00 2.94 0.139 2022-08-16T23:45:00-00:00 2.96 0.145 2022-08-17T00:00:00-00:00 2.98 0.151 2022-08-17T00:15:00-00:00 2.99 0.154 2.0 Experimental not manually quality-controlled 2022-08-17T00:15:00-00:00 4.5 2.61 2.0 Experimental not manually quality-controlled 2022-08-16T23:30:00-00:00 1.08 0.15 2022-08-16T23:45:00-00:00 1.08 0.15 2022-08-17T00:00:00-00:00 1.09 0.152 2022-08-17T00:15:00-00:00 1.08 0.15 2.0 Experimental not manually quality-controlled 2022-08-16T23:30:00-00:00 4.15 0.22 2022-08-16T23:45:00-00:00 4.16 0.222 2022-08-17T00:00:00-00:00 4.15 0.22 2022-08-17T00:15:00-00:00 4.15 0.22 2.0 Experimental not manually quality-controlled 2022-08-16T23:30:00-00:00 1.95 0.132 2022-08-16T23:45:00-00:00 1.95 0.132 2022-08-17T00:00:00-00:00 1.95 0.132 2022-08-17T00:15:00-00:00 1.95 0.132 2.0 Experimental not manually quality-controlled 2022-08-16T23:30:00-00:00 1.86 0.74 2022-08-16T23:45:00-00:00 1.85 0.732 2022-08-17T00:00:00-00:00 1.84 0.725 2022-08-17T00:15:00-00:00 1.85 0.732 2.0 Experimental not manually quality-controlled 2022-08-16T23:30:00-00:00 2.38 0.0014 2022-08-16T23:45:00-00:00 2.38 0.0014 2022-08-17T00:00:00-00:00 2.4 0.0015 2022-08-17T00:15:00-00:00 2.39 0.0014 2.0 Experimental not manually quality-controlled 2022-08-16T23:30:00-00:00 1.83 0.0457 2022-08-16T23:45:00-00:00 1.83 0.0457 2022-08-17T00:00:00-00:00 1.83 0.0457 2022-08-17T00:15:00-00:00 1.83 0.0457 2.0 Experimental not manually quality-controlled 2022-08-16T23:30:00-00:00 4.71 2.75 2022-08-16T23:45:00-00:00 4.71 2.75 2022-08-17T00:00:00-00:00 4.71 2.75 2022-08-17T00:15:00-00:00 4.7 2.73 2.0 Experimental not manually quality-controlled 2022-08-17T00:15:00-00:00 2.46 0.546 2.0 Experimental not manually quality-controlled 2022-08-16T23:30:00-00:00 5.94 0.0709 2022-08-16T23:45:00-00:00 5.94 0.0709 2022-08-17T00:00:00-00:00 5.95 0.072 2022-08-17T00:15:00-00:00 5.96 0.073 2.0 Experimental not manually quality-controlled SRUS55 KGJT 170039 PZB HMLGJT 2022-08-16T23:30:00-00:00 4.75 0.455 2022-08-16T23:45:00-00:00 4.74 0.448 2022-08-17T00:00:00-00:00 4.74 0.448 2022-08-17T00:15:00-00:00 4.75 0.455 2.0 Experimental not manually quality-controlled 2022-08-16T23:30:00-00:00 1.44 -999 2022-08-16T23:45:00-00:00 1.44 -999 2022-08-17T00:00:00-00:00 1.44 -999 2022-08-17T00:15:00-00:00 1.44 -999 2.0 Experimental not manually quality-controlled 2022-08-16T23:30:00-00:00 0.75 0.0071 2022-08-16T23:45:00-00:00 0.74 0.0067 2022-08-17T00:00:00-00:00 0.73 0.0063 2022-08-17T00:15:00-00:00 0.76 0.0075 2.0 Experimental not manually quality-controlled 2022-08-16T23:45:00-00:00 3.46 0.0146 2022-08-17T00:00:00-00:00 3.46 0.0146 2022-08-17T00:15:00-00:00 3.46 0.0146 2022-08-17T00:30:00-00:00 3.46 0.0146 2.0 Experimental not manually quality-controlled 2022-08-16T23:30:00-00:00 1.34 0.0749 2022-08-16T23:45:00-00:00 1.37 0.0813 2022-08-17T00:00:00-00:00 1.36 0.0791 2022-08-17T00:15:00-00:00 1.37 0.0813 2.0 Experimental not manually quality-controlled 2022-08-16T23:30:00-00:00 2.91 0.024 2022-08-16T23:45:00-00:00 2.91 0.024 2022-08-17T00:00:00-00:00 2.92 0.0245 2022-08-17T00:15:00-00:00 2.92 0.0245 2.0 Experimental not manually quality-controlled 2022-08-16T23:30:00-00:00 2.08 0.263 2022-08-16T23:45:00-00:00 2.08 0.263 2022-08-17T00:00:00-00:00 2.07 0.259 2022-08-17T00:15:00-00:00 2.07 0.259 2.0 Experimental not manually quality-controlled 2022-08-16T23:30:00-00:00 1.98 0.248 2022-08-16T23:45:00-00:00 1.98 0.248 2022-08-17T00:00:00-00:00 1.98 0.248 2022-08-17T00:15:00-00:00 1.98 0.248 2.0 Experimental not manually quality-controlled 2022-08-17T00:15:00-00:00 2.36 0.208 2.0 Experimental not manually quality-controlled 2022-08-16T23:30:00-00:00 1.55 0.102 2022-08-16T23:45:00-00:00 1.55 0.102 2022-08-17T00:00:00-00:00 1.55 0.102 2022-08-17T00:15:00-00:00 1.54 0.1 SRUS55 KGJT 170040 RR3GJT WxCoder .A CLNC2 220816 M DH1800/TX 81/TN 56/TA 69/PP 0.05 .A1 SF 0.0/SD 0/PPM 0.35/XR 78/UP 10/UR 220 .A2 DC2208161839 : evening light showers, overcast overnight, overcast day with periods of sun, : warm and humid, 0.05" rain : low 56 0543 : high 81 1445 : SW winds 10mp 1401 : baro 29.92 : dew point 62 SRUS55 KGJT 170054 PAB HMLGJT e="2022-08-17T00:54:09+00:00" timezone="MST7MDT" originator="GJT" name="Gunnison River AT Gunnison Tunnel" id="GEPC2" xsi:noNamespaceSchemaLocation="http://weather.gov/ohd/hydroxc/schemas/hydrogen/HydData.xsd"> 2.0 Experimental not manually quality-controlled 2022-08-17T00:30:00-00:00 2.46 0.546 2.0 Experimental not manually quality-controlled 2022-08-16T23:45:00-00:00 2.92 1.12 2022-08-17T00:00:00-00:00 2.92 1.12 2022-08-17T00:15:00-00:00 2.92 1.12 2022-08-17T00:30:00-00:00 2.93 1.13 2.0 Experimental not manually quality-controlled 2022-08-17T00:00:00-00:00 5.31 0.0527 2022-08-17T00:15:00-00:00 5.41 0.0593 2022-08-17T00:30:00-00:00 5.42 0.06 2022-08-17T00:45:00-00:00 5.45 0.062 2.0 Experimental not manually quality-controlled 2022-08-16T23:45:00-00:00 9.54 2.11 2022-08-17T00:00:00-00:00 9.54 2.11 2022-08-17T00:15:00-00:00 9.54 2.11 2022-08-17T00:30:00-00:00 9.54 2.11 2.0 Experimental not manually quality-controlled 2022-08-16T23:45:00-00:00 2.6 1.9 2022-08-17T00:00:00-00:00 2.61 1.92 2022-08-17T00:15:00-00:00 2.59 1.89 2022-08-17T00:30:00-00:00 2.61 1.92 2.0 Experimental not manually quality-controlled 2022-08-16T23:45:00-00:00 4.52 0.156 2022-08-17T00:00:00-00:00 4.52 0.156 2022-08-17T00:15:00-00:00 4.52 0.156 2022-08-17T00:30:00-00:00 4.52 0.156 2.0 Experimental not manually quality-controlled 2022-08-17T00:00:00-00:00 2.92 0.0277 2022-08-17T00:15:00-00:00 2.93 0.0285 2022-08-17T00:30:00-00:00 2.94 0.0292 2022-08-17T00:45:00-00:00 2.95 0.03 2.0 Experimental not manually quality-controlled 2022-08-16T23:45:00-00:00 1.02 0.0197 2022-08-17T00:00:00-00:00 1.05 0.022 2022-08-17T00:15:00-00:00 1.05 0.022 2022-08-17T00:30:00-00:00 1.05 0.022 2.0 Experimental not manually quality-controlled 2022-08-16T23:45:00-00:00 2.79 0.0503 2022-08-17T00:00:00-00:00 2.79 0.0503 2022-08-17T00:15:00-00:00 2.79 0.0503 2022-08-17T00:30:00-00:00 2.79 0.0503 2.0 Experimental not manually quality-controlled 2022-08-16T23:45:00-00:00 1.8 0.17 2022-08-17T00:00:00-00:00 1.8 0.17 2022-08-17T00:15:00-00:00 1.8 0.17 2022-08-17T00:30:00-00:00 1.8 0.17 2.0 Experimental not manually quality-controlled 2022-08-17T00:30:00-00:00 2.36 0.208 2.0 Experimental not manually quality-controlled 2.0 Experimental not manually quality-controlled 2022-08-16T23:45:00-00:00 1.05 0.0607 2022-08-17T00:00:00-00:00 1.04 0.0593 2022-08-17T00:15:00-00:00 1.05 0.0607 2022-08-17T00:30:00-00:00 1.05 0.0607 2.0 Experimental not manually quality-controlled 2022-08-16T23:45:00-00:00 7.44 2.17 2022-08-17T00:00:00-00:00 7.43 2.16 2022-08-17T00:15:00-00:00 7.39 2.12 2022-08-17T00:30:00-00:00 7.35 2.08 2.0 Experimental not manually quality-controlled 2022-08-17T00:30:00-00:00 4.51 2.62 2.0 Experimental not manually quality-controlled 2022-08-17T00:00:00-00:00 3.76 3.58 2022-08-17T00:15:00-00:00 3.75 3.56 2022-08-17T00:30:00-00:00 3.74 3.55 2022-08-17T00:45:00-00:00 3.73 3.53 2.0 Experimental not manually quality-controlled 2022-08-17T00:00:00-00:00 2.65 0.172 2022-08-17T00:15:00-00:00 2.65 0.172 2022-08-17T00:30:00-00:00 2.65 0.172 2022-08-17T00:45:00-00:00 2.65 0.172 2.0 Experimental not manually quality-controlled 2022-08-16T23:45:00-00:00 2.64 0.39 2022-08-17T00:00:00-00:00 2.64 0.39 2022-08-17T00:15:00-00:00 2.64 0.39 2022-08-17T00:30:00-00:00 2.64 0.39 2.0 Experimental not manually quality-controlled 2022-08-17T00:00:00-00:00 0.63 0.026 2022-08-17T00:15:00-00:00 0.63 0.026 2022-08-17T00:30:00-00:00 0.63 0.026 2022-08-17T00:45:00-00:00 0.63 0.026 2.0 Experimental not manually quality-controlled 2022-08-17T00:00:00-00:00 1.9 0.0708 2022-08-17T00:15:00-00:00 1.92 0.0734 2022-08-17T00:30:00-00:00 1.91 0.072 2022-08-17T00:45:00-00:00 1.91 0.072 2.0 Experimental not manually quality-controlled 2022-08-16T23:45:00-00:00 1.87 0.11 2022-08-17T00:00:00-00:00 1.86 0.108 2022-08-17T00:15:00-00:00 1.87 0.11 2022-08-17T00:30:00-00:00 1.88 0.112 2.0 Experimental not manually quality-controlled 2022-08-16T23:45:00-00:00 2.3 0.09 2022-08-17T00:00:00-00:00 2.3 0.09 2022-08-17T00:15:00-00:00 2.3 0.09 2022-08-17T00:30:00-00:00 2.3 0.09 2.0 Experimental not manually quality-controlled 2022-08-16T23:45:00-00:00 2.66 0.111 2022-08-17T00:00:00-00:00 2.66 0.111 2022-08-17T00:15:00-00:00 2.66 0.111 2022-08-17T00:30:00-00:00 2.66 0.111 2022-08-17T00:00:00-00:00 4.27 0.0489 2022-08-17T00:15:00-00:00 4.27 0.0489 2022-08-17T00:30:00-00:00 4.27 0.0489 2022-08-17T00:45:00-00:00 4.27 0.0489 2.0 Experimental not manually quality-controlled 2022-08-17T00:00:00-00:00 1.37 0.0758 2022-08-17T00:15:00-00:00 1.37 0.0758 2022-08-17T00:30:00-00:00 1.37 0.0758 2022-08-17T00:45:00-00:00 1.36 0.0744 2.0 Experimental not manually quality-controlled 2022-08-16T23:45:00-00:00 4.06 0.197 2022-08-17T00:00:00-00:00 4.06 0.197 2022-08-17T00:15:00-00:00 4.05 0.195 2022-08-17T00:30:00-00:00 4.07 0.2 2.0 Experimental not manually quality-controlled 2022-08-17T00:00:00-00:00 2.39 0.116 2022-08-17T00:15:00-00:00 2.39 0.116 2022-08-17T00:30:00-00:00 2.39 0.116 2022-08-17T00:45:00-00:00 2.39 0.116 2.0 Experimental not manually quality-controlled 2022-08-17T00:00:00-00:00 2.39 0.052 2022-08-17T00:15:00-00:00 2.39 0.052 2022-08-17T00:30:00-00:00 2.4 0.0534 2022-08-17T00:45:00-00:00 2.4 0.0534 SRUS55 KGJT 170055 RR3GJT WxCoder .A JENU1 220816 M DH1800/TX 93/TN 58/TA 83/PP 0.00 .A1 SF 0.0/SD 0/DC2208161851 SRUS55 KGJT 170109 PAA HMLGJT 2.0 Experimental not manually quality-controlled 2022-08-17T00:45:00-00:00 4.51 2.62 2.0 Experimental not manually quality-controlled 2022-08-17T00:00:00-00:00 3.76 3.58 2022-08-17T00:15:00-00:00 3.75 3.56 2022-08-17T00:30:00-00:00 3.74 3.55 2022-08-17T00:45:00-00:00 3.73 3.53 2.0 Experimental not manually quality-controlled 2022-08-17T00:15:00-00:00 2.37 0.0324 2022-08-17T00:30:00-00:00 2.37 0.0324 2022-08-17T00:45:00-00:00 2.36 0.0315 2022-08-17T01:00:00-00:00 2.36 0.0315 2.0 Experimental not manually quality-controlled 2022-08-17T00:00:00-00:00 2.65 0.172 2022-08-17T00:15:00-00:00 2.65 0.172 2022-08-17T00:30:00-00:00 2.65 0.172 2022-08-17T00:45:00-00:00 2.65 0.172 2.0 Experimental not manually quality-controlled 2022-08-17T00:00:00-00:00 7.01 0.112 2022-08-17T00:15:00-00:00 7.01 0.112 2022-08-17T00:30:00-00:00 7.01 0.112 2022-08-17T00:45:00-00:00 7.02 0.114 2.0 Experimental not manually quality-controlled 2022-08-17T00:00:00-00:00 1.9 0.0708 2022-08-17T00:15:00-00:00 1.92 0.0734 2022-08-17T00:30:00-00:00 1.91 0.072 2022-08-17T00:45:00-00:00 1.91 0.072 2.0 Experimental not manually quality-controlled 2022-08-17T00:45:00-00:00 2.47 0.551 2.0 Experimental not manually quality-controlled 2022-08-17T00:00:00-00:00 5.31 0.0527 2022-08-17T00:15:00-00:00 5.41 0.0593 2022-08-17T00:30:00-00:00 5.42 0.06 2022-08-17T00:45:00-00:00 5.45 0.062 2.0 Experimental not manually quality-controlled 2022-08-17T00:00:00-00:00 2.38 0.916 2022-08-17T00:15:00-00:00 2.37 0.909 2022-08-17T00:30:00-00:00 2.38 0.916 2022-08-17T00:45:00-00:00 2.37 0.909 2.0 Experimental not manually quality-controlled 2022-08-17T00:00:00-00:00 3.06 0.493 2022-08-17T00:15:00-00:00 3.06 0.493 2022-08-17T00:30:00-00:00 3.06 0.493 2022-08-17T00:45:00-00:00 3.06 0.493 2.0 Experimental not manually quality-controlled 2022-08-17T00:00:00-00:00 3.33 0.0389 2022-08-17T00:15:00-00:00 3.33 0.0389 2022-08-17T00:30:00-00:00 3.33 0.0389 2022-08-17T00:45:00-00:00 3.32 0.038 2.0 Experimental not manually quality-controlled 2022-08-16T23:45:00-00:00 -9999 -999 2022-08-17T00:00:00-00:00 -9999 -999 2022-08-17T00:15:00-00:00 -9999 -999 2022-08-17T00:30:00-00:00 -9999 -999 2.0 Experimental not manually quality-controlled 2022-08-17T00:00:00-00:00 5.29 0.0275 2022-08-17T00:15:00-00:00 5.29 0.0275 2022-08-17T00:30:00-00:00 5.3 0.0283 2022-08-17T00:45:00-00:00 5.3 0.0283 2.0 Experimental not manually quality-controlled 2022-08-17T00:00:00-00:00 1.38 0.0532 2022-08-17T00:15:00-00:00 1.38 0.0532 2022-08-17T00:30:00-00:00 1.38 0.0532 2022-08-17T00:45:00-00:00 1.37 0.0526 2.0 Experimental not manually quality-controlled 2022-08-17T00:00:00-00:00 3.98 0 2022-08-17T00:15:00-00:00 3.98 0 2022-08-17T00:30:00-00:00 3.98 0 2022-08-17T00:45:00-00:00 3.98 0 2.0 Experimental not manually quality-controlled 2022-08-17T00:00:00-00:00 2.92 0.0277 2022-08-17T00:15:00-00:00 2.93 0.0285 2022-08-17T00:30:00-00:00 2.94 0.0292 2022-08-17T00:45:00-00:00 2.95 0.03 2.0 Experimental not manually quality-controlled 2022-08-17T00:45:00-00:00 2.36 0.208 2.0 Experimental not manually quality-controlled 2022-08-17T00:00:00-00:00 4.27 0.0489 2022-08-17T00:15:00-00:00 4.27 0.0489 2022-08-17T00:30:00-00:00 4.27 0.0489 2022-08-17T00:45:00-00:00 4.27 0.0489 2.0 Experimental not manually quality-controlled 2022-08-17T00:00:00-00:00 1.37 0.0758 2022-08-17T00:15:00-00:00 1.37 0.0758 2022-08-17T00:30:00-00:00 1.37 0.0758 2022-08-17T00:45:00-00:00 1.36 0.0744 2.0 Experimental not manually quality-controlled 2022-08-17T00:00:00-00:00 1.71 0.156 2022-08-17T00:15:00-00:00 1.71 0.156 2022-08-17T00:30:00-00:00 1.71 0.156 2022-08-17T00:45:00-00:00 1.7 0.153 2.0 Experimental not manually quality-controlled 2022-08-17T00:00:00-00:00 2.17 0.122 2022-08-17T00:15:00-00:00 2.17 0.122 2022-08-17T00:30:00-00:00 2.16 0.12 2022-08-17T00:45:00-00:00 2.15 0.117 2.0 Experimental not manually quality-controlled 2022-08-17T00:00:00-00:00 2.39 0.052 2022-08-17T00:15:00-00:00 2.39 0.052 2022-08-17T00:30:00-00:00 2.4 0.0534 2022-08-17T00:45:00-00:00 2.4 0.0534 SRUS55 KGJT 170111 RR3GJT IVROCS .A ATBC2 220816 M DH1900/TX 81/TN 56/TA 65/ .A1 PP 0.23/PT 1/ SRUS55 KGJT 170124 PAB HMLGJT d primaryUnits="ft" pedts="HGIRG" primaryName="Stage" timezone="UTC" secondaryUnits="kcfs" secondaryName="Flow"> 2022-08-17T00:15:00-00:00 1.18 0.15 2022-08-17T00:30:00-00:00 1.18 0.15 2022-08-17T00:45:00-00:00 1.17 0.148 2022-08-17T01:00:00-00:00 1.17 0.148 2.0 Experimental not manually quality-controlled 2022-08-17T00:15:00-00:00 1.21 0.0254 2022-08-17T00:30:00-00:00 1.21 0.0254 2022-08-17T00:45:00-00:00 1.21 0.0254 2022-08-17T01:00:00-00:00 1.21 0.0254 2.0 Experimental not manually quality-controlled 2022-08-17T00:15:00-00:00 5914.35 -999 2022-08-17T00:30:00-00:00 5914.35 -999 2022-08-17T00:45:00-00:00 5914.35 -999 2022-08-17T01:00:00-00:00 5914.35 -999 2.0 Experimental not manually quality-controlled 2022-08-17T00:30:00-00:00 7750.96 88.1 2022-08-17T00:45:00-00:00 7750.96 88.1 2022-08-17T01:00:00-00:00 7750.96 88.1 2022-08-17T01:15:00-00:00 7750.95 88.1 2.0 Experimental not manually quality-controlled 2022-08-17T00:15:00-00:00 6.14 0.752 2022-08-17T00:30:00-00:00 6.18 0.791 2022-08-17T00:45:00-00:00 6.22 0.829 2022-08-17T01:00:00-00:00 6.25 0.859 2.0 Experimental not manually quality-controlled 2022-08-17T00:10:00-00:00 4.43 0.171 2022-08-17T00:15:00-00:00 4.44 0.173 2022-08-17T00:20:00-00:00 4.44 0.173 2022-08-17T00:25:00-00:00 4.43 0.171 2022-08-17T00:30:00-00:00 4.42 0.168 2022-08-17T00:35:00-00:00 4.42 0.168 2022-08-17T00:40:00-00:00 4.41 0.166 2022-08-17T00:45:00-00:00 4.42 0.168 2022-08-17T00:50:00-00:00 4.42 0.168 2022-08-17T00:55:00-00:00 4.4 0.164 2022-08-17T01:00:00-00:00 4.41 0.166 2022-08-17T01:05:00-00:00 4.4 0.164 2.0 Experimental not manually quality-controlled 2022-08-17T00:30:00-00:00 1.33 0.126 2022-08-17T00:45:00-00:00 1.33 0.126 2022-08-17T01:00:00-00:00 1.33 0.126 2022-08-17T01:15:00-00:00 1.33 0.126 2.0 Experimental not manually quality-controlled 2022-08-17T00:15:00-00:00 1.41 0.0646 2022-08-17T00:30:00-00:00 1.42 0.066 2022-08-17T00:45:00-00:00 1.42 0.066 2022-08-17T01:00:00-00:00 1.43 0.0676 2.0 Experimental not manually quality-controlled 2022-08-17T00:15:00-00:00 4.17 0.235 2022-08-17T00:30:00-00:00 4.15 0.229 2022-08-17T00:45:00-00:00 4.14 0.226 2022-08-17T01:00:00-00:00 4.17 0.235 2.0 Experimental not manually quality-controlled 2022-08-17T00:15:00-00:00 2.21 0.108 2022-08-17T00:30:00-00:00 2.2 0.106 2022-08-17T00:45:00-00:00 2.21 0.108 2022-08-17T01:00:00-00:00 2.22 0.11 2.0 Experimental not manually quality-controlled 2022-08-17T01:00:00-00:00 2.36 0.208 2.0 Experimental not manually quality-controlled 2022-08-17T00:15:00-00:00 7640.67 66.5 2022-08-17T00:30:00-00:00 7640.67 66.5 2022-08-17T00:45:00-00:00 7640.67 66.5 2022-08-17T01:00:00-00:00 7640.67 66.5 2.0 Experimental not manually quality-controlled 2022-08-17T00:15:00-00:00 1.94 0.135 2022-08-17T00:30:00-00:00 1.94 0.135 2022-08-17T00:45:00-00:00 1.93 0.133 2022-08-17T01:00:00-00:00 1.93 0.133 2.0 Experimental not manually quality-controlled 2022-08-17T00:15:00-00:00 2.69 0.0485 2022-08-17T00:30:00-00:00 2.68 0.0477 2022-08-17T00:45:00-00:00 2.68 0.0477 2022-08-17T01:00:00-00:00 2.69 0.0485 SRUS55 KGJT 170124 PAA HMLGJT 2.0 Experimental not manually quality-controlled 2022-08-17T00:30:00-00:00 2.07 0.3 2022-08-17T00:45:00-00:00 2.06 0.296 2022-08-17T01:00:00-00:00 2.06 0.296 2022-08-17T01:15:00-00:00 2.07 0.3 2.0 Experimental not manually quality-controlled 2022-08-17T01:00:00-00:00 4.51 2.62 2.0 Experimental not manually quality-controlled 2022-08-17T00:15:00-00:00 2.26 2.92 2022-08-17T00:30:00-00:00 2.27 2.94 2022-08-17T00:45:00-00:00 2.27 2.94 2022-08-17T01:00:00-00:00 2.27 2.94 2.0 Experimental not manually quality-controlled 2022-08-17T00:15:00-00:00 3.05 0.0524 2022-08-17T00:30:00-00:00 3.06 0.0537 2022-08-17T00:45:00-00:00 3.05 0.0524 2022-08-17T01:00:00-00:00 3.05 0.0524 2.0 Experimental not manually quality-controlled 2022-08-17T00:15:00-00:00 5.17 0.0736 2022-08-17T00:30:00-00:00 5.17 0.0736 2022-08-17T00:45:00-00:00 5.17 0.0736 2022-08-17T01:00:00-00:00 5.17 0.0736 2.0 Experimental not manually quality-controlled 2022-08-17T00:15:00-00:00 3.23 1.83 2022-08-17T00:30:00-00:00 3.22 1.82 2022-08-17T00:45:00-00:00 3.23 1.83 2022-08-17T01:00:00-00:00 3.24 1.84 2.0 Experimental not manually quality-controlled 2022-08-17T01:00:00-00:00 2.47 0.551 2.0 Experimental not manually quality-controlled 2022-08-17T00:30:00-00:00 1.47 0.538 2022-08-17T00:45:00-00:00 1.47 0.538 2022-08-17T01:00:00-00:00 1.46 0.529 2022-08-17T01:15:00-00:00 1.46 0.529 2.0 Experimental not manually quality-controlled 2022-08-17T00:15:00-00:00 3.79 0.024 2022-08-17T00:30:00-00:00 3.79 0.024 2022-08-17T00:45:00-00:00 3.79 0.024 2022-08-17T01:00:00-00:00 3.79 0.024 2.0 Experimental not manually quality-controlled 2022-08-17T00:15:00-00:00 2.42 0.0759 2022-08-17T00:30:00-00:00 2.41 0.0746 2022-08-17T00:45:00-00:00 2.41 0.0746 2022-08-17T01:00:00-00:00 2.41 0.0746 2.0 Experimental not manually quality-controlled 2022-08-17T00:15:00-00:00 4.06 0.152 2022-08-17T00:30:00-00:00 4.05 0.15 2022-08-17T00:45:00-00:00 4.07 0.154 2022-08-17T01:00:00-00:00 4.07 0.154 2.0 Experimental not manually quality-controlled 2022-08-17T00:30:00-00:00 4.75 0.455 2022-08-17T00:45:00-00:00 4.76 0.462 2022-08-17T01:00:00-00:00 4.76 0.462 2022-08-17T01:15:00-00:00 4.93 0.583 2.0 Experimental not manually quality-controlled 2022-08-17T00:30:00-00:00 1.44 -999 2022-08-17T00:45:00-00:00 1.44 -999 2022-08-17T01:00:00-00:00 1.44 -999 2022-08-17T01:15:00-00:00 1.44 -999 2.0 Experimental not manually quality-controlled 2022-08-17T00:30:00-00:00 0.76 0.0075 2022-08-17T00:45:00-00:00 0.74 0.0067 2022-08-17T01:00:00-00:00 0.73 0.0063 2022-08-17T01:15:00-00:00 0.73 0.0063 2.0 Experimental not manually quality-controlled 2022-08-17T00:45:00-00:00 3.46 0.0146 2022-08-17T01:00:00-00:00 3.46 0.0146 2022-08-17T01:15:00-00:00 3.46 0.0146 2022-08-17T01:30:00-00:00 3.46 0.0146 2.0 Experimental not manually quality-controlled 2022-08-17T00:30:00-00:00 1.38 0.0835 2022-08-17T00:45:00-00:00 1.39 0.0857 2022-08-17T01:00:00-00:00 1.39 0.0857 2022-08-17T01:15:00-00:00 1.39 0.0857 2.0 Experimental not manually quality-controlled 2022-08-17T00:30:00-00:00 2.92 0.0245 2022-08-17T00:45:00-00:00 2.93 0.0251 2022-08-17T01:00:00-00:00 2.93 0.0251 2022-08-17T01:15:00-00:00 2.94 0.0257 2.0 Experimental not manually quality-controlled 2022-08-17T00:30:00-00:00 2.07 0.259 2022-08-17T00:45:00-00:00 2.07 0.259 2022-08-17T01:00:00-00:00 2.07 0.259 2022-08-17T01:15:00-00:00 2.07 0.259 2.0 Experimental not manually quality-controlled 2022-08-17T00:30:00-00:00 1.98 0.248 2022-08-17T00:45:00-00:00 1.98 0.248 2022-08-17T01:00:00-00:00 1.99 0.253 2022-08-17T01:15:00-00:00 1.99 0.253 2.0 Experimental not manually quality-controlled 2022-08-17T01:15:00-00:00 2.36 0.208 2.0 Experimental not manually quality-controlled 2022-08-17T00:30:00-00:00 1.54 0.1 2022-08-17T00:45:00-00:00 1.53 0.0982 2022-08-17T01:00:00-00:00 1.54 0.1 2022-08-17T01:15:00-00:00 1.53 0.0982 SRUS55 KGJT 170139 PAA HMLGJT 2.0 Experimental not manually quality-controlled 2022-08-17T00:30:00-00:00 2.98 0.151 2022-08-17T00:45:00-00:00 2.98 0.151 2022-08-17T01:00:00-00:00 2.99 0.154 2022-08-17T01:15:00-00:00 2.99 0.154 2.0 Experimental not manually quality-controlled 2022-08-17T01:15:00-00:00 4.51 2.62 2.0 Experimental not manually quality-controlled 2022-08-17T00:30:00-00:00 1.08 0.15 2022-08-17T00:45:00-00:00 1.08 0.15 2022-08-17T01:00:00-00:00 1.09 0.152 2022-08-17T01:15:00-00:00 1.09 0.152 2.0 Experimental not manually quality-controlled 2022-08-17T00:30:00-00:00 4.16 0.222 2022-08-17T00:45:00-00:00 4.15 0.22 2022-08-17T01:00:00-00:00 4.16 0.222 2022-08-17T01:15:00-00:00 4.15 0.22 2.0 Experimental not manually quality-controlled 2022-08-17T00:30:00-00:00 1.95 0.132 2022-08-17T00:45:00-00:00 1.95 0.132 2022-08-17T01:00:00-00:00 1.96 0.134 2022-08-17T01:15:00-00:00 1.95 0.132 2.0 Experimental not manually quality-controlled 2022-08-17T00:30:00-00:00 1.84 0.725 2022-08-17T00:45:00-00:00 1.84 0.725 2022-08-17T01:00:00-00:00 1.84 0.725 2022-08-17T01:15:00-00:00 1.84 0.725 2.0 Experimental not manually quality-controlled 2022-08-17T00:30:00-00:00 2.38 0.0014 2022-08-17T00:45:00-00:00 2.38 0.0014 2022-08-17T01:00:00-00:00 2.38 0.0014 2022-08-17T01:15:00-00:00 2.38 0.0014 2.0 Experimental not manually quality-controlled 2022-08-17T00:30:00-00:00 1.83 0.0457 2022-08-17T00:45:00-00:00 1.83 0.0457 2022-08-17T01:00:00-00:00 1.83 0.0457 2022-08-17T01:15:00-00:00 1.83 0.0457 2.0 Experimental not manually quality-controlled 2022-08-17T00:30:00-00:00 4.7 2.73 2022-08-17T00:45:00-00:00 4.71 2.75 2022-08-17T01:00:00-00:00 4.73 2.78 2022-08-17T01:15:00-00:00 4.73 2.78 2.0 Experimental not manually quality-controlled 2022-08-17T01:15:00-00:00 2.47 0.551 2.0 Experimental not manually quality-controlled 2022-08-17T00:30:00-00:00 6.02 0.0796 2022-08-17T00:45:00-00:00 6.04 0.082 2022-08-17T01:00:00-00:00 6.01 0.0785 2022-08-17T01:15:00-00:00 5.98 0.0751 2.0 Experimental not manually quality-controlled 2.0 Experimental not manually quality-controlled 2022-08-17T01:30:00-00:00 2.47 0.551 2.0 Experimental not manually quality-controlled 2022-08-17T00:45:00-00:00 2.93 1.13 2022-08-17T01:00:00-00:00 2.94 1.14 2022-08-17T01:15:00-00:00 2.94 1.14 2022-08-17T01:30:00-00:00 2.94 1.14 2.0 Experimental not manually quality-controlled 2022-08-17T01:00:00-00:00 5.42 0.06 2022-08-17T01:15:00-00:00 5.41 0.0593 2022-08-17T01:30:00-00:00 5.39 0.0579 2022-08-17T01:45:00-00:00 5.39 0.0579 2.0 Experimental not manually quality-controlled 2022-08-17T00:45:00-00:00 9.53 2.1 2022-08-17T01:00:00-00:00 9.54 2.11 2022-08-17T01:15:00-00:00 9.54 2.11 2022-08-17T01:30:00-00:00 9.54 2.11 2.0 Experimental not manually quality-controlled 2022-08-17T00:45:00-00:00 2.63 1.94 2022-08-17T01:00:00-00:00 2.66 1.98 2022-08-17T01:15:00-00:00 2.67 1.99 2022-08-17T01:30:00-00:00 2.67 1.99 2.0 Experimental not manually quality-controlled 2022-08-17T00:45:00-00:00 4.52 0.156 2022-08-17T01:00:00-00:00 4.52 0.156 2022-08-17T01:15:00-00:00 4.52 0.156 2022-08-17T01:30:00-00:00 4.52 0.156 2.0 Experimental not manually quality-controlled 2022-08-17T01:00:00-00:00 2.94 0.0292 2022-08-17T01:15:00-00:00 2.95 0.03 2022-08-17T01:30:00-00:00 2.94 0.0292 2022-08-17T01:45:00-00:00 2.94 0.0292 2.0 Experimental not manually quality-controlled 2022-08-17T00:45:00-00:00 1.05 0.022 2022-08-17T01:00:00-00:00 1.05 0.022 2022-08-17T01:15:00-00:00 1.05 0.022 2022-08-17T01:30:00-00:00 1.04 0.0212 2.0 Experimental not manually quality-controlled 2022-08-17T00:45:00-00:00 2.79 0.0503 2022-08-17T01:00:00-00:00 2.79 0.0503 2022-08-17T01:15:00-00:00 2.79 0.0503 2022-08-17T01:30:00-00:00 2.8 0.0516 2.0 Experimental not manually quality-controlled 2022-08-17T00:45:00-00:00 1.8 0.17 2022-08-17T01:00:00-00:00 1.81 0.172 2022-08-17T01:15:00-00:00 1.81 0.172 2022-08-17T01:30:00-00:00 1.81 0.172 2.0 Experimental not manually quality-controlled 2022-08-17T01:30:00-00:00 2.36 0.208 2.0 Experimental not manually quality-controlled 2.0 Experimental not manually quality-controlled 2022-08-17T00:45:00-00:00 1.04 0.0593 2022-08-17T01:00:00-00:00 1.05 0.0607 2022-08-17T01:15:00-00:00 1.04 0.0593 2022-08-17T01:30:00-00:00 1.04 0.0593 2.0 Experimental not manually quality-controlled 2022-08-17T00:45:00-00:00 7.28 2.01 2022-08-17T01:00:00-00:00 7.23 1.96 2022-08-17T01:15:00-00:00 7.17 1.9 2022-08-17T01:30:00-00:00 7.11 1.84 2.0 Experimental not manually quality-controlled 2022-08-17T01:30:00-00:00 4.51 2.62 2.0 Experimental not manually quality-controlled 2022-08-17T01:00:00-00:00 3.72 3.51 2022-08-17T01:15:00-00:00 3.71 3.49 2022-08-17T01:30:00-00:00 3.69 3.46 2022-08-17T01:45:00-00:00 3.68 3.44 2.0 Experimental not manually quality-controlled 2022-08-17T01:00:00-00:00 2.65 0.172 2022-08-17T01:15:00-00:00 2.64 0.169 2022-08-17T01:30:00-00:00 2.65 0.172 2022-08-17T01:45:00-00:00 2.64 0.169 2.0 Experimental not manually quality-controlled 2022-08-17T00:45:00-00:00 2.65 0.396 2022-08-17T01:00:00-00:00 2.65 0.396 2022-08-17T01:15:00-00:00 2.65 0.396 2022-08-17T01:30:00-00:00 2.65 0.396 2.0 Experimental not manually quality-controlled 2022-08-17T01:00:00-00:00 0.63 0.026 2022-08-17T01:15:00-00:00 0.63 0.026 2022-08-17T01:30:00-00:00 0.63 0.026 2022-08-17T01:45:00-00:00 0.63 0.026 2.0 Experimental not manually quality-controlled 2022-08-17T01:00:00-00:00 1.9 0.0708 2022-08-17T01:15:00-00:00 1.92 0.0734 2022-08-17T01:30:00-00:00 1.91 0.072 2022-08-17T01:45:00-00:00 1.91 0.072 2.0 Experimental not manually quality-controlled 2022-08-17T00:45:00-00:00 1.87 0.11 2022-08-17T01:00:00-00:00 1.86 0.108 2022-08-17T01:15:00-00:00 1.87 0.11 2022-08-17T01:30:00-00:00 1.89 0.115 2.0 Experimental not manually quality-controlled 2022-08-17T00:45:00-00:00 2.31 0.0916 2022-08-17T01:00:00-00:00 2.31 0.0916 2022-08-17T01:15:00-00:00 2.31 0.0916 2022-08-17T01:30:00-00:00 2.31 0.0916 2.0 Experimental not manually quality-controlled 2022-08-17T00:45:00-00:00 2.66 0.111 2022-08-17T01:00:00-00:00 2.66 0.111 2022-08-17T01:15:00-00:00 2.66 0.111 2022-08-17T01:30:00-00:00 2.66 0.111 2022-08-17T01:00:00-00:00 4.27 0.0489 2022-08-17T01:15:00-00:00 4.27 0.0489 2022-08-17T01:30:00-00:00 4.27 0.0489 2022-08-17T01:45:00-00:00 4.27 0.0489 2.0 Experimental not manually quality-controlled 2022-08-17T01:00:00-00:00 1.36 0.0744 2022-08-17T01:15:00-00:00 1.36 0.0744 2022-08-17T01:30:00-00:00 1.36 0.0744 2022-08-17T01:45:00-00:00 1.36 0.0744 2.0 Experimental not manually quality-controlled 2022-08-17T00:45:00-00:00 4.07 0.2 2022-08-17T01:00:00-00:00 4.09 0.205 2022-08-17T01:15:00-00:00 4.1 0.208 2022-08-17T01:30:00-00:00 4.1 0.208 2.0 Experimental not manually quality-controlled 2022-08-17T01:00:00-00:00 2.39 0.116 2022-08-17T01:15:00-00:00 2.39 0.116 2022-08-17T01:30:00-00:00 2.39 0.116 2022-08-17T01:45:00-00:00 2.39 0.116 2.0 Experimental not manually quality-controlled 2022-08-17T01:00:00-00:00 2.41 0.0549 2022-08-17T01:15:00-00:00 2.41 0.0549 2022-08-17T01:30:00-00:00 2.42 0.0564 2022-08-17T01:45:00-00:00 2.42 0.0564 SRUS55 KGJT 170209 PAB HMLGJT ers> 2022-08-17T01:00:00-00:00 3.32 0.038 2022-08-17T01:15:00-00:00 3.32 0.038 2022-08-17T01:30:00-00:00 3.32 0.038 2022-08-17T01:45:00-00:00 3.31 0.0369 2.0 Experimental not manually quality-controlled 2022-08-17T00:45:00-00:00 -9999 -999 2022-08-17T01:00:00-00:00 -9999 -999 2022-08-17T01:15:00-00:00 -9999 -999 2022-08-17T01:30:00-00:00 -9999 -999 2.0 Experimental not manually quality-controlled 2022-08-17T01:00:00-00:00 5.3 0.0283 2022-08-17T01:15:00-00:00 5.3 0.0283 2022-08-17T01:30:00-00:00 5.31 0.0292 2022-08-17T01:45:00-00:00 5.31 0.0292 2.0 Experimental not manually quality-controlled 2022-08-17T01:00:00-00:00 1.37 0.0526 2022-08-17T01:15:00-00:00 1.38 0.0532 2022-08-17T01:30:00-00:00 1.38 0.0532 2022-08-17T01:45:00-00:00 1.37 0.0526 2.0 Experimental not manually quality-controlled 2022-08-17T01:00:00-00:00 3.98 0 2022-08-17T01:15:00-00:00 3.98 0 2022-08-17T01:30:00-00:00 3.97 0 2022-08-17T01:45:00-00:00 3.97 0 2.0 Experimental not manually quality-controlled 2022-08-17T01:15:00-00:00 1.17 0.148 2022-08-17T01:30:00-00:00 1.18 0.15 2022-08-17T01:45:00-00:00 1.18 0.15 2022-08-17T02:00:00-00:00 1.18 0.15 2.0 Experimental not manually quality-controlled 2022-08-17T01:00:00-00:00 2.94 0.0292 2022-08-17T01:15:00-00:00 2.95 0.03 2022-08-17T01:30:00-00:00 2.94 0.0292 2022-08-17T01:45:00-00:00 2.94 0.0292 2.0 Experimental not manually quality-controlled 2022-08-17T01:15:00-00:00 1.21 0.0254 2022-08-17T01:30:00-00:00 1.21 0.0254 2022-08-17T01:45:00-00:00 1.21 0.0254 2022-08-17T02:00:00-00:00 1.21 0.0254 2.0 Experimental not manually quality-controlled 2022-08-17T01:15:00-00:00 5914.35 -999 2022-08-17T01:30:00-00:00 5914.34 -999 2022-08-17T01:45:00-00:00 5914.34 -999 2022-08-17T02:00:00-00:00 5914.34 -999 2.0 Experimental not manually quality-controlled 2022-08-17T01:15:00-00:00 2.28 0.121 2022-08-17T01:30:00-00:00 2.31 0.127 2022-08-17T01:45:00-00:00 2.3 0.125 2022-08-17T02:00:00-00:00 2.29 0.123 2.0 Experimental not manually quality-controlled 2022-08-17T01:45:00-00:00 2.36 0.208 2.0 Experimental not manually quality-controlled 2.0 Experimental not manually quality-controlled 2022-08-17T01:45:00-00:00 4.52 2.64 2.0 Experimental not manually quality-controlled 2022-08-17T01:00:00-00:00 3.72 3.51 2022-08-17T01:15:00-00:00 3.71 3.49 2022-08-17T01:30:00-00:00 3.69 3.46 2022-08-17T01:45:00-00:00 3.68 3.44 2.0 Experimental not manually quality-controlled 2022-08-17T01:15:00-00:00 2.35 0.0306 2022-08-17T01:30:00-00:00 2.35 0.0306 2022-08-17T01:45:00-00:00 2.34 0.0298 2022-08-17T02:00:00-00:00 2.34 0.0298 2.0 Experimental not manually quality-controlled 2022-08-17T01:00:00-00:00 2.65 0.172 2022-08-17T01:15:00-00:00 2.64 0.169 2022-08-17T01:30:00-00:00 2.65 0.172 2022-08-17T01:45:00-00:00 2.64 0.169 2.0 Experimental not manually quality-controlled 2022-08-17T01:00:00-00:00 7.02 0.114 2022-08-17T01:15:00-00:00 7.02 0.114 2022-08-17T01:30:00-00:00 7.02 0.114 2022-08-17T01:45:00-00:00 7.02 0.114 2.0 Experimental not manually quality-controlled 2022-08-17T01:00:00-00:00 1.9 0.0708 2022-08-17T01:15:00-00:00 1.92 0.0734 2022-08-17T01:30:00-00:00 1.91 0.072 2022-08-17T01:45:00-00:00 1.91 0.072 2.0 Experimental not manually quality-controlled 2022-08-17T01:15:00-00:00 3.25 1.85 2022-08-17T01:30:00-00:00 3.26 1.86 2022-08-17T01:45:00-00:00 3.26 1.86 2022-08-17T02:00:00-00:00 3.27 1.87 2.0 Experimental not manually quality-controlled 2022-08-17T01:45:00-00:00 2.47 0.551 2.0 Experimental not manually quality-controlled 2022-08-17T01:00:00-00:00 5.42 0.06 2022-08-17T01:15:00-00:00 5.41 0.0593 2022-08-17T01:30:00-00:00 5.39 0.0579 2022-08-17T01:45:00-00:00 5.39 0.0579 2.0 Experimental not manually quality-controlled 2022-08-17T01:00:00-00:00 2.37 0.909 2022-08-17T01:15:00-00:00 2.37 0.909 2022-08-17T01:30:00-00:00 2.37 0.909 2022-08-17T01:45:00-00:00 2.36 0.901 2.0 Experimental not manually quality-controlled 2022-08-17T01:00:00-00:00 3.06 0.493 2022-08-17T01:15:00-00:00 3.06 0.493 2022-08-17T01:30:00-00:00 3.07 0.499 2022-08-17T01:45:00-00:00 3.07 0.499 2.0 Experimental not manually quality-controlled 2022-08-17T01:00:00-00:00 4.27 0.0489 2022-08-17T01:15:00-00:00 4.27 0.0489 2022-08-17T01:30:00-00:00 4.27 0.0489 2022-08-17T01:45:00-00:00 4.27 0.0489 2.0 Experimental not manually quality-controlled 2022-08-17T01:00:00-00:00 1.36 0.0744 2022-08-17T01:15:00-00:00 1.36 0.0744 2022-08-17T01:30:00-00:00 1.36 0.0744 2022-08-17T01:45:00-00:00 1.36 0.0744 2.0 Experimental not manually quality-controlled 2022-08-17T01:00:00-00:00 1.7 0.153 2022-08-17T01:15:00-00:00 1.7 0.153 2022-08-17T01:30:00-00:00 1.7 0.153 2022-08-17T01:45:00-00:00 1.69 0.151 2.0 Experimental not manually quality-controlled 2022-08-17T01:00:00-00:00 2.15 0.117 2022-08-17T01:15:00-00:00 2.15 0.117 2022-08-17T01:30:00-00:00 2.15 0.117 2022-08-17T01:45:00-00:00 2.15 0.117 2.0 Experimental not manually quality-controlled 2022-08-17T01:00:00-00:00 2.41 0.0549 2022-08-17T01:15:00-00:00 2.41 0.0549 2022-08-17T01:30:00-00:00 2.42 0.0564 2022-08-17T01:45:00-00:00 2.42 0.0564 SRUS55 KGJT 170224 PAA HMLGJT 2.0 Experimental not manually quality-controlled 2022-08-17T01:30:00-00:00 2.05 0.292 2022-08-17T01:45:00-00:00 2.06 0.296 2022-08-17T02:00:00-00:00 2.05 0.292 2022-08-17T02:15:00-00:00 2.06 0.296 2.0 Experimental not manually quality-controlled 2022-08-17T02:00:00-00:00 4.51 2.62 2.0 Experimental not manually quality-controlled 2022-08-17T01:15:00-00:00 2.27 2.94 2022-08-17T01:30:00-00:00 2.27 2.94 2022-08-17T01:45:00-00:00 2.27 2.94 2022-08-17T02:00:00-00:00 2.27 2.94 2.0 Experimental not manually quality-controlled 2022-08-17T01:15:00-00:00 3.07 0.055 2022-08-17T01:30:00-00:00 3.06 0.0537 2022-08-17T01:45:00-00:00 3.07 0.055 2022-08-17T02:00:00-00:00 3.06 0.0537 2.0 Experimental not manually quality-controlled 2022-08-17T01:15:00-00:00 5.17 0.0736 2022-08-17T01:30:00-00:00 5.16 0.0722 2022-08-17T01:45:00-00:00 5.16 0.0722 2022-08-17T02:00:00-00:00 5.15 0.0709 2.0 Experimental not manually quality-controlled 2022-08-17T01:15:00-00:00 3.25 1.85 2022-08-17T01:30:00-00:00 3.26 1.86 2022-08-17T01:45:00-00:00 3.26 1.86 2022-08-17T02:00:00-00:00 3.27 1.87 2.0 Experimental not manually quality-controlled 2022-08-17T02:00:00-00:00 2.47 0.551 2.0 Experimental not manually quality-controlled 2022-08-17T01:30:00-00:00 1.46 0.529 2022-08-17T01:45:00-00:00 1.46 0.529 2022-08-17T02:00:00-00:00 1.46 0.529 2022-08-17T02:15:00-00:00 1.46 0.529 2.0 Experimental not manually quality-controlled 2022-08-17T01:15:00-00:00 3.79 0.024 2022-08-17T01:30:00-00:00 3.79 0.024 2022-08-17T01:45:00-00:00 3.79 0.024 2022-08-17T02:00:00-00:00 3.79 0.024 2.0 Experimental not manually quality-controlled 2022-08-17T01:15:00-00:00 2.4 0.0733 2022-08-17T01:30:00-00:00 2.39 0.072 2022-08-17T01:45:00-00:00 2.39 0.072 2022-08-17T02:00:00-00:00 2.38 0.0707 2.0 Experimental not manually quality-controlled 2022-08-17T01:15:00-00:00 4.07 0.154 2022-08-17T01:30:00-00:00 4.07 0.154 2022-08-17T01:45:00-00:00 4.14 0.168 2022-08-17T02:00:00-00:00 4.11 0.162 2.0 Experimental not manually quality-controlled 2.0 Experimental not manually quality-controlled 2022-08-17T02:00:00-00:00 2.36 0.208 2.0 Experimental not manually quality-controlled 2022-08-17T01:15:00-00:00 7640.66 66.5 2022-08-17T01:30:00-00:00 7640.65 66.5 2022-08-17T01:45:00-00:00 7640.64 66.4 2022-08-17T02:00:00-00:00 7640.64 66.4 2.0 Experimental not manually quality-controlled 2022-08-17T01:15:00-00:00 1.93 0.133 2022-08-17T01:30:00-00:00 1.93 0.133 2022-08-17T01:45:00-00:00 1.93 0.133 2022-08-17T02:00:00-00:00 1.93 0.133 2.0 Experimental not manually quality-controlled 2022-08-17T01:15:00-00:00 2.68 0.0477 2022-08-17T01:30:00-00:00 2.68 0.0477 2022-08-17T01:45:00-00:00 2.68 0.0477 2022-08-17T02:00:00-00:00 2.68 0.0477 SRUS55 KGJT 170224 PAB HMLGJT d primaryUnits="ft" pedts="HGIRG" primaryName="Stage" timezone="UTC" secondaryUnits="kcfs" secondaryName="Flow"> 2022-08-17T01:15:00-00:00 1.17 0.148 2022-08-17T01:30:00-00:00 1.18 0.15 2022-08-17T01:45:00-00:00 1.18 0.15 2022-08-17T02:00:00-00:00 1.18 0.15 2.0 Experimental not manually quality-controlled 2022-08-17T01:15:00-00:00 1.21 0.0254 2022-08-17T01:30:00-00:00 1.21 0.0254 2022-08-17T01:45:00-00:00 1.21 0.0254 2022-08-17T02:00:00-00:00 1.21 0.0254 2.0 Experimental not manually quality-controlled 2022-08-17T01:15:00-00:00 5914.35 -999 2022-08-17T01:30:00-00:00 5914.34 -999 2022-08-17T01:45:00-00:00 5914.34 -999 2022-08-17T02:00:00-00:00 5914.34 -999 2.0 Experimental not manually quality-controlled 2022-08-17T01:30:00-00:00 7750.95 88.1 2022-08-17T01:45:00-00:00 7750.95 88.1 2022-08-17T02:00:00-00:00 7750.95 88.1 2022-08-17T02:15:00-00:00 7750.94 88.1 2.0 Experimental not manually quality-controlled 2022-08-17T01:15:00-00:00 6.26 0.869 2022-08-17T01:30:00-00:00 6.28 0.889 2022-08-17T01:45:00-00:00 6.28 0.889 2022-08-17T02:00:00-00:00 6.28 0.889 2.0 Experimental not manually quality-controlled 2022-08-17T01:10:00-00:00 4.42 0.168 2022-08-17T01:15:00-00:00 4.41 0.166 2022-08-17T01:20:00-00:00 4.41 0.166 2022-08-17T01:25:00-00:00 4.42 0.168 2022-08-17T01:30:00-00:00 4.41 0.166 2022-08-17T01:35:00-00:00 4.4 0.164 2022-08-17T01:40:00-00:00 4.43 0.171 2022-08-17T01:45:00-00:00 4.42 0.168 2022-08-17T01:50:00-00:00 4.41 0.166 2022-08-17T01:55:00-00:00 4.42 0.168 2022-08-17T02:00:00-00:00 4.41 0.166 2022-08-17T02:05:00-00:00 4.41 0.166 2.0 Experimental not manually quality-controlled 2022-08-17T01:30:00-00:00 1.32 0.124 2022-08-17T01:45:00-00:00 1.33 0.126 2022-08-17T02:00:00-00:00 1.33 0.126 2022-08-17T02:15:00-00:00 1.33 0.126 2.0 Experimental not manually quality-controlled 2022-08-17T01:15:00-00:00 1.44 0.0693 2022-08-17T01:30:00-00:00 1.44 0.0693 2022-08-17T01:45:00-00:00 1.45 0.071 2022-08-17T02:00:00-00:00 1.45 0.071 2.0 Experimental not manually quality-controlled 2022-08-17T01:15:00-00:00 4.16 0.232 2022-08-17T01:30:00-00:00 4.15 0.229 2022-08-17T01:45:00-00:00 4.16 0.232 2022-08-17T02:00:00-00:00 4.16 0.232 2.0 Experimental not manually quality-controlled 2022-08-17T01:15:00-00:00 2.28 0.121 2022-08-17T01:30:00-00:00 2.31 0.127 2022-08-17T01:45:00-00:00 2.3 0.125 2022-08-17T02:00:00-00:00 2.29 0.123 2.0 Experimental not manually quality-controlled 2022-08-17T01:30:00-00:00 3 0.157 2022-08-17T01:45:00-00:00 3 0.157 2022-08-17T02:00:00-00:00 2.99 0.154 2022-08-17T02:15:00-00:00 2.99 0.154 2.0 Experimental not manually quality-controlled 2022-08-17T01:31:00-00:00 1.04 0.0593 2022-08-17T01:46:00-00:00 1.04 0.0593 2022-08-17T02:01:00-00:00 1.04 0.0593 2022-08-17T02:16:00-00:00 1.04 0.0593 2.0 Experimental not manually quality-controlled 2022-08-17T02:15:00-00:00 4.51 2.62 2.0 Experimental not manually quality-controlled 2022-08-17T01:30:00-00:00 1.09 0.152 2022-08-17T01:45:00-00:00 1.09 0.152 2022-08-17T02:00:00-00:00 1.09 0.152 2022-08-17T02:15:00-00:00 1.1 0.154 2.0 Experimental not manually quality-controlled 2022-08-17T01:30:00-00:00 4.16 0.222 2022-08-17T01:45:00-00:00 4.16 0.222 2022-08-17T02:00:00-00:00 4.17 0.225 2022-08-17T02:15:00-00:00 4.16 0.222 2.0 Experimental not manually quality-controlled 2022-08-17T01:30:00-00:00 1.95 0.132 2022-08-17T01:45:00-00:00 1.96 0.134 2022-08-17T02:00:00-00:00 1.95 0.132 2022-08-17T02:15:00-00:00 1.95 0.132 2.0 Experimental not manually quality-controlled 2022-08-17T01:30:00-00:00 1.84 0.725 2022-08-17T01:45:00-00:00 1.85 0.732 2022-08-17T02:00:00-00:00 1.84 0.725 2022-08-17T02:15:00-00:00 1.85 0.732 2.0 Experimental not manually quality-controlled 2022-08-17T01:30:00-00:00 2.37 0.0013 2022-08-17T01:45:00-00:00 2.38 0.0014 2022-08-17T02:00:00-00:00 2.38 0.0014 2022-08-17T02:15:00-00:00 2.39 0.0014 2.0 Experimental not manually quality-controlled 2022-08-17T01:30:00-00:00 1.82 0.0444 2022-08-17T01:45:00-00:00 1.82 0.0444 2022-08-17T02:00:00-00:00 1.82 0.0444 2022-08-17T02:15:00-00:00 1.82 0.0444 2.0 Experimental not manually quality-controlled 2022-08-17T01:30:00-00:00 4.74 2.8 2022-08-17T01:45:00-00:00 4.74 2.8 2022-08-17T02:00:00-00:00 4.74 2.8 2022-08-17T02:15:00-00:00 4.76 2.84 2.0 Experimental not manually quality-controlled 2022-08-17T02:15:00-00:00 2.47 0.551 2.0 Experimental not manually quality-controlled 2022-08-17T01:30:00-00:00 5.99 0.0762 2022-08-17T01:45:00-00:00 6.04 0.082 2022-08-17T02:00:00-00:00 6.07 0.0859 2022-08-17T02:15:00-00:00 6.06 0.0846 2.0 Experimental not manually quality-controlled 2022-08-17T01:30:00-00:00 4.99 0.63 2022-08-17T01:45:00-00:00 4.95 0.599 2022-08-17T02:00:00-00:00 4.91 0.568 2022-08-17T02:15:00-00:00 4.87 0.539 2.0 Experimental not manually quality-controlled 2022-08-17T01:30:00-00:00 1.44 -999 2022-08-17T01:45:00-00:00 1.44 -999 2022-08-17T02:00:00-00:00 1.44 -999 2022-08-17T02:15:00-00:00 1.44 -999 2.0 Experimental not manually quality-controlled 2022-08-17T01:30:00-00:00 0.73 0.0063 2022-08-17T01:45:00-00:00 0.73 0.0063 2022-08-17T02:00:00-00:00 0.73 0.0063 2022-08-17T02:15:00-00:00 0.75 0.0071 2.0 Experimental not manually quality-controlled 2022-08-17T01:45:00-00:00 3.46 0.0146 2022-08-17T02:00:00-00:00 3.46 0.0146 2022-08-17T02:15:00-00:00 3.46 0.0146 2022-08-17T02:30:00-00:00 3.45 0.014 2.0 Experimental not manually quality-controlled 2022-08-17T01:30:00-00:00 1.4 0.088 2022-08-17T01:45:00-00:00 1.4 0.088 2022-08-17T02:00:00-00:00 1.4 0.088 2022-08-17T02:15:00-00:00 1.4 0.088 2.0 Experimental not manually quality-controlled 2022-08-17T01:30:00-00:00 2.95 0.0262 2022-08-17T01:45:00-00:00 2.96 0.0268 2022-08-17T02:00:00-00:00 2.98 0.028 2022-08-17T02:15:00-00:00 3.02 0.0304 2.0 Experimental not manually quality-controlled 2022-08-17T01:30:00-00:00 2.08 0.263 2022-08-17T01:45:00-00:00 2.07 0.259 2022-08-17T02:00:00-00:00 2.08 0.263 2022-08-17T02:15:00-00:00 2.07 0.259 2.0 Experimental not manually quality-controlled 2022-08-17T01:30:00-00:00 1.98 0.248 2022-08-17T01:45:00-00:00 1.99 0.253 2022-08-17T02:00:00-00:00 1.98 0.248 2022-08-17T02:15:00-00:00 1.98 0.248 2.0 Experimental not manually quality-controlled 2022-08-17T02:15:00-00:00 2.36 0.208 2.0 Experimental not manually quality-controlled 2022-08-17T01:30:00-00:00 1.53 0.0982 2022-08-17T01:45:00-00:00 1.53 0.0982 2022-08-17T02:00:00-00:00 1.53 0.0982 2022-08-17T02:15:00-00:00 1.52 0.0964 SRUS55 KGJT 170254 PZC HMLGJT timezone="UTC" secondaryUnits="kcfs" secondaryName="Flow"> 2022-08-17T02:00:00-00:00 4.27 0.0489 2022-08-17T02:15:00-00:00 4.27 0.0489 2022-08-17T02:30:00-00:00 4.27 0.0489 2022-08-17T02:45:00-00:00 4.27 0.0489 2.0 Experimental not manually quality-controlled 2022-08-17T02:00:00-00:00 1.35 0.073 2022-08-17T02:15:00-00:00 1.35 0.073 2022-08-17T02:30:00-00:00 1.35 0.073 2022-08-17T02:45:00-00:00 1.35 0.073 2.0 Experimental not manually quality-controlled 2022-08-17T01:45:00-00:00 4.1 0.208 2022-08-17T02:00:00-00:00 4.1 0.208 2022-08-17T02:15:00-00:00 4.09 0.205 2022-08-17T02:30:00-00:00 4.09 0.205 2.0 Experimental not manually quality-controlled 2022-08-17T02:00:00-00:00 2.39 0.116 2022-08-17T02:15:00-00:00 2.39 0.116 2022-08-17T02:30:00-00:00 2.39 0.116 2022-08-17T02:45:00-00:00 2.39 0.116 2.0 Experimental not manually quality-controlled 2022-08-17T02:00:00-00:00 2.43 0.058 2022-08-17T02:15:00-00:00 2.43 0.058 2022-08-17T02:30:00-00:00 2.44 0.0597 2022-08-17T02:45:00-00:00 2.44 0.0597 SRUS55 KGJT 170254 PAB HMLGJT enerationtime="2022-08-17T02:54:18+00:00" timezone="MST7MDT" originator="GJT" name="Gunnison River AT Gunnison Tunnel" id="GEPC2" xsi:noNamespaceSchemaLocation="http://weather.gov/ohd/hydroxc/schemas/hydrogen/HydData.xsd"> 2.0 Experimental not manually quality-controlled 2022-08-17T02:30:00-00:00 2.47 0.551 2.0 Experimental not manually quality-controlled 2022-08-17T01:45:00-00:00 2.95 1.15 2022-08-17T02:00:00-00:00 2.95 1.15 2022-08-17T02:15:00-00:00 2.94 1.14 2022-08-17T02:30:00-00:00 2.95 1.15 2.0 Experimental not manually quality-controlled 2022-08-17T02:00:00-00:00 5.41 0.0593 2022-08-17T02:15:00-00:00 5.42 0.06 2022-08-17T02:30:00-00:00 5.43 0.0607 2022-08-17T02:45:00-00:00 5.46 0.0627 2.0 Experimental not manually quality-controlled 2022-08-17T01:45:00-00:00 9.54 2.11 2022-08-17T02:00:00-00:00 9.54 2.11 2022-08-17T02:15:00-00:00 9.53 2.1 2022-08-17T02:30:00-00:00 9.54 2.11 2.0 Experimental not manually quality-controlled 2022-08-17T01:45:00-00:00 2.68 2 2022-08-17T02:00:00-00:00 2.7 2.03 2022-08-17T02:15:00-00:00 2.72 2.05 2022-08-17T02:30:00-00:00 2.71 2.04 2.0 Experimental not manually quality-controlled 2022-08-17T01:45:00-00:00 4.52 0.156 2022-08-17T02:00:00-00:00 4.52 0.156 2022-08-17T02:15:00-00:00 4.52 0.156 2022-08-17T02:30:00-00:00 4.52 0.156 2.0 Experimental not manually quality-controlled 2022-08-17T02:00:00-00:00 2.94 0.0292 2022-08-17T02:15:00-00:00 2.94 0.0292 2022-08-17T02:30:00-00:00 2.94 0.0292 2022-08-17T02:45:00-00:00 2.94 0.0292 2.0 Experimental not manually quality-controlled 2022-08-17T01:45:00-00:00 1.05 0.022 2022-08-17T02:00:00-00:00 1.06 0.0227 2022-08-17T02:15:00-00:00 1.06 0.0227 2022-08-17T02:30:00-00:00 1.06 0.0227 2.0 Experimental not manually quality-controlled 2022-08-17T01:45:00-00:00 2.78 0.049 2022-08-17T02:00:00-00:00 2.78 0.049 2022-08-17T02:15:00-00:00 2.76 0.0456 2022-08-17T02:30:00-00:00 2.75 0.044 2.0 Experimental not manually quality-controlled 2022-08-17T01:45:00-00:00 1.82 0.174 2022-08-17T02:00:00-00:00 1.82 0.174 2022-08-17T02:15:00-00:00 1.84 0.177 2022-08-17T02:30:00-00:00 1.85 0.179 2.0 Experimental not manually quality-controlled 2022-08-17T02:30:00-00:00 2.36 0.208 2.0 Experimental not manually quality-controlled 2.0 Experimental not manually quality-controlled 2022-08-17T01:45:00-00:00 1.04 0.0593 2022-08-17T02:00:00-00:00 1.04 0.0593 2022-08-17T02:15:00-00:00 1.04 0.0593 2022-08-17T02:30:00-00:00 1.04 0.0593 2.0 Experimental not manually quality-controlled 2022-08-17T01:45:00-00:00 7.06 1.8 2022-08-17T02:00:00-00:00 7.03 1.77 2022-08-17T02:15:00-00:00 7 1.75 2022-08-17T02:30:00-00:00 6.96 1.71 2.0 Experimental not manually quality-controlled 2022-08-17T02:30:00-00:00 4.51 2.62 2.0 Experimental not manually quality-controlled 2022-08-17T02:00:00-00:00 3.66 3.4 2022-08-17T02:15:00-00:00 3.64 3.37 2022-08-17T02:30:00-00:00 3.63 3.35 2022-08-17T02:45:00-00:00 3.62 3.33 2.0 Experimental not manually quality-controlled 2022-08-17T02:00:00-00:00 2.64 0.169 2022-08-17T02:15:00-00:00 2.65 0.172 2022-08-17T02:30:00-00:00 2.65 0.172 2022-08-17T02:45:00-00:00 2.65 0.172 2.0 Experimental not manually quality-controlled 2022-08-17T01:45:00-00:00 2.66 0.403 2022-08-17T02:00:00-00:00 2.66 0.403 2022-08-17T02:15:00-00:00 2.66 0.403 2022-08-17T02:30:00-00:00 2.66 0.403 2.0 Experimental not manually quality-controlled 2022-08-17T02:00:00-00:00 0.63 0.026 2022-08-17T02:15:00-00:00 0.63 0.026 2022-08-17T02:30:00-00:00 0.63 0.026 2022-08-17T02:45:00-00:00 0.63 0.026 2.0 Experimental not manually quality-controlled 2022-08-17T02:00:00-00:00 1.91 0.072 2022-08-17T02:15:00-00:00 1.92 0.0734 2022-08-17T02:30:00-00:00 1.91 0.072 2022-08-17T02:45:00-00:00 1.91 0.072 2.0 Experimental not manually quality-controlled 2022-08-17T01:45:00-00:00 1.87 0.11 2022-08-17T02:00:00-00:00 1.89 0.115 2022-08-17T02:15:00-00:00 1.89 0.115 2022-08-17T02:30:00-00:00 1.89 0.115 2.0 Experimental not manually quality-controlled 2022-08-17T01:45:00-00:00 2.31 0.0916 2022-08-17T02:00:00-00:00 2.31 0.0916 2022-08-17T02:15:00-00:00 2.31 0.0916 2022-08-17T02:30:00-00:00 2.31 0.0916 2.0 Experimental not manually quality-controlled 2022-08-17T01:45:00-00:00 2.66 0.111 2022-08-17T02:00:00-00:00 2.66 0.111 2022-08-17T02:15:00-00:00 2.66 0.111 2022-08-17T02:30:00-00:00 2.66 0.111 2.0 Experimental not manually quality-controlled 2022-08-17T02:45:00-00:00 4.52 2.64 2.0 Experimental not manually quality-controlled 2022-08-17T02:00:00-00:00 3.66 3.4 2022-08-17T02:15:00-00:00 3.64 3.37 2022-08-17T02:30:00-00:00 3.63 3.35 2022-08-17T02:45:00-00:00 3.62 3.33 2.0 Experimental not manually quality-controlled 2022-08-17T02:15:00-00:00 2.33 0.029 2022-08-17T02:30:00-00:00 2.33 0.029 2022-08-17T02:45:00-00:00 2.32 0.0281 2022-08-17T03:00:00-00:00 2.32 0.0281 2.0 Experimental not manually quality-controlled 2022-08-17T02:00:00-00:00 2.64 0.169 2022-08-17T02:15:00-00:00 2.65 0.172 2022-08-17T02:30:00-00:00 2.65 0.172 2022-08-17T02:45:00-00:00 2.65 0.172 2.0 Experimental not manually quality-controlled 2022-08-17T02:00:00-00:00 7.02 0.114 2022-08-17T02:15:00-00:00 7.02 0.114 2022-08-17T02:30:00-00:00 7.02 0.114 2022-08-17T02:45:00-00:00 7.02 0.114 2.0 Experimental not manually quality-controlled 2022-08-17T02:00:00-00:00 1.91 0.072 2022-08-17T02:15:00-00:00 1.92 0.0734 2022-08-17T02:30:00-00:00 1.91 0.072 2022-08-17T02:45:00-00:00 1.91 0.072 2.0 Experimental not manually quality-controlled 2022-08-17T02:15:00-00:00 3.26 1.86 2022-08-17T02:30:00-00:00 3.26 1.86 2022-08-17T02:45:00-00:00 3.26 1.86 2022-08-17T03:00:00-00:00 3.26 1.86 2.0 Experimental not manually quality-controlled 2022-08-17T02:45:00-00:00 2.47 0.551 2.0 Experimental not manually quality-controlled 2022-08-17T02:00:00-00:00 5.41 0.0593 2022-08-17T02:15:00-00:00 5.42 0.06 2022-08-17T02:30:00-00:00 5.43 0.0607 2022-08-17T02:45:00-00:00 5.46 0.0627 2.0 Experimental not manually quality-controlled 2022-08-17T02:00:00-00:00 2.36 0.901 2022-08-17T02:15:00-00:00 2.37 0.909 2022-08-17T02:30:00-00:00 2.36 0.901 2022-08-17T02:45:00-00:00 2.36 0.901 2.0 Experimental not manually quality-controlled 2022-08-17T02:00:00-00:00 3.06 0.493 2022-08-17T02:15:00-00:00 3.07 0.499 2022-08-17T02:30:00-00:00 3.07 0.499 2022-08-17T02:45:00-00:00 3.07 0.499 2.0 Experimental not manually quality-controlled 2022-08-17T02:00:00-00:00 3.31 0.0369 2022-08-17T02:15:00-00:00 3.31 0.0369 2022-08-17T02:30:00-00:00 3.31 0.0369 2022-08-17T02:45:00-00:00 3.3 0.0359 2.0 Experimental not manually quality-controlled 2022-08-17T01:45:00-00:00 -9999 -999 2022-08-17T02:00:00-00:00 -9999 -999 2022-08-17T02:15:00-00:00 -9999 -999 2022-08-17T02:30:00-00:00 -9999 -999 2.0 Experimental not manually quality-controlled 2022-08-17T02:00:00-00:00 5.31 0.0292 2022-08-17T02:15:00-00:00 5.31 0.0292 2022-08-17T02:30:00-00:00 5.31 0.0292 2022-08-17T02:45:00-00:00 5.32 0.03 2.0 Experimental not manually quality-controlled 2022-08-17T02:00:00-00:00 1.37 0.0526 2022-08-17T02:15:00-00:00 1.38 0.0532 2022-08-17T02:30:00-00:00 1.38 0.0532 2022-08-17T02:45:00-00:00 1.37 0.0526 2.0 Experimental not manually quality-controlled 2022-08-17T02:00:00-00:00 3.97 0 2022-08-17T02:15:00-00:00 3.97 0 2022-08-17T02:30:00-00:00 3.97 0 2022-08-17T02:45:00-00:00 3.97 0 2.0 Experimental not manually quality-controlled 2022-08-17T02:15:00-00:00 1.17 0.148 2022-08-17T02:30:00-00:00 1.18 0.15 2022-08-17T02:45:00-00:00 1.18 0.15 2022-08-17T03:00:00-00:00 1.18 0.15 2.0 Experimental not manually quality-controlled 2022-08-17T02:00:00-00:00 2.94 0.0292 2022-08-17T02:15:00-00:00 2.94 0.0292 2022-08-17T02:30:00-00:00 2.94 0.0292 2022-08-17T02:45:00-00:00 2.94 0.0292 2.0 Experimental not manually quality-controlled 2022-08-17T02:15:00-00:00 1.21 0.0254 2022-08-17T02:30:00-00:00 1.21 0.0254 2022-08-17T02:45:00-00:00 1.21 0.0254 2022-08-17T03:00:00-00:00 1.21 0.0254 2.0 Experimental not manually quality-controlled 2022-08-17T02:15:00-00:00 5914.33 -999 2022-08-17T02:30:00-00:00 5914.33 -999 2022-08-17T02:45:00-00:00 5914.33 -999 2022-08-17T03:00:00-00:00 5914.32 -999 2.0 Experimental not manually quality-controlled 2022-08-17T02:15:00-00:00 2.28 0.121 2022-08-17T02:30:00-00:00 2.27 0.119 2022-08-17T02:45:00-00:00 2.27 0.119 2022-08-17T03:00:00-00:00 2.26 0.117 2.0 Experimental not manually quality-controlled 2022-08-17T02:45:00-00:00 2.36 0.208 2.0 Experimental not manually quality-controlled 2022-08-17T02:00:00-00:00 4.27 0.0489 2022-08-17T02:15:00-00:00 4.27 0.0489 2022-08-17T02:30:00-00:00 4.27 0.0489 2022-08-17T02:45:00-00:00 4.27 0.0489 2.0 Experimental not manually quality-controlled 2022-08-17T02:00:00-00:00 1.35 0.073 2022-08-17T02:15:00-00:00 1.35 0.073 2022-08-17T02:30:00-00:00 1.35 0.073 2022-08-17T02:45:00-00:00 1.35 0.073 2.0 Experimental not manually quality-controlled 2022-08-17T02:00:00-00:00 1.7 0.153 2022-08-17T02:15:00-00:00 1.69 0.151 2022-08-17T02:30:00-00:00 1.69 0.151 2022-08-17T02:45:00-00:00 1.69 0.151 2.0 Experimental not manually quality-controlled 2022-08-17T02:00:00-00:00 2.15 0.117 2022-08-17T02:15:00-00:00 2.14 0.115 2022-08-17T02:30:00-00:00 2.15 0.117 2022-08-17T02:45:00-00:00 2.15 0.117 2.0 Experimental not manually quality-controlled 2022-08-17T02:00:00-00:00 2.43 0.058 2022-08-17T02:15:00-00:00 2.43 0.058 2022-08-17T02:30:00-00:00 2.44 0.0597 2022-08-17T02:45:00-00:00 2.44 0.0597 SRUS55 KGJT 170324 PAA HMLGJT 2.0 Experimental not manually quality-controlled 2022-08-17T02:30:00-00:00 2.06 0.296 2022-08-17T02:45:00-00:00 2.06 0.296 2022-08-17T03:00:00-00:00 2.06 0.296 2022-08-17T03:15:00-00:00 2.07 0.3 2.0 Experimental not manually quality-controlled 2022-08-17T03:00:00-00:00 4.57 2.72 2.0 Experimental not manually quality-controlled 2022-08-17T02:15:00-00:00 2.27 2.94 2022-08-17T02:30:00-00:00 2.27 2.94 2022-08-17T02:45:00-00:00 2.27 2.94 2022-08-17T03:00:00-00:00 2.27 2.94 2.0 Experimental not manually quality-controlled 2022-08-17T02:15:00-00:00 3.08 0.056 2022-08-17T02:30:00-00:00 3.08 0.056 2022-08-17T02:45:00-00:00 3.09 0.057 2022-08-17T03:00:00-00:00 3.1 0.058 2.0 Experimental not manually quality-controlled 2022-08-17T02:15:00-00:00 5.15 0.0709 2022-08-17T02:30:00-00:00 5.14 0.0695 2022-08-17T02:45:00-00:00 5.13 0.0682 2022-08-17T03:00:00-00:00 5.13 0.0682 2.0 Experimental not manually quality-controlled 2022-08-17T02:15:00-00:00 3.26 1.86 2022-08-17T02:30:00-00:00 3.26 1.86 2022-08-17T02:45:00-00:00 3.26 1.86 2022-08-17T03:00:00-00:00 3.26 1.86 2.0 Experimental not manually quality-controlled 2022-08-17T03:00:00-00:00 2.47 0.551 2.0 Experimental not manually quality-controlled 2022-08-17T02:30:00-00:00 1.46 0.529 2022-08-17T02:45:00-00:00 1.47 0.538 2022-08-17T03:00:00-00:00 1.47 0.538 2022-08-17T03:15:00-00:00 1.47 0.538 2.0 Experimental not manually quality-controlled 2022-08-17T02:15:00-00:00 3.79 0.024 2022-08-17T02:30:00-00:00 3.79 0.024 2022-08-17T02:45:00-00:00 3.79 0.024 2022-08-17T03:00:00-00:00 3.79 0.024 2.0 Experimental not manually quality-controlled 2022-08-17T02:15:00-00:00 2.37 0.0693 2022-08-17T02:30:00-00:00 2.36 0.068 2022-08-17T02:45:00-00:00 2.36 0.068 2022-08-17T03:00:00-00:00 2.35 0.0667 2.0 Experimental not manually quality-controlled 2022-08-17T02:15:00-00:00 4.1 0.16 2022-08-17T02:30:00-00:00 4.06 0.152 2022-08-17T02:45:00-00:00 4.06 0.152 2022-08-17T03:00:00-00:00 4.05 0.15 2.0 Experimental not manually quality-controlled 2.0 Experimental not manually quality-controlled 2022-08-17T03:00:00-00:00 2.35 0.204 2.0 Experimental not manually quality-controlled 2022-08-17T02:15:00-00:00 7640.64 66.4 2022-08-17T02:30:00-00:00 7640.64 66.4 2022-08-17T02:45:00-00:00 7640.64 66.4 2022-08-17T03:00:00-00:00 7640.64 66.4 2.0 Experimental not manually quality-controlled 2022-08-17T02:15:00-00:00 1.93 0.133 2022-08-17T02:30:00-00:00 1.93 0.133 2022-08-17T02:45:00-00:00 1.93 0.133 2022-08-17T03:00:00-00:00 1.93 0.133 2.0 Experimental not manually quality-controlled 2022-08-17T02:15:00-00:00 2.68 0.0477 2022-08-17T02:30:00-00:00 2.68 0.0477 2022-08-17T02:45:00-00:00 2.68 0.0477 2022-08-17T03:00:00-00:00 2.68 0.0477 SRUS55 KGJT 170324 PAB HMLGJT ryUnits="ft" pedts="HGIRG" primaryName="Stage" timezone="UTC" secondaryUnits="kcfs" secondaryName="Flow"> 2022-08-17T02:15:00-00:00 1.17 0.148 2022-08-17T02:30:00-00:00 1.18 0.15 2022-08-17T02:45:00-00:00 1.18 0.15 2022-08-17T03:00:00-00:00 1.18 0.15 2.0 Experimental not manually quality-controlled 2022-08-17T02:15:00-00:00 1.21 0.0254 2022-08-17T02:30:00-00:00 1.21 0.0254 2022-08-17T02:45:00-00:00 1.21 0.0254 2022-08-17T03:00:00-00:00 1.21 0.0254 2.0 Experimental not manually quality-controlled 2022-08-17T02:15:00-00:00 5914.33 -999 2022-08-17T02:30:00-00:00 5914.33 -999 2022-08-17T02:45:00-00:00 5914.33 -999 2022-08-17T03:00:00-00:00 5914.32 -999 2.0 Experimental not manually quality-controlled 2022-08-17T02:30:00-00:00 7750.94 88.1 2022-08-17T02:45:00-00:00 7750.94 88.1 2022-08-17T03:00:00-00:00 7750.94 88.1 2022-08-17T03:15:00-00:00 7750.93 88 2.0 Experimental not manually quality-controlled 2022-08-17T02:15:00-00:00 6.3 0.91 2022-08-17T02:30:00-00:00 6.29 0.899 2022-08-17T02:45:00-00:00 6.28 0.889 2022-08-17T03:00:00-00:00 6.29 0.899 2.0 Experimental not manually quality-controlled 2022-08-17T02:10:00-00:00 4.4 0.164 2022-08-17T02:15:00-00:00 4.42 0.168 2022-08-17T02:20:00-00:00 4.44 0.173 2022-08-17T02:25:00-00:00 4.4 0.164 2022-08-17T02:30:00-00:00 4.41 0.166 2022-08-17T02:35:00-00:00 4.44 0.173 2022-08-17T02:40:00-00:00 4.42 0.168 2022-08-17T02:45:00-00:00 4.42 0.168 2022-08-17T02:50:00-00:00 4.42 0.168 2022-08-17T02:55:00-00:00 4.42 0.168 2022-08-17T03:00:00-00:00 4.41 0.166 2022-08-17T03:05:00-00:00 4.42 0.168 2.0 Experimental not manually quality-controlled 2022-08-17T02:30:00-00:00 1.33 0.126 2022-08-17T02:45:00-00:00 1.33 0.126 2022-08-17T03:00:00-00:00 1.32 0.124 2022-08-17T03:15:00-00:00 1.33 0.126 2.0 Experimental not manually quality-controlled 2022-08-17T02:15:00-00:00 1.45 0.071 2022-08-17T02:30:00-00:00 1.46 0.0726 2022-08-17T02:45:00-00:00 1.48 0.076 2022-08-17T03:00:00-00:00 1.51 0.081 2.0 Experimental not manually quality-controlled 2022-08-17T02:15:00-00:00 4.16 0.232 2022-08-17T02:30:00-00:00 4.17 0.235 2022-08-17T02:45:00-00:00 4.16 0.232 2022-08-17T03:00:00-00:00 4.16 0.232 2.0 Experimental not manually quality-controlled 2022-08-17T02:15:00-00:00 2.28 0.121 2022-08-17T02:30:00-00:00 2.27 0.119 2022-08-17T02:45:00-00:00 2.27 0.119 2022-08-17T03:00:00-00:00 2.26 0.117 SRUS55 KGJT 170339 PAA HMLGJT 2.0 Experimental not manually quality-controlled 2022-08-17T02:30:00-00:00 3 0.157 2022-08-17T02:45:00-00:00 2.99 0.154 2022-08-17T03:00:00-00:00 3.01 0.16 2022-08-17T03:15:00-00:00 3.01 0.16 2.0 Experimental not manually quality-controlled 2022-08-17T03:15:00-00:00 4.63 2.82 2.0 Experimental not manually quality-controlled 2022-08-17T02:30:00-00:00 1.1 0.154 2022-08-17T02:45:00-00:00 1.1 0.154 2022-08-17T03:00:00-00:00 1.1 0.154 2022-08-17T03:15:00-00:00 1.09 0.152 2.0 Experimental not manually quality-controlled 2022-08-17T02:30:00-00:00 4.17 0.225 2022-08-17T02:45:00-00:00 4.16 0.222 2022-08-17T03:00:00-00:00 4.16 0.222 2022-08-17T03:15:00-00:00 4.16 0.222 2.0 Experimental not manually quality-controlled 2022-08-17T02:30:00-00:00 1.96 0.134 2022-08-17T02:45:00-00:00 1.96 0.134 2022-08-17T03:00:00-00:00 1.95 0.132 2022-08-17T03:15:00-00:00 1.95 0.132 2.0 Experimental not manually quality-controlled 2022-08-17T02:30:00-00:00 1.85 0.732 2022-08-17T02:45:00-00:00 1.85 0.732 2022-08-17T03:00:00-00:00 1.85 0.732 2022-08-17T03:15:00-00:00 1.85 0.732 2.0 Experimental not manually quality-controlled 2022-08-17T02:30:00-00:00 2.4 0.0015 2022-08-17T02:45:00-00:00 2.4 0.0015 2022-08-17T03:00:00-00:00 2.4 0.0015 2022-08-17T03:15:00-00:00 2.41 0.0016 2.0 Experimental not manually quality-controlled 2022-08-17T02:30:00-00:00 1.82 0.0444 2022-08-17T02:45:00-00:00 1.82 0.0444 2022-08-17T03:00:00-00:00 1.82 0.0444 2022-08-17T03:15:00-00:00 1.82 0.0444 2.0 Experimental not manually quality-controlled 2022-08-17T02:30:00-00:00 4.77 2.86 2022-08-17T02:45:00-00:00 4.78 2.88 2022-08-17T03:00:00-00:00 4.78 2.88 2022-08-17T03:15:00-00:00 4.8 2.92 2.0 Experimental not manually quality-controlled 2022-08-17T03:15:00-00:00 2.46 0.546 2.0 Experimental not manually quality-controlled 2022-08-17T02:30:00-00:00 6.05 0.0833 2022-08-17T02:45:00-00:00 6.04 0.082 2022-08-17T03:00:00-00:00 6.03 0.0808 2022-08-17T03:15:00-00:00 6.03 0.0808 2.0 Experimental not manually quality-controlled SRUS55 KGJT 170339 PZB HMLGJT 2022-08-17T02:30:00-00:00 4.83 0.511 2022-08-17T02:45:00-00:00 4.82 0.504 2022-08-17T03:00:00-00:00 4.81 0.497 2022-08-17T03:15:00-00:00 4.79 0.483 2.0 Experimental not manually quality-controlled 2022-08-17T02:30:00-00:00 1.44 -999 2022-08-17T02:45:00-00:00 1.44 -999 2022-08-17T03:00:00-00:00 1.44 -999 2022-08-17T03:15:00-00:00 1.43 -999 2.0 Experimental not manually quality-controlled 2022-08-17T02:30:00-00:00 0.73 0.0063 2022-08-17T02:45:00-00:00 0.73 0.0063 2022-08-17T03:00:00-00:00 0.74 0.0067 2022-08-17T03:15:00-00:00 0.71 0.0056 2.0 Experimental not manually quality-controlled 2022-08-17T02:45:00-00:00 3.45 0.014 2022-08-17T03:00:00-00:00 3.45 0.014 2022-08-17T03:15:00-00:00 3.46 0.0146 2022-08-17T03:30:00-00:00 3.46 0.0146 2.0 Experimental not manually quality-controlled 2022-08-17T02:30:00-00:00 1.4 0.088 2022-08-17T02:45:00-00:00 1.41 0.0902 2022-08-17T03:00:00-00:00 1.41 0.0902 2022-08-17T03:15:00-00:00 1.41 0.0902 2.0 Experimental not manually quality-controlled 2022-08-17T02:30:00-00:00 3 0.0292 2022-08-17T02:45:00-00:00 3.02 0.0304 2022-08-17T03:00:00-00:00 3.02 0.0304 2022-08-17T03:15:00-00:00 3.04 0.0316 2.0 Experimental not manually quality-controlled 2022-08-17T02:30:00-00:00 2.07 0.259 2022-08-17T02:45:00-00:00 2.07 0.259 2022-08-17T03:00:00-00:00 2.07 0.259 2022-08-17T03:15:00-00:00 2.07 0.259 2.0 Experimental not manually quality-controlled 2022-08-17T02:30:00-00:00 1.98 0.248 2022-08-17T02:45:00-00:00 1.98 0.248 2022-08-17T03:00:00-00:00 1.98 0.248 2022-08-17T03:15:00-00:00 1.99 0.253 2.0 Experimental not manually quality-controlled 2022-08-17T03:15:00-00:00 2.36 0.208 2.0 Experimental not manually quality-controlled 2022-08-17T02:30:00-00:00 1.52 0.0964 2022-08-17T02:45:00-00:00 1.52 0.0964 2022-08-17T03:00:00-00:00 1.52 0.0964 2022-08-17T03:15:00-00:00 1.53 0.0982 SRUS55 KGJT 170345 RR3GJT WxCoder .A 4BL 220816 M DH1800/TX 81/TN 61/TA 71/PP 0.25 .A1 DC2208162143 SRUS55 KGJT 170354 PAB HMLGJT generationtime="2022-08-17T03:54:08+00:00" timezone="MST7MDT" originator="GJT" name="Gunnison River AT Gunnison Tunnel" id="GEPC2" xsi:noNamespaceSchemaLocation="http://weather.gov/ohd/hydroxc/schemas/hydrogen/HydData.xsd"> 2.0 Experimental not manually quality-controlled 2022-08-17T03:30:00-00:00 2.46 0.546 2.0 Experimental not manually quality-controlled 2022-08-17T02:45:00-00:00 2.95 1.15 2022-08-17T03:00:00-00:00 2.95 1.15 2022-08-17T03:15:00-00:00 2.94 1.14 2022-08-17T03:30:00-00:00 2.94 1.14 2.0 Experimental not manually quality-controlled 2022-08-17T03:00:00-00:00 5.52 0.067 2022-08-17T03:15:00-00:00 5.58 0.0721 2022-08-17T03:30:00-00:00 5.59 0.073 2022-08-17T03:45:00-00:00 5.69 0.0808 2.0 Experimental not manually quality-controlled 2022-08-17T02:45:00-00:00 9.53 2.1 2022-08-17T03:00:00-00:00 9.54 2.11 2022-08-17T03:15:00-00:00 9.54 2.11 2022-08-17T03:30:00-00:00 9.54 2.11 2.0 Experimental not manually quality-controlled 2022-08-17T02:45:00-00:00 2.72 2.05 2022-08-17T03:00:00-00:00 2.73 2.06 2022-08-17T03:15:00-00:00 2.74 2.08 2022-08-17T03:30:00-00:00 2.76 2.1 2.0 Experimental not manually quality-controlled 2022-08-17T02:45:00-00:00 4.52 0.156 2022-08-17T03:00:00-00:00 4.52 0.156 2022-08-17T03:15:00-00:00 4.52 0.156 2022-08-17T03:30:00-00:00 4.52 0.156 2.0 Experimental not manually quality-controlled 2022-08-17T03:00:00-00:00 2.94 0.0292 2022-08-17T03:15:00-00:00 2.94 0.0292 2022-08-17T03:30:00-00:00 2.94 0.0292 2022-08-17T03:45:00-00:00 2.94 0.0292 2.0 Experimental not manually quality-controlled 2022-08-17T02:45:00-00:00 1.05 0.022 2022-08-17T03:00:00-00:00 1.05 0.022 2022-08-17T03:15:00-00:00 1.04 0.0212 2022-08-17T03:30:00-00:00 1.03 0.0205 2.0 Experimental not manually quality-controlled 2022-08-17T02:45:00-00:00 2.74 0.0426 2022-08-17T03:00:00-00:00 2.74 0.0426 2022-08-17T03:15:00-00:00 2.74 0.0426 2022-08-17T03:30:00-00:00 2.74 0.0426 2.0 Experimental not manually quality-controlled 2022-08-17T02:45:00-00:00 1.84 0.177 2022-08-17T03:00:00-00:00 1.86 0.181 2022-08-17T03:15:00-00:00 1.85 0.179 2022-08-17T03:30:00-00:00 1.86 0.181 2.0 Experimental not manually quality-controlled 2022-08-17T03:30:00-00:00 2.36 0.208 2.0 Experimental not manually quality-controlled 2.0 Experimental not manually quality-controlled 2022-08-17T02:45:00-00:00 1.04 0.0593 2022-08-17T03:00:00-00:00 1.04 0.0593 2022-08-17T03:15:00-00:00 1.02 0.0568 2022-08-17T03:30:00-00:00 1.02 0.0568 2.0 Experimental not manually quality-controlled 2022-08-17T02:45:00-00:00 6.93 1.68 2022-08-17T03:00:00-00:00 6.9 1.66 2022-08-17T03:15:00-00:00 6.88 1.64 2022-08-17T03:30:00-00:00<